<?xml version="1.0" encoding="UTF-8" standalone="no" ?>
<gpx xmlns="http://www.topografix.com/GPX/1/1" xmlns:xsi="http://www.w3.org/2001/XMLSchema-instance" xsi:schemaLocation="http://www.topografix.com/GPX/1/1 http://www.topografix.com/GPX/1/1/gpx.xsd" version="1.1" creator="VisuGPX - https://www.visugpx.com">
  <metadata>
    <name>150114Minots</name>
    <desc><![CDATA[Bonne sortie]]></desc>
  </metadata>
  <trk>
    <name><![CDATA[150114Minots]]></name>
    <trkseg>
      <trkpt lat="43.41583" lon="6.07041">
        <ele>218.49316</ele>
        <time>2015-01-14T12:44:33Z</time>
      </trkpt>
      <trkpt lat="43.41583" lon="6.07046">
        <ele>218.43307</ele>
        <time>2015-01-14T12:44:39Z</time>
      </trkpt>
      <trkpt lat="43.41583" lon="6.07051">
        <ele>218.39188</ele>
        <time>2015-01-14T12:44:41Z</time>
      </trkpt>
      <trkpt lat="43.41585" lon="6.07071">
        <ele>218.19104</ele>
        <time>2015-01-14T12:44:47Z</time>
      </trkpt>
      <trkpt lat="43.41587" lon="6.07095">
        <ele>218.0896</ele>
        <time>2015-01-14T12:44:51Z</time>
      </trkpt>
      <trkpt lat="43.41583" lon="6.07107">
        <ele>217.98889</ele>
        <time>2015-01-14T12:44:54Z</time>
      </trkpt>
      <trkpt lat="43.4158" lon="6.07108">
        <ele>217.9248</ele>
        <time>2015-01-14T12:44:55Z</time>
      </trkpt>
      <trkpt lat="43.41574" lon="6.07114">
        <ele>217.78748</ele>
        <time>2015-01-14T12:44:57Z</time>
      </trkpt>
      <trkpt lat="43.41558" lon="6.07117">
        <ele>217.38464</ele>
        <time>2015-01-14T12:45:01Z</time>
      </trkpt>
      <trkpt lat="43.41551" lon="6.07115">
        <ele>217.229</ele>
        <time>2015-01-14T12:45:03Z</time>
      </trkpt>
      <trkpt lat="43.41549" lon="6.07107">
        <ele>217.18323</ele>
        <time>2015-01-14T12:45:05Z</time>
      </trkpt>
      <trkpt lat="43.41549" lon="6.07097">
        <ele>217.16492</ele>
        <time>2015-01-14T12:45:08Z</time>
      </trkpt>
      <trkpt lat="43.41548" lon="6.07091">
        <ele>217.14661</ele>
        <time>2015-01-14T12:45:10Z</time>
      </trkpt>
      <trkpt lat="43.4154" lon="6.07075">
        <ele>217.06494</ele>
        <time>2015-01-14T12:45:16Z</time>
      </trkpt>
      <trkpt lat="43.41537" lon="6.07075">
        <ele>216.98997</ele>
        <time>2015-01-14T12:45:17Z</time>
      </trkpt>
      <trkpt lat="43.41529" lon="6.07078">
        <ele>216.76796</ele>
        <time>2015-01-14T12:45:19Z</time>
      </trkpt>
      <trkpt lat="43.41525" lon="6.0708">
        <ele>216.65009</ele>
        <time>2015-01-14T12:45:20Z</time>
      </trkpt>
      <trkpt lat="43.41521" lon="6.07081">
        <ele>216.53851</ele>
        <time>2015-01-14T12:45:21Z</time>
      </trkpt>
      <trkpt lat="43.41517" lon="6.07082">
        <ele>216.42921</ele>
        <time>2015-01-14T12:45:22Z</time>
      </trkpt>
      <trkpt lat="43.41505" lon="6.07083">
        <ele>216.12137</ele>
        <time>2015-01-14T12:45:25Z</time>
      </trkpt>
      <trkpt lat="43.41484" lon="6.07077">
        <ele>215.72003</ele>
        <time>2015-01-14T12:45:31Z</time>
      </trkpt>
      <trkpt lat="43.41475" lon="6.07077">
        <ele>215.49432</ele>
        <time>2015-01-14T12:45:35Z</time>
      </trkpt>
      <trkpt lat="43.41473" lon="6.07076">
        <ele>215.46146</ele>
        <time>2015-01-14T12:45:36Z</time>
      </trkpt>
      <trkpt lat="43.4147" lon="6.07075">
        <ele>215.42238</ele>
        <time>2015-01-14T12:45:38Z</time>
      </trkpt>
      <trkpt lat="43.41469" lon="6.07074">
        <ele>215.40974</ele>
        <time>2015-01-14T12:45:41Z</time>
      </trkpt>
      <trkpt lat="43.41469" lon="6.07074">
        <ele>215.40344</ele>
        <time>2015-01-14T12:45:45Z</time>
      </trkpt>
      <trkpt lat="43.41468" lon="6.07074">
        <ele>215.38377</ele>
        <time>2015-01-14T12:45:52Z</time>
      </trkpt>
      <trkpt lat="43.41468" lon="6.07074">
        <ele>215.38535</ele>
        <time>2015-01-14T12:45:56Z</time>
      </trkpt>
      <trkpt lat="43.41465" lon="6.07071">
        <ele>215.38148</ele>
        <time>2015-01-14T12:46:00Z</time>
      </trkpt>
      <trkpt lat="43.41468" lon="6.07063">
        <ele>215.56891</ele>
        <time>2015-01-14T12:46:03Z</time>
      </trkpt>
      <trkpt lat="43.41478" lon="6.07045">
        <ele>216.04657</ele>
        <time>2015-01-14T12:46:08Z</time>
      </trkpt>
      <trkpt lat="43.4148" lon="6.07041">
        <ele>216.1416</ele>
        <time>2015-01-14T12:46:09Z</time>
      </trkpt>
      <trkpt lat="43.41488" lon="6.07024">
        <ele>216.52342</ele>
        <time>2015-01-14T12:46:13Z</time>
      </trkpt>
      <trkpt lat="43.41494" lon="6.07005">
        <ele>216.87112</ele>
        <time>2015-01-14T12:46:17Z</time>
      </trkpt>
      <trkpt lat="43.41496" lon="6.07">
        <ele>216.9494</ele>
        <time>2015-01-14T12:46:18Z</time>
      </trkpt>
      <trkpt lat="43.41496" lon="6.06983">
        <ele>217.1554</ele>
        <time>2015-01-14T12:46:21Z</time>
      </trkpt>
      <trkpt lat="43.41494" lon="6.06977">
        <ele>217.20688</ele>
        <time>2015-01-14T12:46:22Z</time>
      </trkpt>
      <trkpt lat="43.41488" lon="6.06963">
        <ele>217.29959</ele>
        <time>2015-01-14T12:46:25Z</time>
      </trkpt>
      <trkpt lat="43.41483" lon="6.06954">
        <ele>217.34822</ele>
        <time>2015-01-14T12:46:27Z</time>
      </trkpt>
      <trkpt lat="43.41476" lon="6.06939">
        <ele>217.43921</ele>
        <time>2015-01-14T12:46:30Z</time>
      </trkpt>
      <trkpt lat="43.41471" lon="6.06931">
        <ele>217.47296</ele>
        <time>2015-01-14T12:46:32Z</time>
      </trkpt>
      <trkpt lat="43.41473" lon="6.0692">
        <ele>217.63432</ele>
        <time>2015-01-14T12:46:35Z</time>
      </trkpt>
      <trkpt lat="43.41475" lon="6.06916">
        <ele>217.69963</ele>
        <time>2015-01-14T12:46:36Z</time>
      </trkpt>
      <trkpt lat="43.41479" lon="6.06901">
        <ele>217.98538</ele>
        <time>2015-01-14T12:46:41Z</time>
      </trkpt>
      <trkpt lat="43.41478" lon="6.06893">
        <ele>218.09808</ele>
        <time>2015-01-14T12:46:46Z</time>
      </trkpt>
      <trkpt lat="43.41479" lon="6.06875">
        <ele>218.37123</ele>
        <time>2015-01-14T12:46:51Z</time>
      </trkpt>
      <trkpt lat="43.41476" lon="6.06853">
        <ele>218.69754</ele>
        <time>2015-01-14T12:46:56Z</time>
      </trkpt>
      <trkpt lat="43.41478" lon="6.06842">
        <ele>218.86885</ele>
        <time>2015-01-14T12:47:00Z</time>
      </trkpt>
      <trkpt lat="43.41485" lon="6.0682">
        <ele>219.02928</ele>
        <time>2015-01-14T12:47:06Z</time>
      </trkpt>
      <trkpt lat="43.41496" lon="6.06783">
        <ele>219.03</ele>
        <time>2015-01-14T12:47:14Z</time>
      </trkpt>
      <trkpt lat="43.41499" lon="6.06763">
        <ele>219.01453</ele>
        <time>2015-01-14T12:47:18Z</time>
      </trkpt>
      <trkpt lat="43.41499" lon="6.06748">
        <ele>219.00806</ele>
        <time>2015-01-14T12:47:21Z</time>
      </trkpt>
      <trkpt lat="43.41501" lon="6.06722">
        <ele>219.01025</ele>
        <time>2015-01-14T12:47:27Z</time>
      </trkpt>
      <trkpt lat="43.41502" lon="6.06713">
        <ele>219.01941</ele>
        <time>2015-01-14T12:47:29Z</time>
      </trkpt>
      <trkpt lat="43.41504" lon="6.06676">
        <ele>219.0423</ele>
        <time>2015-01-14T12:47:37Z</time>
      </trkpt>
      <trkpt lat="43.41507" lon="6.06654">
        <ele>219.10103</ele>
        <time>2015-01-14T12:47:42Z</time>
      </trkpt>
      <trkpt lat="43.41508" lon="6.0665">
        <ele>219.11665</ele>
        <time>2015-01-14T12:47:43Z</time>
      </trkpt>
      <trkpt lat="43.41515" lon="6.06611">
        <ele>219.29938</ele>
        <time>2015-01-14T12:47:52Z</time>
      </trkpt>
      <trkpt lat="43.41521" lon="6.06569">
        <ele>219.63335</ele>
        <time>2015-01-14T12:48:00Z</time>
      </trkpt>
      <trkpt lat="43.41525" lon="6.06543">
        <ele>219.93701</ele>
        <time>2015-01-14T12:48:05Z</time>
      </trkpt>
      <trkpt lat="43.41527" lon="6.06533">
        <ele>220.054</ele>
        <time>2015-01-14T12:48:07Z</time>
      </trkpt>
      <trkpt lat="43.41539" lon="6.06498">
        <ele>220.48164</ele>
        <time>2015-01-14T12:48:15Z</time>
      </trkpt>
      <trkpt lat="43.41552" lon="6.06471">
        <ele>220.84023</ele>
        <time>2015-01-14T12:48:23Z</time>
      </trkpt>
      <trkpt lat="43.41549" lon="6.06454">
        <ele>220.90305</ele>
        <time>2015-01-14T12:48:27Z</time>
      </trkpt>
      <trkpt lat="43.41549" lon="6.06441">
        <ele>220.99536</ele>
        <time>2015-01-14T12:48:30Z</time>
      </trkpt>
      <trkpt lat="43.4155" lon="6.06429">
        <ele>221.12038</ele>
        <time>2015-01-14T12:48:33Z</time>
      </trkpt>
      <trkpt lat="43.41553" lon="6.06419">
        <ele>221.2581</ele>
        <time>2015-01-14T12:48:36Z</time>
      </trkpt>
      <trkpt lat="43.41556" lon="6.06403">
        <ele>221.56294</ele>
        <time>2015-01-14T12:48:41Z</time>
      </trkpt>
      <trkpt lat="43.41557" lon="6.06397">
        <ele>221.68279</ele>
        <time>2015-01-14T12:48:43Z</time>
      </trkpt>
      <trkpt lat="43.41561" lon="6.0638">
        <ele>222.01726</ele>
        <time>2015-01-14T12:48:49Z</time>
      </trkpt>
      <trkpt lat="43.41563" lon="6.0637">
        <ele>222.20091</ele>
        <time>2015-01-14T12:48:53Z</time>
      </trkpt>
      <trkpt lat="43.41568" lon="6.06353">
        <ele>222.54825</ele>
        <time>2015-01-14T12:49:00Z</time>
      </trkpt>
      <trkpt lat="43.41572" lon="6.06345">
        <ele>222.7032</ele>
        <time>2015-01-14T12:49:03Z</time>
      </trkpt>
      <trkpt lat="43.41581" lon="6.06331">
        <ele>223.04532</ele>
        <time>2015-01-14T12:49:09Z</time>
      </trkpt>
      <trkpt lat="43.41591" lon="6.0631">
        <ele>224.45004</ele>
        <time>2015-01-14T12:49:17Z</time>
      </trkpt>
      <trkpt lat="43.41592" lon="6.06307">
        <ele>224.58369</ele>
        <time>2015-01-14T12:49:18Z</time>
      </trkpt>
      <trkpt lat="43.4159" lon="6.06282">
        <ele>225.27997</ele>
        <time>2015-01-14T12:49:25Z</time>
      </trkpt>
      <trkpt lat="43.41589" lon="6.06276">
        <ele>225.46431</ele>
        <time>2015-01-14T12:49:27Z</time>
      </trkpt>
      <trkpt lat="43.41593" lon="6.06269">
        <ele>225.95918</ele>
        <time>2015-01-14T12:49:30Z</time>
      </trkpt>
      <trkpt lat="43.41606" lon="6.06258">
        <ele>227.0976</ele>
        <time>2015-01-14T12:49:36Z</time>
      </trkpt>
      <trkpt lat="43.41607" lon="6.06255">
        <ele>227.27629</ele>
        <time>2015-01-14T12:49:37Z</time>
      </trkpt>
      <trkpt lat="43.41607" lon="6.06248">
        <ele>227.45538</ele>
        <time>2015-01-14T12:49:39Z</time>
      </trkpt>
      <trkpt lat="43.41608" lon="6.06244">
        <ele>227.60072</ele>
        <time>2015-01-14T12:49:41Z</time>
      </trkpt>
      <trkpt lat="43.4161" lon="6.06235">
        <ele>227.99211</ele>
        <time>2015-01-14T12:49:44Z</time>
      </trkpt>
      <trkpt lat="43.41612" lon="6.06215">
        <ele>228.54715</ele>
        <time>2015-01-14T12:49:50Z</time>
      </trkpt>
      <trkpt lat="43.41608" lon="6.06205">
        <ele>228.52884</ele>
        <time>2015-01-14T12:49:53Z</time>
      </trkpt>
      <trkpt lat="43.41606" lon="6.06202">
        <ele>228.51511</ele>
        <time>2015-01-14T12:49:54Z</time>
      </trkpt>
      <trkpt lat="43.41606" lon="6.06194">
        <ele>228.68333</ele>
        <time>2015-01-14T12:49:57Z</time>
      </trkpt>
      <trkpt lat="43.41605" lon="6.06194">
        <ele>228.64099</ele>
        <time>2015-01-14T12:50:02Z</time>
      </trkpt>
      <trkpt lat="43.41605" lon="6.06194">
        <ele>228.66388</ele>
        <time>2015-01-14T12:50:05Z</time>
      </trkpt>
      <trkpt lat="43.41605" lon="6.06194">
        <ele>228.66388</ele>
        <time>2015-01-14T12:50:10Z</time>
      </trkpt>
      <trkpt lat="43.41605" lon="6.06189">
        <ele>228.74513</ele>
        <time>2015-01-14T12:50:19Z</time>
      </trkpt>
      <trkpt lat="43.41608" lon="6.06169">
        <ele>229.41919</ele>
        <time>2015-01-14T12:50:24Z</time>
      </trkpt>
      <trkpt lat="43.41611" lon="6.06165">
        <ele>229.68098</ele>
        <time>2015-01-14T12:50:25Z</time>
      </trkpt>
      <trkpt lat="43.41621" lon="6.06152">
        <ele>230.38103</ele>
        <time>2015-01-14T12:50:28Z</time>
      </trkpt>
      <trkpt lat="43.41631" lon="6.06139">
        <ele>230.97766</ele>
        <time>2015-01-14T12:50:31Z</time>
      </trkpt>
      <trkpt lat="43.41633" lon="6.06129">
        <ele>231.1553</ele>
        <time>2015-01-14T12:50:33Z</time>
      </trkpt>
      <trkpt lat="43.41626" lon="6.0611">
        <ele>230.87169</ele>
        <time>2015-01-14T12:50:36Z</time>
      </trkpt>
      <trkpt lat="43.41622" lon="6.06096">
        <ele>230.76247</ele>
        <time>2015-01-14T12:50:38Z</time>
      </trkpt>
      <trkpt lat="43.4162" lon="6.06076">
        <ele>230.79173</ele>
        <time>2015-01-14T12:50:41Z</time>
      </trkpt>
      <trkpt lat="43.41621" lon="6.06063">
        <ele>230.89804</ele>
        <time>2015-01-14T12:50:43Z</time>
      </trkpt>
      <trkpt lat="43.41623" lon="6.06039">
        <ele>231.17609</ele>
        <time>2015-01-14T12:50:47Z</time>
      </trkpt>
      <trkpt lat="43.41629" lon="6.06006">
        <ele>231.68275</ele>
        <time>2015-01-14T12:50:53Z</time>
      </trkpt>
      <trkpt lat="43.4163" lon="6.05995">
        <ele>231.81036</ele>
        <time>2015-01-14T12:50:55Z</time>
      </trkpt>
      <trkpt lat="43.41632" lon="6.05986">
        <ele>231.9248</ele>
        <time>2015-01-14T12:50:57Z</time>
      </trkpt>
      <trkpt lat="43.41635" lon="6.05966">
        <ele>232.08502</ele>
        <time>2015-01-14T12:51:01Z</time>
      </trkpt>
      <trkpt lat="43.4164" lon="6.05932">
        <ele>232.40546</ele>
        <time>2015-01-14T12:51:08Z</time>
      </trkpt>
      <trkpt lat="43.41643" lon="6.05907">
        <ele>232.58856</ele>
        <time>2015-01-14T12:51:13Z</time>
      </trkpt>
      <trkpt lat="43.41645" lon="6.05892">
        <ele>232.68011</ele>
        <time>2015-01-14T12:51:16Z</time>
      </trkpt>
      <trkpt lat="43.41648" lon="6.05855">
        <ele>232.86322</ele>
        <time>2015-01-14T12:51:23Z</time>
      </trkpt>
      <trkpt lat="43.4165" lon="6.05802">
        <ele>233.09685</ele>
        <time>2015-01-14T12:51:33Z</time>
      </trkpt>
      <trkpt lat="43.4165" lon="6.05797">
        <ele>233.10915</ele>
        <time>2015-01-14T12:51:34Z</time>
      </trkpt>
      <trkpt lat="43.4165" lon="6.05735">
        <ele>233.21875</ele>
        <time>2015-01-14T12:51:45Z</time>
      </trkpt>
      <trkpt lat="43.41647" lon="6.05684">
        <ele>233.03564</ele>
        <time>2015-01-14T12:51:54Z</time>
      </trkpt>
      <trkpt lat="43.41644" lon="6.05654">
        <ele>233.05774</ele>
        <time>2015-01-14T12:51:59Z</time>
      </trkpt>
      <trkpt lat="43.41642" lon="6.05635">
        <ele>233.18019</ele>
        <time>2015-01-14T12:52:02Z</time>
      </trkpt>
      <trkpt lat="43.4164" lon="6.05617">
        <ele>233.30722</ele>
        <time>2015-01-14T12:52:05Z</time>
      </trkpt>
      <trkpt lat="43.41637" lon="6.056">
        <ele>233.37531</ele>
        <time>2015-01-14T12:52:08Z</time>
      </trkpt>
      <trkpt lat="43.41635" lon="6.0559">
        <ele>233.40564</ele>
        <time>2015-01-14T12:52:10Z</time>
      </trkpt>
      <trkpt lat="43.4163" lon="6.05559">
        <ele>233.37508</ele>
        <time>2015-01-14T12:52:16Z</time>
      </trkpt>
      <trkpt lat="43.41628" lon="6.05549">
        <ele>233.32776</ele>
        <time>2015-01-14T12:52:18Z</time>
      </trkpt>
      <trkpt lat="43.4162" lon="6.05521">
        <ele>233.1761</ele>
        <time>2015-01-14T12:52:24Z</time>
      </trkpt>
      <trkpt lat="43.41602" lon="6.05456">
        <ele>233.18575</ele>
        <time>2015-01-14T12:52:37Z</time>
      </trkpt>
      <trkpt lat="43.4159" lon="6.05417">
        <ele>233.23096</ele>
        <time>2015-01-14T12:52:45Z</time>
      </trkpt>
      <trkpt lat="43.41588" lon="6.05412">
        <ele>233.23096</ele>
        <time>2015-01-14T12:52:46Z</time>
      </trkpt>
      <trkpt lat="43.41576" lon="6.05377">
        <ele>233.21207</ele>
        <time>2015-01-14T12:52:53Z</time>
      </trkpt>
      <trkpt lat="43.41561" lon="6.0534">
        <ele>233.10507</ele>
        <time>2015-01-14T12:53:00Z</time>
      </trkpt>
      <trkpt lat="43.41555" lon="6.05323">
        <ele>233.11823</ele>
        <time>2015-01-14T12:53:03Z</time>
      </trkpt>
      <trkpt lat="43.41548" lon="6.05293">
        <ele>233.20634</ele>
        <time>2015-01-14T12:53:08Z</time>
      </trkpt>
      <trkpt lat="43.4154" lon="6.05269">
        <ele>233.2092</ele>
        <time>2015-01-14T12:53:12Z</time>
      </trkpt>
      <trkpt lat="43.41531" lon="6.05249">
        <ele>233.14226</ele>
        <time>2015-01-14T12:53:15Z</time>
      </trkpt>
      <trkpt lat="43.41502" lon="6.05184">
        <ele>232.85901</ele>
        <time>2015-01-14T12:53:24Z</time>
      </trkpt>
      <trkpt lat="43.41479" lon="6.05138">
        <ele>232.61261</ele>
        <time>2015-01-14T12:53:30Z</time>
      </trkpt>
      <trkpt lat="43.41476" lon="6.05131">
        <ele>232.59256</ele>
        <time>2015-01-14T12:53:31Z</time>
      </trkpt>
      <trkpt lat="43.41456" lon="6.05088">
        <ele>232.28831</ele>
        <time>2015-01-14T12:53:37Z</time>
      </trkpt>
      <trkpt lat="43.4145" lon="6.05075">
        <ele>232.16559</ele>
        <time>2015-01-14T12:53:39Z</time>
      </trkpt>
      <trkpt lat="43.41441" lon="6.05055">
        <ele>232.0125</ele>
        <time>2015-01-14T12:53:42Z</time>
      </trkpt>
      <trkpt lat="43.41434" lon="6.05041">
        <ele>231.95398</ele>
        <time>2015-01-14T12:53:44Z</time>
      </trkpt>
      <trkpt lat="43.41409" lon="6.04985">
        <ele>231.73755</ele>
        <time>2015-01-14T12:53:53Z</time>
      </trkpt>
      <trkpt lat="43.41401" lon="6.04968">
        <ele>231.44344</ele>
        <time>2015-01-14T12:53:56Z</time>
      </trkpt>
      <trkpt lat="43.41376" lon="6.04926">
        <ele>230.4375</ele>
        <time>2015-01-14T12:54:04Z</time>
      </trkpt>
      <trkpt lat="43.41349" lon="6.04875">
        <ele>229.42068</ele>
        <time>2015-01-14T12:54:13Z</time>
      </trkpt>
      <trkpt lat="43.41328" lon="6.04836">
        <ele>228.77277</ele>
        <time>2015-01-14T12:54:20Z</time>
      </trkpt>
      <trkpt lat="43.41325" lon="6.04831">
        <ele>228.72755</ele>
        <time>2015-01-14T12:54:21Z</time>
      </trkpt>
      <trkpt lat="43.41298" lon="6.04788">
        <ele>228.25034</ele>
        <time>2015-01-14T12:54:28Z</time>
      </trkpt>
      <trkpt lat="43.41284" lon="6.04768">
        <ele>228.01802</ele>
        <time>2015-01-14T12:54:31Z</time>
      </trkpt>
      <trkpt lat="43.4126" lon="6.04734">
        <ele>227.5681</ele>
        <time>2015-01-14T12:54:36Z</time>
      </trkpt>
      <trkpt lat="43.4124" lon="6.04705">
        <ele>227.16544</ele>
        <time>2015-01-14T12:54:40Z</time>
      </trkpt>
      <trkpt lat="43.4122" lon="6.04674">
        <ele>226.81982</ele>
        <time>2015-01-14T12:54:44Z</time>
      </trkpt>
      <trkpt lat="43.41215" lon="6.04667">
        <ele>226.74142</ele>
        <time>2015-01-14T12:54:45Z</time>
      </trkpt>
      <trkpt lat="43.41187" lon="6.04626">
        <ele>226.21786</ele>
        <time>2015-01-14T12:54:51Z</time>
      </trkpt>
      <trkpt lat="43.41164" lon="6.04595">
        <ele>225.74522</ele>
        <time>2015-01-14T12:54:56Z</time>
      </trkpt>
      <trkpt lat="43.41154" lon="6.04585">
        <ele>225.54381</ele>
        <time>2015-01-14T12:54:58Z</time>
      </trkpt>
      <trkpt lat="43.41119" lon="6.0454">
        <ele>224.81882</ele>
        <time>2015-01-14T12:55:06Z</time>
      </trkpt>
      <trkpt lat="43.41107" lon="6.04524">
        <ele>224.57507</ele>
        <time>2015-01-14T12:55:09Z</time>
      </trkpt>
      <trkpt lat="43.41081" lon="6.0449">
        <ele>224.02518</ele>
        <time>2015-01-14T12:55:16Z</time>
      </trkpt>
      <trkpt lat="43.41077" lon="6.04485">
        <ele>223.93935</ele>
        <time>2015-01-14T12:55:17Z</time>
      </trkpt>
      <trkpt lat="43.41048" lon="6.04445">
        <ele>223.38831</ele>
        <time>2015-01-14T12:55:25Z</time>
      </trkpt>
      <trkpt lat="43.41026" lon="6.04401">
        <ele>223.1377</ele>
        <time>2015-01-14T12:55:33Z</time>
      </trkpt>
      <trkpt lat="43.41012" lon="6.04347">
        <ele>223.27844</ele>
        <time>2015-01-14T12:55:42Z</time>
      </trkpt>
      <trkpt lat="43.41005" lon="6.04317">
        <ele>223.36429</ele>
        <time>2015-01-14T12:55:47Z</time>
      </trkpt>
      <trkpt lat="43.40998" lon="6.04296">
        <ele>223.39003</ele>
        <time>2015-01-14T12:55:51Z</time>
      </trkpt>
      <trkpt lat="43.40987" lon="6.04285">
        <ele>223.13139</ele>
        <time>2015-01-14T12:55:55Z</time>
      </trkpt>
      <trkpt lat="43.40984" lon="6.04284">
        <ele>223.02438</ele>
        <time>2015-01-14T12:55:58Z</time>
      </trkpt>
      <trkpt lat="43.40985" lon="6.04284">
        <ele>223.03812</ele>
        <time>2015-01-14T12:55:59Z</time>
      </trkpt>
      <trkpt lat="43.40985" lon="6.04285">
        <ele>223.02896</ele>
        <time>2015-01-14T12:56:04Z</time>
      </trkpt>
      <trkpt lat="43.40985" lon="6.04285">
        <ele>223.0284</ele>
        <time>2015-01-14T12:56:16Z</time>
      </trkpt>
      <trkpt lat="43.40985" lon="6.04285">
        <ele>223.02783</ele>
        <time>2015-01-14T12:56:32Z</time>
      </trkpt>
      <trkpt lat="43.40985" lon="6.04285">
        <ele>223.02783</ele>
        <time>2015-01-14T12:56:35Z</time>
      </trkpt>
      <trkpt lat="43.40984" lon="6.04284">
        <ele>223.02325</ele>
        <time>2015-01-14T12:56:50Z</time>
      </trkpt>
      <trkpt lat="43.40982" lon="6.04281">
        <ele>222.99808</ele>
        <time>2015-01-14T12:56:53Z</time>
      </trkpt>
      <trkpt lat="43.40981" lon="6.04275">
        <ele>223.01466</ele>
        <time>2015-01-14T12:56:55Z</time>
      </trkpt>
      <trkpt lat="43.40981" lon="6.04253">
        <ele>223.27274</ele>
        <time>2015-01-14T12:57:00Z</time>
      </trkpt>
      <trkpt lat="43.40981" lon="6.04218">
        <ele>223.79875</ele>
        <time>2015-01-14T12:57:06Z</time>
      </trkpt>
      <trkpt lat="43.40982" lon="6.04198">
        <ele>224.09552</ele>
        <time>2015-01-14T12:57:09Z</time>
      </trkpt>
      <trkpt lat="43.40982" lon="6.04172">
        <ele>224.48712</ele>
        <time>2015-01-14T12:57:13Z</time>
      </trkpt>
      <trkpt lat="43.40981" lon="6.04145">
        <ele>225.00957</ele>
        <time>2015-01-14T12:57:17Z</time>
      </trkpt>
      <trkpt lat="43.40981" lon="6.04119">
        <ele>225.55615</ele>
        <time>2015-01-14T12:57:21Z</time>
      </trkpt>
      <trkpt lat="43.40981" lon="6.04082">
        <ele>226.31149</ele>
        <time>2015-01-14T12:57:27Z</time>
      </trkpt>
      <trkpt lat="43.40981" lon="6.04057">
        <ele>226.61247</ele>
        <time>2015-01-14T12:57:31Z</time>
      </trkpt>
      <trkpt lat="43.40981" lon="6.04036">
        <ele>226.88599</ele>
        <time>2015-01-14T12:57:34Z</time>
      </trkpt>
      <trkpt lat="43.40981" lon="6.04027">
        <ele>226.9884</ele>
        <time>2015-01-14T12:57:35Z</time>
      </trkpt>
      <trkpt lat="43.40981" lon="6.04019">
        <ele>227.0708</ele>
        <time>2015-01-14T12:57:36Z</time>
      </trkpt>
      <trkpt lat="43.40981" lon="6.03995">
        <ele>227.37184</ele>
        <time>2015-01-14T12:57:39Z</time>
      </trkpt>
      <trkpt lat="43.40981" lon="6.03978">
        <ele>227.63216</ele>
        <time>2015-01-14T12:57:41Z</time>
      </trkpt>
      <trkpt lat="43.40982" lon="6.03962">
        <ele>227.9104</ele>
        <time>2015-01-14T12:57:43Z</time>
      </trkpt>
      <trkpt lat="43.40983" lon="6.0394">
        <ele>228.26227</ele>
        <time>2015-01-14T12:57:46Z</time>
      </trkpt>
      <trkpt lat="43.40985" lon="6.03917">
        <ele>228.63034</ele>
        <time>2015-01-14T12:57:49Z</time>
      </trkpt>
      <trkpt lat="43.40986" lon="6.03872">
        <ele>229.20016</ele>
        <time>2015-01-14T12:57:56Z</time>
      </trkpt>
      <trkpt lat="43.40984" lon="6.03849">
        <ele>229.42447</ele>
        <time>2015-01-14T12:58:00Z</time>
      </trkpt>
      <trkpt lat="43.40982" lon="6.03833">
        <ele>229.56009</ele>
        <time>2015-01-14T12:58:03Z</time>
      </trkpt>
      <trkpt lat="43.40978" lon="6.038">
        <ele>229.87994</ele>
        <time>2015-01-14T12:58:09Z</time>
      </trkpt>
      <trkpt lat="43.40977" lon="6.03777">
        <ele>230.13342</ele>
        <time>2015-01-14T12:58:13Z</time>
      </trkpt>
      <trkpt lat="43.40977" lon="6.03746">
        <ele>230.5025</ele>
        <time>2015-01-14T12:58:19Z</time>
      </trkpt>
      <trkpt lat="43.40977" lon="6.03736">
        <ele>230.60779</ele>
        <time>2015-01-14T12:58:21Z</time>
      </trkpt>
      <trkpt lat="43.40976" lon="6.03688">
        <ele>231.17026</ele>
        <time>2015-01-14T12:58:30Z</time>
      </trkpt>
      <trkpt lat="43.40976" lon="6.03671">
        <ele>231.38141</ele>
        <time>2015-01-14T12:58:33Z</time>
      </trkpt>
      <trkpt lat="43.40976" lon="6.03644">
        <ele>231.77425</ele>
        <time>2015-01-14T12:58:38Z</time>
      </trkpt>
      <trkpt lat="43.40977" lon="6.0359">
        <ele>232.62097</ele>
        <time>2015-01-14T12:58:47Z</time>
      </trkpt>
      <trkpt lat="43.40977" lon="6.03536">
        <ele>233.29047</ele>
        <time>2015-01-14T12:58:57Z</time>
      </trkpt>
      <trkpt lat="43.40976" lon="6.03471">
        <ele>233.96155</ele>
        <time>2015-01-14T12:59:09Z</time>
      </trkpt>
      <trkpt lat="43.40977" lon="6.03414">
        <ele>234.4776</ele>
        <time>2015-01-14T12:59:20Z</time>
      </trkpt>
      <trkpt lat="43.40984" lon="6.03398">
        <ele>234.85184</ele>
        <time>2015-01-14T12:59:25Z</time>
      </trkpt>
      <trkpt lat="43.40994" lon="6.03386">
        <ele>235.22662</ele>
        <time>2015-01-14T12:59:30Z</time>
      </trkpt>
      <trkpt lat="43.40997" lon="6.03383">
        <ele>235.34506</ele>
        <time>2015-01-14T12:59:32Z</time>
      </trkpt>
      <trkpt lat="43.41002" lon="6.03377">
        <ele>235.50873</ele>
        <time>2015-01-14T12:59:35Z</time>
      </trkpt>
      <trkpt lat="43.41008" lon="6.03369">
        <ele>235.76221</ele>
        <time>2015-01-14T12:59:39Z</time>
      </trkpt>
      <trkpt lat="43.41021" lon="6.03352">
        <ele>236.2789</ele>
        <time>2015-01-14T12:59:47Z</time>
      </trkpt>
      <trkpt lat="43.41022" lon="6.03349">
        <ele>236.34872</ele>
        <time>2015-01-14T12:59:49Z</time>
      </trkpt>
      <trkpt lat="43.41024" lon="6.03348">
        <ele>236.39563</ele>
        <time>2015-01-14T12:59:53Z</time>
      </trkpt>
      <trkpt lat="43.41024" lon="6.03348">
        <ele>236.40308</ele>
        <time>2015-01-14T13:00:00Z</time>
      </trkpt>
      <trkpt lat="43.41024" lon="6.03348">
        <ele>236.40137</ele>
        <time>2015-01-14T13:00:03Z</time>
      </trkpt>
      <trkpt lat="43.41024" lon="6.0335">
        <ele>236.37274</ele>
        <time>2015-01-14T13:00:18Z</time>
      </trkpt>
      <trkpt lat="43.41023" lon="6.0335">
        <ele>236.34415</ele>
        <time>2015-01-14T13:00:22Z</time>
      </trkpt>
      <trkpt lat="43.41021" lon="6.03352">
        <ele>236.26633</ele>
        <time>2015-01-14T13:00:24Z</time>
      </trkpt>
      <trkpt lat="43.41015" lon="6.03359">
        <ele>236.05347</ele>
        <time>2015-01-14T13:00:27Z</time>
      </trkpt>
      <trkpt lat="43.40998" lon="6.0338">
        <ele>235.40228</ele>
        <time>2015-01-14T13:00:33Z</time>
      </trkpt>
      <trkpt lat="43.40985" lon="6.03394">
        <ele>234.91878</ele>
        <time>2015-01-14T13:00:37Z</time>
      </trkpt>
      <trkpt lat="43.40979" lon="6.03396">
        <ele>234.75113</ele>
        <time>2015-01-14T13:00:39Z</time>
      </trkpt>
      <trkpt lat="43.40976" lon="6.03387">
        <ele>234.76543</ele>
        <time>2015-01-14T13:00:42Z</time>
      </trkpt>
      <trkpt lat="43.40975" lon="6.03383">
        <ele>234.81406</ele>
        <time>2015-01-14T13:00:43Z</time>
      </trkpt>
      <trkpt lat="43.40975" lon="6.03368">
        <ele>234.98515</ele>
        <time>2015-01-14T13:00:46Z</time>
      </trkpt>
      <trkpt lat="43.40974" lon="6.03352">
        <ele>235.16139</ele>
        <time>2015-01-14T13:00:49Z</time>
      </trkpt>
      <trkpt lat="43.40974" lon="6.03336">
        <ele>235.33076</ele>
        <time>2015-01-14T13:00:52Z</time>
      </trkpt>
      <trkpt lat="43.40971" lon="6.03285">
        <ele>235.87952</ele>
        <time>2015-01-14T13:01:01Z</time>
      </trkpt>
      <trkpt lat="43.40966" lon="6.03236">
        <ele>236.18481</ele>
        <time>2015-01-14T13:01:10Z</time>
      </trkpt>
      <trkpt lat="43.4096" lon="6.03183">
        <ele>236.03833</ele>
        <time>2015-01-14T13:01:19Z</time>
      </trkpt>
      <trkpt lat="43.40951" lon="6.0313">
        <ele>235.82776</ele>
        <time>2015-01-14T13:01:28Z</time>
      </trkpt>
      <trkpt lat="43.4094" lon="6.03075">
        <ele>235.57141</ele>
        <time>2015-01-14T13:01:37Z</time>
      </trkpt>
      <trkpt lat="43.40937" lon="6.03057">
        <ele>235.47986</ele>
        <time>2015-01-14T13:01:40Z</time>
      </trkpt>
      <trkpt lat="43.40928" lon="6.03021">
        <ele>235.27844</ele>
        <time>2015-01-14T13:01:46Z</time>
      </trkpt>
      <trkpt lat="43.40916" lon="6.02977">
        <ele>234.97632</ele>
        <time>2015-01-14T13:01:54Z</time>
      </trkpt>
      <trkpt lat="43.40899" lon="6.02924">
        <ele>234.58264</ele>
        <time>2015-01-14T13:02:04Z</time>
      </trkpt>
      <trkpt lat="43.40879" lon="6.02866">
        <ele>234.69991</ele>
        <time>2015-01-14T13:02:15Z</time>
      </trkpt>
      <trkpt lat="43.40844" lon="6.02767">
        <ele>234.24597</ele>
        <time>2015-01-14T13:02:35Z</time>
      </trkpt>
      <trkpt lat="43.40837" lon="6.02748">
        <ele>234.11133</ele>
        <time>2015-01-14T13:02:39Z</time>
      </trkpt>
      <trkpt lat="43.40829" lon="6.02728">
        <ele>234.17598</ele>
        <time>2015-01-14T13:02:43Z</time>
      </trkpt>
      <trkpt lat="43.40824" lon="6.02712">
        <ele>234.22061</ele>
        <time>2015-01-14T13:02:46Z</time>
      </trkpt>
      <trkpt lat="43.40814" lon="6.02684">
        <ele>234.3259</ele>
        <time>2015-01-14T13:02:52Z</time>
      </trkpt>
      <trkpt lat="43.40799" lon="6.02642">
        <ele>234.46036</ele>
        <time>2015-01-14T13:03:01Z</time>
      </trkpt>
      <trkpt lat="43.40782" lon="6.02599">
        <ele>234.58054</ele>
        <time>2015-01-14T13:03:09Z</time>
      </trkpt>
      <trkpt lat="43.40759" lon="6.02537">
        <ele>234.2135</ele>
        <time>2015-01-14T13:03:20Z</time>
      </trkpt>
      <trkpt lat="43.40734" lon="6.02471">
        <ele>233.97821</ele>
        <time>2015-01-14T13:03:32Z</time>
      </trkpt>
      <trkpt lat="43.40733" lon="6.02466">
        <ele>233.99252</ele>
        <time>2015-01-14T13:03:33Z</time>
      </trkpt>
      <trkpt lat="43.40714" lon="6.02411">
        <ele>234.16273</ele>
        <time>2015-01-14T13:03:43Z</time>
      </trkpt>
      <trkpt lat="43.40701" lon="6.02371">
        <ele>234.1485</ele>
        <time>2015-01-14T13:03:50Z</time>
      </trkpt>
      <trkpt lat="43.40679" lon="6.02294">
        <ele>233.67879</ele>
        <time>2015-01-14T13:04:03Z</time>
      </trkpt>
      <trkpt lat="43.4067" lon="6.0226">
        <ele>233.15694</ele>
        <time>2015-01-14T13:04:08Z</time>
      </trkpt>
      <trkpt lat="43.40663" lon="6.02233">
        <ele>232.91553</ele>
        <time>2015-01-14T13:04:12Z</time>
      </trkpt>
      <trkpt lat="43.40654" lon="6.02176">
        <ele>232.6958</ele>
        <time>2015-01-14T13:04:20Z</time>
      </trkpt>
      <trkpt lat="43.40652" lon="6.02144">
        <ele>232.42754</ele>
        <time>2015-01-14T13:04:25Z</time>
      </trkpt>
      <trkpt lat="43.40651" lon="6.02138">
        <ele>232.34436</ele>
        <time>2015-01-14T13:04:26Z</time>
      </trkpt>
      <trkpt lat="43.40643" lon="6.02112">
        <ele>231.96326</ele>
        <time>2015-01-14T13:04:32Z</time>
      </trkpt>
      <trkpt lat="43.40643" lon="6.0211">
        <ele>231.95337</ele>
        <time>2015-01-14T13:04:36Z</time>
      </trkpt>
      <trkpt lat="43.40643" lon="6.0211">
        <ele>231.95296</ele>
        <time>2015-01-14T13:04:46Z</time>
      </trkpt>
      <trkpt lat="43.40644" lon="6.0211">
        <ele>231.95944</ele>
        <time>2015-01-14T13:04:48Z</time>
      </trkpt>
      <trkpt lat="43.40644" lon="6.02111">
        <ele>231.96925</ele>
        <time>2015-01-14T13:04:50Z</time>
      </trkpt>
      <trkpt lat="43.40645" lon="6.02111">
        <ele>231.9827</ele>
        <time>2015-01-14T13:04:53Z</time>
      </trkpt>
      <trkpt lat="43.40645" lon="6.02111">
        <ele>231.98058</ele>
        <time>2015-01-14T13:05:00Z</time>
      </trkpt>
      <trkpt lat="43.40644" lon="6.02111">
        <ele>231.97786</ele>
        <time>2015-01-14T13:05:26Z</time>
      </trkpt>
      <trkpt lat="43.40644" lon="6.02111">
        <ele>231.97786</ele>
        <time>2015-01-14T13:05:48Z</time>
      </trkpt>
      <trkpt lat="43.40645" lon="6.0211">
        <ele>231.97847</ele>
        <time>2015-01-14T13:07:14Z</time>
      </trkpt>
      <trkpt lat="43.40644" lon="6.0211">
        <ele>231.97156</ele>
        <time>2015-01-14T13:07:54Z</time>
      </trkpt>
      <trkpt lat="43.40645" lon="6.0211">
        <ele>231.97467</ele>
        <time>2015-01-14T13:08:46Z</time>
      </trkpt>
      <trkpt lat="43.40644" lon="6.0211">
        <ele>231.96736</ele>
        <time>2015-01-14T13:08:54Z</time>
      </trkpt>
      <trkpt lat="43.40644" lon="6.0211">
        <ele>231.9682</ele>
        <time>2015-01-14T13:09:01Z</time>
      </trkpt>
      <trkpt lat="43.40645" lon="6.0211">
        <ele>231.97383</ele>
        <time>2015-01-14T13:09:40Z</time>
      </trkpt>
      <trkpt lat="43.40645" lon="6.0211">
        <ele>231.97383</ele>
        <time>2015-01-14T13:09:42Z</time>
      </trkpt>
      <trkpt lat="43.40645" lon="6.0211">
        <ele>231.97383</ele>
        <time>2015-01-14T13:10:03Z</time>
      </trkpt>
      <trkpt lat="43.40645" lon="6.0211">
        <ele>231.97383</ele>
        <time>2015-01-14T13:10:16Z</time>
      </trkpt>
      <trkpt lat="43.40645" lon="6.02109">
        <ele>231.9696</ele>
        <time>2015-01-14T13:11:21Z</time>
      </trkpt>
      <trkpt lat="43.40645" lon="6.02109">
        <ele>231.96918</ele>
        <time>2015-01-14T13:11:25Z</time>
      </trkpt>
      <trkpt lat="43.40646" lon="6.02104">
        <ele>231.94086</ele>
        <time>2015-01-14T13:11:29Z</time>
      </trkpt>
      <trkpt lat="43.40655" lon="6.02089">
        <ele>231.91702</ele>
        <time>2015-01-14T13:11:34Z</time>
      </trkpt>
      <trkpt lat="43.40662" lon="6.02072">
        <ele>231.93945</ele>
        <time>2015-01-14T13:11:37Z</time>
      </trkpt>
      <trkpt lat="43.40668" lon="6.02061">
        <ele>232.02539</ele>
        <time>2015-01-14T13:11:39Z</time>
      </trkpt>
      <trkpt lat="43.40671" lon="6.02056">
        <ele>232.10779</ele>
        <time>2015-01-14T13:11:40Z</time>
      </trkpt>
      <trkpt lat="43.40679" lon="6.02048">
        <ele>232.29089</ele>
        <time>2015-01-14T13:11:42Z</time>
      </trkpt>
      <trkpt lat="43.40688" lon="6.02041">
        <ele>232.50146</ele>
        <time>2015-01-14T13:11:44Z</time>
      </trkpt>
      <trkpt lat="43.40705" lon="6.02027">
        <ele>232.92261</ele>
        <time>2015-01-14T13:11:48Z</time>
      </trkpt>
      <trkpt lat="43.40726" lon="6.02012">
        <ele>233.4353</ele>
        <time>2015-01-14T13:11:53Z</time>
      </trkpt>
      <trkpt lat="43.40752" lon="6.01994">
        <ele>233.98688</ele>
        <time>2015-01-14T13:11:59Z</time>
      </trkpt>
      <trkpt lat="43.4076" lon="6.01987">
        <ele>234.09503</ele>
        <time>2015-01-14T13:12:01Z</time>
      </trkpt>
      <trkpt lat="43.40801" lon="6.01954">
        <ele>234.67181</ele>
        <time>2015-01-14T13:12:11Z</time>
      </trkpt>
      <trkpt lat="43.40818" lon="6.01936">
        <ele>234.86121</ele>
        <time>2015-01-14T13:12:17Z</time>
      </trkpt>
      <trkpt lat="43.40846" lon="6.01902">
        <ele>235.28191</ele>
        <time>2015-01-14T13:12:25Z</time>
      </trkpt>
      <trkpt lat="43.40877" lon="6.01863">
        <ele>235.71393</ele>
        <time>2015-01-14T13:12:34Z</time>
      </trkpt>
      <trkpt lat="43.40911" lon="6.01822">
        <ele>235.93781</ele>
        <time>2015-01-14T13:12:44Z</time>
      </trkpt>
      <trkpt lat="43.40934" lon="6.01803">
        <ele>236.41577</ele>
        <time>2015-01-14T13:12:50Z</time>
      </trkpt>
      <trkpt lat="43.40942" lon="6.01798">
        <ele>236.59888</ele>
        <time>2015-01-14T13:12:52Z</time>
      </trkpt>
      <trkpt lat="43.40961" lon="6.01785">
        <ele>237.07495</ele>
        <time>2015-01-14T13:12:57Z</time>
      </trkpt>
      <trkpt lat="43.41003" lon="6.0176">
        <ele>238.03186</ele>
        <time>2015-01-14T13:13:08Z</time>
      </trkpt>
      <trkpt lat="43.41013" lon="6.01754">
        <ele>238.15088</ele>
        <time>2015-01-14T13:13:11Z</time>
      </trkpt>
      <trkpt lat="43.41026" lon="6.01746">
        <ele>238.27753</ele>
        <time>2015-01-14T13:13:15Z</time>
      </trkpt>
      <trkpt lat="43.41048" lon="6.01732">
        <ele>238.49246</ele>
        <time>2015-01-14T13:13:22Z</time>
      </trkpt>
      <trkpt lat="43.41058" lon="6.01726">
        <ele>238.61473</ele>
        <time>2015-01-14T13:13:25Z</time>
      </trkpt>
      <trkpt lat="43.41066" lon="6.01722">
        <ele>238.72238</ele>
        <time>2015-01-14T13:13:27Z</time>
      </trkpt>
      <trkpt lat="43.41079" lon="6.01714">
        <ele>238.93118</ele>
        <time>2015-01-14T13:13:31Z</time>
      </trkpt>
      <trkpt lat="43.41104" lon="6.01696">
        <ele>239.57739</ele>
        <time>2015-01-14T13:13:39Z</time>
      </trkpt>
      <trkpt lat="43.4111" lon="6.01692">
        <ele>239.73329</ele>
        <time>2015-01-14T13:13:41Z</time>
      </trkpt>
      <trkpt lat="43.4114" lon="6.01668">
        <ele>240.36681</ele>
        <time>2015-01-14T13:13:51Z</time>
      </trkpt>
      <trkpt lat="43.41161" lon="6.01657">
        <ele>240.73639</ele>
        <time>2015-01-14T13:13:57Z</time>
      </trkpt>
      <trkpt lat="43.41171" lon="6.01653">
        <ele>240.87735</ele>
        <time>2015-01-14T13:14:00Z</time>
      </trkpt>
      <trkpt lat="43.41189" lon="6.01651">
        <ele>241.02425</ele>
        <time>2015-01-14T13:14:05Z</time>
      </trkpt>
      <trkpt lat="43.41196" lon="6.01649">
        <ele>241.0703</ele>
        <time>2015-01-14T13:14:07Z</time>
      </trkpt>
      <trkpt lat="43.41228" lon="6.0165">
        <ele>241.40341</ele>
        <time>2015-01-14T13:14:16Z</time>
      </trkpt>
      <trkpt lat="43.41261" lon="6.01655">
        <ele>241.60184</ele>
        <time>2015-01-14T13:14:26Z</time>
      </trkpt>
      <trkpt lat="43.41268" lon="6.01656">
        <ele>241.54498</ele>
        <time>2015-01-14T13:14:30Z</time>
      </trkpt>
      <trkpt lat="43.41276" lon="6.01655">
        <ele>241.44434</ele>
        <time>2015-01-14T13:14:34Z</time>
      </trkpt>
      <trkpt lat="43.41296" lon="6.01655">
        <ele>241.24966</ele>
        <time>2015-01-14T13:14:41Z</time>
      </trkpt>
      <trkpt lat="43.413" lon="6.01656">
        <ele>241.2196</ele>
        <time>2015-01-14T13:14:42Z</time>
      </trkpt>
      <trkpt lat="43.41333" lon="6.01656">
        <ele>240.87732</ele>
        <time>2015-01-14T13:14:52Z</time>
      </trkpt>
      <trkpt lat="43.41337" lon="6.01657">
        <ele>240.88513</ele>
        <time>2015-01-14T13:14:53Z</time>
      </trkpt>
      <trkpt lat="43.41366" lon="6.01657">
        <ele>240.93259</ele>
        <time>2015-01-14T13:15:01Z</time>
      </trkpt>
      <trkpt lat="43.41402" lon="6.01659">
        <ele>240.9836</ele>
        <time>2015-01-14T13:15:11Z</time>
      </trkpt>
      <trkpt lat="43.4142" lon="6.01659">
        <ele>241.10565</ele>
        <time>2015-01-14T13:15:16Z</time>
      </trkpt>
      <trkpt lat="43.41437" lon="6.01658">
        <ele>241.72363</ele>
        <time>2015-01-14T13:15:21Z</time>
      </trkpt>
      <trkpt lat="43.41457" lon="6.01657">
        <ele>242.45148</ele>
        <time>2015-01-14T13:15:27Z</time>
      </trkpt>
      <trkpt lat="43.4146" lon="6.01656">
        <ele>242.56134</ele>
        <time>2015-01-14T13:15:28Z</time>
      </trkpt>
      <trkpt lat="43.41486" lon="6.01652">
        <ele>243.49518</ele>
        <time>2015-01-14T13:15:37Z</time>
      </trkpt>
      <trkpt lat="43.41494" lon="6.01651">
        <ele>243.7973</ele>
        <time>2015-01-14T13:15:40Z</time>
      </trkpt>
      <trkpt lat="43.4152" lon="6.01643">
        <ele>244.97485</ele>
        <time>2015-01-14T13:15:49Z</time>
      </trkpt>
      <trkpt lat="43.41539" lon="6.01636">
        <ele>245.89038</ele>
        <time>2015-01-14T13:15:56Z</time>
      </trkpt>
      <trkpt lat="43.4155" lon="6.0163">
        <ele>246.42139</ele>
        <time>2015-01-14T13:16:00Z</time>
      </trkpt>
      <trkpt lat="43.41567" lon="6.01622">
        <ele>247.22705</ele>
        <time>2015-01-14T13:16:06Z</time>
      </trkpt>
      <trkpt lat="43.41581" lon="6.01613">
        <ele>247.86792</ele>
        <time>2015-01-14T13:16:11Z</time>
      </trkpt>
      <trkpt lat="43.416" lon="6.01598">
        <ele>248.62122</ele>
        <time>2015-01-14T13:16:20Z</time>
      </trkpt>
      <trkpt lat="43.4161" lon="6.01589">
        <ele>248.98051</ele>
        <time>2015-01-14T13:16:26Z</time>
      </trkpt>
      <trkpt lat="43.41611" lon="6.01588">
        <ele>249.01866</ele>
        <time>2015-01-14T13:16:27Z</time>
      </trkpt>
      <trkpt lat="43.41611" lon="6.01588">
        <ele>249.03168</ele>
        <time>2015-01-14T13:16:47Z</time>
      </trkpt>
      <trkpt lat="43.41611" lon="6.01588">
        <ele>249.03188</ele>
        <time>2015-01-14T13:16:55Z</time>
      </trkpt>
      <trkpt lat="43.41611" lon="6.01588">
        <ele>249.03188</ele>
        <time>2015-01-14T13:17:02Z</time>
      </trkpt>
      <trkpt lat="43.41611" lon="6.01588">
        <ele>249.0313</ele>
        <time>2015-01-14T13:17:24Z</time>
      </trkpt>
      <trkpt lat="43.41611" lon="6.01588">
        <ele>249.0313</ele>
        <time>2015-01-14T13:17:32Z</time>
      </trkpt>
      <trkpt lat="43.41616" lon="6.01581">
        <ele>249.1781</ele>
        <time>2015-01-14T13:17:41Z</time>
      </trkpt>
      <trkpt lat="43.41616" lon="6.01577">
        <ele>249.1781</ele>
        <time>2015-01-14T13:17:42Z</time>
      </trkpt>
      <trkpt lat="43.41615" lon="6.01563">
        <ele>249.1369</ele>
        <time>2015-01-14T13:17:45Z</time>
      </trkpt>
      <trkpt lat="43.41602" lon="6.01545">
        <ele>248.68372</ele>
        <time>2015-01-14T13:17:49Z</time>
      </trkpt>
      <trkpt lat="43.41599" lon="6.01541">
        <ele>248.54639</ele>
        <time>2015-01-14T13:17:50Z</time>
      </trkpt>
      <trkpt lat="43.41595" lon="6.01535">
        <ele>248.40906</ele>
        <time>2015-01-14T13:17:51Z</time>
      </trkpt>
      <trkpt lat="43.41584" lon="6.01518">
        <ele>248.02454</ele>
        <time>2015-01-14T13:17:54Z</time>
      </trkpt>
      <trkpt lat="43.41582" lon="6.01511">
        <ele>247.92285</ele>
        <time>2015-01-14T13:17:55Z</time>
      </trkpt>
      <trkpt lat="43.41576" lon="6.0149">
        <ele>247.62988</ele>
        <time>2015-01-14T13:17:58Z</time>
      </trkpt>
      <trkpt lat="43.41573" lon="6.01477">
        <ele>247.50171</ele>
        <time>2015-01-14T13:18:00Z</time>
      </trkpt>
      <trkpt lat="43.41569" lon="6.01458">
        <ele>247.30029</ele>
        <time>2015-01-14T13:18:03Z</time>
      </trkpt>
      <trkpt lat="43.41568" lon="6.01451">
        <ele>247.24536</ele>
        <time>2015-01-14T13:18:04Z</time>
      </trkpt>
      <trkpt lat="43.41567" lon="6.01438">
        <ele>247.20874</ele>
        <time>2015-01-14T13:18:06Z</time>
      </trkpt>
      <trkpt lat="43.41567" lon="6.01432">
        <ele>247.22705</ele>
        <time>2015-01-14T13:18:07Z</time>
      </trkpt>
      <trkpt lat="43.41568" lon="6.01419">
        <ele>247.24536</ele>
        <time>2015-01-14T13:18:09Z</time>
      </trkpt>
      <trkpt lat="43.4157" lon="6.01406">
        <ele>247.20665</ele>
        <time>2015-01-14T13:18:11Z</time>
      </trkpt>
      <trkpt lat="43.41575" lon="6.01386">
        <ele>247.22038</ele>
        <time>2015-01-14T13:18:14Z</time>
      </trkpt>
      <trkpt lat="43.41579" lon="6.01374">
        <ele>247.30679</ele>
        <time>2015-01-14T13:18:16Z</time>
      </trkpt>
      <trkpt lat="43.41587" lon="6.01368">
        <ele>247.55464</ele>
        <time>2015-01-14T13:18:18Z</time>
      </trkpt>
      <trkpt lat="43.41605" lon="6.01346">
        <ele>248.13695</ele>
        <time>2015-01-14T13:18:23Z</time>
      </trkpt>
      <trkpt lat="43.41611" lon="6.0133">
        <ele>248.30757</ele>
        <time>2015-01-14T13:18:26Z</time>
      </trkpt>
      <trkpt lat="43.41612" lon="6.01324">
        <ele>248.26981</ele>
        <time>2015-01-14T13:18:27Z</time>
      </trkpt>
      <trkpt lat="43.41607" lon="6.01298">
        <ele>247.72964</ele>
        <time>2015-01-14T13:18:31Z</time>
      </trkpt>
      <trkpt lat="43.41603" lon="6.0127">
        <ele>247.21237</ele>
        <time>2015-01-14T13:18:35Z</time>
      </trkpt>
      <trkpt lat="43.41598" lon="6.01251">
        <ele>246.72485</ele>
        <time>2015-01-14T13:18:38Z</time>
      </trkpt>
      <trkpt lat="43.41598" lon="6.01246">
        <ele>246.63829</ele>
        <time>2015-01-14T13:18:39Z</time>
      </trkpt>
      <trkpt lat="43.41597" lon="6.01242">
        <ele>246.48264</ele>
        <time>2015-01-14T13:18:40Z</time>
      </trkpt>
      <trkpt lat="43.41597" lon="6.01229">
        <ele>246.22284</ele>
        <time>2015-01-14T13:18:43Z</time>
      </trkpt>
      <trkpt lat="43.41598" lon="6.01208">
        <ele>245.88721</ele>
        <time>2015-01-14T13:18:47Z</time>
      </trkpt>
      <trkpt lat="43.41599" lon="6.01203">
        <ele>245.82596</ele>
        <time>2015-01-14T13:18:48Z</time>
      </trkpt>
      <trkpt lat="43.41603" lon="6.01184">
        <ele>245.72185</ele>
        <time>2015-01-14T13:18:52Z</time>
      </trkpt>
      <trkpt lat="43.41606" lon="6.01163">
        <ele>245.56897</ele>
        <time>2015-01-14T13:18:56Z</time>
      </trkpt>
      <trkpt lat="43.41608" lon="6.01159">
        <ele>245.65594</ele>
        <time>2015-01-14T13:18:57Z</time>
      </trkpt>
      <trkpt lat="43.41611" lon="6.0115">
        <ele>245.8299</ele>
        <time>2015-01-14T13:18:59Z</time>
      </trkpt>
      <trkpt lat="43.41613" lon="6.01147">
        <ele>245.86768</ele>
        <time>2015-01-14T13:19:00Z</time>
      </trkpt>
      <trkpt lat="43.41613" lon="6.01142">
        <ele>245.84592</ele>
        <time>2015-01-14T13:19:01Z</time>
      </trkpt>
      <trkpt lat="43.41613" lon="6.01138">
        <ele>245.78813</ele>
        <time>2015-01-14T13:19:02Z</time>
      </trkpt>
      <trkpt lat="43.41616" lon="6.01131">
        <ele>245.92947</ele>
        <time>2015-01-14T13:19:04Z</time>
      </trkpt>
      <trkpt lat="43.41618" lon="6.01128">
        <ele>246.03532</ele>
        <time>2015-01-14T13:19:05Z</time>
      </trkpt>
      <trkpt lat="43.4162" lon="6.01126">
        <ele>246.1429</ele>
        <time>2015-01-14T13:19:06Z</time>
      </trkpt>
      <trkpt lat="43.41628" lon="6.01114">
        <ele>246.55087</ele>
        <time>2015-01-14T13:19:11Z</time>
      </trkpt>
      <trkpt lat="43.41636" lon="6.01101">
        <ele>246.99835</ele>
        <time>2015-01-14T13:19:15Z</time>
      </trkpt>
      <trkpt lat="43.41639" lon="6.01093">
        <ele>247.11508</ele>
        <time>2015-01-14T13:19:17Z</time>
      </trkpt>
      <trkpt lat="43.41641" lon="6.01088">
        <ele>247.1969</ele>
        <time>2015-01-14T13:19:18Z</time>
      </trkpt>
      <trkpt lat="43.41644" lon="6.01073">
        <ele>247.35684</ele>
        <time>2015-01-14T13:19:21Z</time>
      </trkpt>
      <trkpt lat="43.41646" lon="6.01063">
        <ele>247.43623</ele>
        <time>2015-01-14T13:19:23Z</time>
      </trkpt>
      <trkpt lat="43.41645" lon="6.0105">
        <ele>247.33908</ele>
        <time>2015-01-14T13:19:25Z</time>
      </trkpt>
      <trkpt lat="43.4164" lon="6.01038">
        <ele>246.94438</ele>
        <time>2015-01-14T13:19:27Z</time>
      </trkpt>
      <trkpt lat="43.41639" lon="6.01015">
        <ele>246.70149</ele>
        <time>2015-01-14T13:19:31Z</time>
      </trkpt>
      <trkpt lat="43.41639" lon="6.01009">
        <ele>246.6768</ele>
        <time>2015-01-14T13:19:32Z</time>
      </trkpt>
      <trkpt lat="43.4164" lon="6.00982">
        <ele>246.58939</ele>
        <time>2015-01-14T13:19:37Z</time>
      </trkpt>
      <trkpt lat="43.4164" lon="6.00964">
        <ele>246.33075</ele>
        <time>2015-01-14T13:19:42Z</time>
      </trkpt>
      <trkpt lat="43.41639" lon="6.00961">
        <ele>246.20715</ele>
        <time>2015-01-14T13:19:46Z</time>
      </trkpt>
      <trkpt lat="43.41639" lon="6.00961">
        <ele>246.20258</ele>
        <time>2015-01-14T13:19:53Z</time>
      </trkpt>
      <trkpt lat="43.41639" lon="6.00961">
        <ele>246.20258</ele>
        <time>2015-01-14T13:19:56Z</time>
      </trkpt>
      <trkpt lat="43.41639" lon="6.00958">
        <ele>246.13333</ele>
        <time>2015-01-14T13:19:59Z</time>
      </trkpt>
      <trkpt lat="43.41634" lon="6.0094">
        <ele>245.49933</ele>
        <time>2015-01-14T13:20:04Z</time>
      </trkpt>
      <trkpt lat="43.41632" lon="6.00928">
        <ele>245.19664</ele>
        <time>2015-01-14T13:20:07Z</time>
      </trkpt>
      <trkpt lat="43.41631" lon="6.00915">
        <ele>245.03064</ele>
        <time>2015-01-14T13:20:10Z</time>
      </trkpt>
      <trkpt lat="43.4163" lon="6.00909">
        <ele>244.93451</ele>
        <time>2015-01-14T13:20:12Z</time>
      </trkpt>
      <trkpt lat="43.41629" lon="6.00901">
        <ele>244.83838</ele>
        <time>2015-01-14T13:20:14Z</time>
      </trkpt>
      <trkpt lat="43.41627" lon="6.00885">
        <ele>244.67816</ele>
        <time>2015-01-14T13:20:19Z</time>
      </trkpt>
      <trkpt lat="43.4163" lon="6.00866">
        <ele>244.90247</ele>
        <time>2015-01-14T13:20:23Z</time>
      </trkpt>
      <trkpt lat="43.4163" lon="6.00862">
        <ele>244.90247</ele>
        <time>2015-01-14T13:20:24Z</time>
      </trkpt>
      <trkpt lat="43.41633" lon="6.00841">
        <ele>245.15881</ele>
        <time>2015-01-14T13:20:29Z</time>
      </trkpt>
      <trkpt lat="43.41632" lon="6.00833">
        <ele>245.06268</ele>
        <time>2015-01-14T13:20:33Z</time>
      </trkpt>
      <trkpt lat="43.41632" lon="6.0083">
        <ele>245.06268</ele>
        <time>2015-01-14T13:20:38Z</time>
      </trkpt>
      <trkpt lat="43.41631" lon="6.0083">
        <ele>245.03064</ele>
        <time>2015-01-14T13:20:49Z</time>
      </trkpt>
      <trkpt lat="43.41634" lon="6.00825">
        <ele>245.2229</ele>
        <time>2015-01-14T13:20:54Z</time>
      </trkpt>
      <trkpt lat="43.41634" lon="6.00824">
        <ele>245.25494</ele>
        <time>2015-01-14T13:20:55Z</time>
      </trkpt>
      <trkpt lat="43.41634" lon="6.0082">
        <ele>245.25494</ele>
        <time>2015-01-14T13:20:57Z</time>
      </trkpt>
      <trkpt lat="43.41634" lon="6.00817">
        <ele>245.2229</ele>
        <time>2015-01-14T13:21:00Z</time>
      </trkpt>
      <trkpt lat="43.41634" lon="6.00816">
        <ele>245.2229</ele>
        <time>2015-01-14T13:21:01Z</time>
      </trkpt>
      <trkpt lat="43.41634" lon="6.00812">
        <ele>245.2229</ele>
        <time>2015-01-14T13:21:04Z</time>
      </trkpt>
      <trkpt lat="43.41634" lon="6.0081">
        <ele>245.2229</ele>
        <time>2015-01-14T13:21:05Z</time>
      </trkpt>
      <trkpt lat="43.41637" lon="6.00794">
        <ele>245.51129</ele>
        <time>2015-01-14T13:21:12Z</time>
      </trkpt>
      <trkpt lat="43.4164" lon="6.00786">
        <ele>245.76764</ele>
        <time>2015-01-14T13:21:15Z</time>
      </trkpt>
      <trkpt lat="43.41642" lon="6.0078">
        <ele>245.92786</ele>
        <time>2015-01-14T13:21:17Z</time>
      </trkpt>
      <trkpt lat="43.41642" lon="6.00776">
        <ele>245.9599</ele>
        <time>2015-01-14T13:21:18Z</time>
      </trkpt>
      <trkpt lat="43.4164" lon="6.00767">
        <ele>245.76764</ele>
        <time>2015-01-14T13:21:20Z</time>
      </trkpt>
      <trkpt lat="43.4164" lon="6.00758">
        <ele>245.79968</ele>
        <time>2015-01-14T13:21:22Z</time>
      </trkpt>
      <trkpt lat="43.41645" lon="6.0074">
        <ele>246.27559</ele>
        <time>2015-01-14T13:21:26Z</time>
      </trkpt>
      <trkpt lat="43.41644" lon="6.00735">
        <ele>246.18607</ele>
        <time>2015-01-14T13:21:27Z</time>
      </trkpt>
      <trkpt lat="43.41638" lon="6.00723">
        <ele>245.8197</ele>
        <time>2015-01-14T13:21:31Z</time>
      </trkpt>
      <trkpt lat="43.41636" lon="6.0072">
        <ele>245.63951</ele>
        <time>2015-01-14T13:21:32Z</time>
      </trkpt>
      <trkpt lat="43.41632" lon="6.00713">
        <ele>245.3891</ele>
        <time>2015-01-14T13:21:34Z</time>
      </trkpt>
      <trkpt lat="43.41628" lon="6.00695">
        <ele>245.06252</ele>
        <time>2015-01-14T13:21:38Z</time>
      </trkpt>
      <trkpt lat="43.41624" lon="6.00669">
        <ele>244.89835</ele>
        <time>2015-01-14T13:21:45Z</time>
      </trkpt>
      <trkpt lat="43.41626" lon="6.00648">
        <ele>245.05713</ele>
        <time>2015-01-14T13:21:52Z</time>
      </trkpt>
      <trkpt lat="43.41626" lon="6.0063">
        <ele>245.09375</ele>
        <time>2015-01-14T13:21:58Z</time>
      </trkpt>
      <trkpt lat="43.41626" lon="6.00614">
        <ele>245.09375</ele>
        <time>2015-01-14T13:22:05Z</time>
      </trkpt>
      <trkpt lat="43.41629" lon="6.00595">
        <ele>245.38672</ele>
        <time>2015-01-14T13:22:13Z</time>
      </trkpt>
      <trkpt lat="43.41632" lon="6.00584">
        <ele>245.64307</ele>
        <time>2015-01-14T13:22:17Z</time>
      </trkpt>
      <trkpt lat="43.41631" lon="6.00582">
        <ele>245.68166</ele>
        <time>2015-01-14T13:22:18Z</time>
      </trkpt>
      <trkpt lat="43.41632" lon="6.00579">
        <ele>245.83949</ele>
        <time>2015-01-14T13:22:19Z</time>
      </trkpt>
      <trkpt lat="43.41632" lon="6.00573">
        <ele>246.11035</ele>
        <time>2015-01-14T13:22:22Z</time>
      </trkpt>
      <trkpt lat="43.41632" lon="6.00571">
        <ele>246.23421</ele>
        <time>2015-01-14T13:22:23Z</time>
      </trkpt>
      <trkpt lat="43.41634" lon="6.00555">
        <ele>247.00098</ele>
        <time>2015-01-14T13:22:29Z</time>
      </trkpt>
      <trkpt lat="43.41636" lon="6.00543">
        <ele>247.63167</ele>
        <time>2015-01-14T13:22:35Z</time>
      </trkpt>
      <trkpt lat="43.41637" lon="6.00524">
        <ele>248.56424</ele>
        <time>2015-01-14T13:22:42Z</time>
      </trkpt>
      <trkpt lat="43.41638" lon="6.00511">
        <ele>249.16142</ele>
        <time>2015-01-14T13:22:47Z</time>
      </trkpt>
      <trkpt lat="43.4164" lon="6.00497">
        <ele>249.942</ele>
        <time>2015-01-14T13:22:53Z</time>
      </trkpt>
      <trkpt lat="43.41647" lon="6.00481">
        <ele>251.45079</ele>
        <time>2015-01-14T13:23:00Z</time>
      </trkpt>
      <trkpt lat="43.4165" lon="6.00463">
        <ele>252.73491</ele>
        <time>2015-01-14T13:23:06Z</time>
      </trkpt>
      <trkpt lat="43.41654" lon="6.00438">
        <ele>254.36516</ele>
        <time>2015-01-14T13:23:13Z</time>
      </trkpt>
      <trkpt lat="43.41657" lon="6.00412">
        <ele>255.66125</ele>
        <time>2015-01-14T13:23:21Z</time>
      </trkpt>
      <trkpt lat="43.41661" lon="6.0039">
        <ele>255.81232</ele>
        <time>2015-01-14T13:23:28Z</time>
      </trkpt>
      <trkpt lat="43.41666" lon="6.00379">
        <ele>255.97711</ele>
        <time>2015-01-14T13:23:34Z</time>
      </trkpt>
      <trkpt lat="43.41668" lon="6.00373">
        <ele>256.03204</ele>
        <time>2015-01-14T13:23:37Z</time>
      </trkpt>
      <trkpt lat="43.4167" lon="6.00364">
        <ele>256.11444</ele>
        <time>2015-01-14T13:23:41Z</time>
      </trkpt>
      <trkpt lat="43.41677" lon="6.00355">
        <ele>256.37537</ele>
        <time>2015-01-14T13:23:47Z</time>
      </trkpt>
      <trkpt lat="43.41683" lon="6.00348">
        <ele>256.58136</ele>
        <time>2015-01-14T13:23:53Z</time>
      </trkpt>
      <trkpt lat="43.41685" lon="6.00339">
        <ele>256.66376</ele>
        <time>2015-01-14T13:23:59Z</time>
      </trkpt>
      <trkpt lat="43.4169" lon="6.00327">
        <ele>256.88052</ele>
        <time>2015-01-14T13:24:05Z</time>
      </trkpt>
      <trkpt lat="43.41692" lon="6.00308">
        <ele>257.12552</ele>
        <time>2015-01-14T13:24:11Z</time>
      </trkpt>
      <trkpt lat="43.41693" lon="6.00289">
        <ele>257.32455</ele>
        <time>2015-01-14T13:24:17Z</time>
      </trkpt>
      <trkpt lat="43.41691" lon="6.00262">
        <ele>257.49045</ele>
        <time>2015-01-14T13:24:24Z</time>
      </trkpt>
      <trkpt lat="43.41695" lon="6.00241">
        <ele>257.77661</ele>
        <time>2015-01-14T13:24:29Z</time>
      </trkpt>
      <trkpt lat="43.41696" lon="6.00237">
        <ele>257.85443</ele>
        <time>2015-01-14T13:24:30Z</time>
      </trkpt>
      <trkpt lat="43.417" lon="6.00213">
        <ele>258.25381</ele>
        <time>2015-01-14T13:24:36Z</time>
      </trkpt>
      <trkpt lat="43.41706" lon="6.00179">
        <ele>258.79398</ele>
        <time>2015-01-14T13:24:45Z</time>
      </trkpt>
      <trkpt lat="43.41707" lon="6.0016">
        <ele>259.04333</ele>
        <time>2015-01-14T13:24:49Z</time>
      </trkpt>
      <trkpt lat="43.41708" lon="6.00151">
        <ele>259.18579</ele>
        <time>2015-01-14T13:24:51Z</time>
      </trkpt>
      <trkpt lat="43.41717" lon="6.00117">
        <ele>259.67307</ele>
        <time>2015-01-14T13:24:58Z</time>
      </trkpt>
      <trkpt lat="43.41721" lon="6.00083">
        <ele>260</ele>
        <time>2015-01-14T13:25:06Z</time>
      </trkpt>
      <trkpt lat="43.41716" lon="6.00063">
        <ele>260</ele>
        <time>2015-01-14T13:25:11Z</time>
      </trkpt>
      <trkpt lat="43.41714" lon="6.00043">
        <ele>260</ele>
        <time>2015-01-14T13:25:16Z</time>
      </trkpt>
      <trkpt lat="43.41715" lon="6.00039">
        <ele>260</ele>
        <time>2015-01-14T13:25:17Z</time>
      </trkpt>
      <trkpt lat="43.41717" lon="6.00033">
        <ele>260</ele>
        <time>2015-01-14T13:25:19Z</time>
      </trkpt>
      <trkpt lat="43.4172" lon="6.00024">
        <ele>260</ele>
        <time>2015-01-14T13:25:22Z</time>
      </trkpt>
      <trkpt lat="43.41721" lon="6.0002">
        <ele>260</ele>
        <time>2015-01-14T13:25:23Z</time>
      </trkpt>
      <trkpt lat="43.41724" lon="6.0001">
        <ele>260</ele>
        <time>2015-01-14T13:25:26Z</time>
      </trkpt>
      <trkpt lat="43.41735" lon="5.9996">
        <ele>258.34256</ele>
        <time>2015-01-14T13:25:39Z</time>
      </trkpt>
      <trkpt lat="43.41743" lon="5.99929">
        <ele>258.50537</ele>
        <time>2015-01-14T13:25:47Z</time>
      </trkpt>
      <trkpt lat="43.4175" lon="5.99904">
        <ele>258.84097</ele>
        <time>2015-01-14T13:25:54Z</time>
      </trkpt>
      <trkpt lat="43.41752" lon="5.99886">
        <ele>258.9978</ele>
        <time>2015-01-14T13:25:59Z</time>
      </trkpt>
      <trkpt lat="43.41755" lon="5.99874">
        <ele>259.31406</ele>
        <time>2015-01-14T13:26:02Z</time>
      </trkpt>
      <trkpt lat="43.41758" lon="5.99862">
        <ele>259.77292</ele>
        <time>2015-01-14T13:26:05Z</time>
      </trkpt>
      <trkpt lat="43.41768" lon="5.99838">
        <ele>261.18127</ele>
        <time>2015-01-14T13:26:11Z</time>
      </trkpt>
      <trkpt lat="43.41779" lon="5.99815">
        <ele>263.12076</ele>
        <time>2015-01-14T13:26:18Z</time>
      </trkpt>
      <trkpt lat="43.41785" lon="5.99802">
        <ele>263.92755</ele>
        <time>2015-01-14T13:26:22Z</time>
      </trkpt>
      <trkpt lat="43.41786" lon="5.99795">
        <ele>264.05389</ele>
        <time>2015-01-14T13:26:24Z</time>
      </trkpt>
      <trkpt lat="43.41788" lon="5.99788">
        <ele>264.36389</ele>
        <time>2015-01-14T13:26:26Z</time>
      </trkpt>
      <trkpt lat="43.41792" lon="5.99775">
        <ele>264.90445</ele>
        <time>2015-01-14T13:26:30Z</time>
      </trkpt>
      <trkpt lat="43.418" lon="5.99752">
        <ele>265.87219</ele>
        <time>2015-01-14T13:26:37Z</time>
      </trkpt>
      <trkpt lat="43.41802" lon="5.99741">
        <ele>265.80365</ele>
        <time>2015-01-14T13:26:42Z</time>
      </trkpt>
      <trkpt lat="43.41802" lon="5.9974">
        <ele>265.81696</ele>
        <time>2015-01-14T13:26:44Z</time>
      </trkpt>
      <trkpt lat="43.41803" lon="5.99737">
        <ele>265.89294</ele>
        <time>2015-01-14T13:26:48Z</time>
      </trkpt>
      <trkpt lat="43.41803" lon="5.99736">
        <ele>265.86337</ele>
        <time>2015-01-14T13:26:56Z</time>
      </trkpt>
      <trkpt lat="43.41803" lon="5.99736">
        <ele>265.86182</ele>
        <time>2015-01-14T13:27:02Z</time>
      </trkpt>
      <trkpt lat="43.41803" lon="5.99735">
        <ele>265.85095</ele>
        <time>2015-01-14T13:27:05Z</time>
      </trkpt>
      <trkpt lat="43.41803" lon="5.99736">
        <ele>265.85251</ele>
        <time>2015-01-14T13:27:11Z</time>
      </trkpt>
      <trkpt lat="43.41803" lon="5.99735">
        <ele>265.85095</ele>
        <time>2015-01-14T13:27:15Z</time>
      </trkpt>
      <trkpt lat="43.41803" lon="5.99735">
        <ele>265.8385</ele>
        <time>2015-01-14T13:27:21Z</time>
      </trkpt>
      <trkpt lat="43.41803" lon="5.99735">
        <ele>265.8385</ele>
        <time>2015-01-14T13:27:29Z</time>
      </trkpt>
      <trkpt lat="43.41803" lon="5.99735">
        <ele>265.83072</ele>
        <time>2015-01-14T13:27:51Z</time>
      </trkpt>
      <trkpt lat="43.41803" lon="5.99735">
        <ele>265.82761</ele>
        <time>2015-01-14T13:28:01Z</time>
      </trkpt>
      <trkpt lat="43.41803" lon="5.99732">
        <ele>265.7529</ele>
        <time>2015-01-14T13:28:06Z</time>
      </trkpt>
      <trkpt lat="43.41803" lon="5.99732">
        <ele>265.74823</ele>
        <time>2015-01-14T13:28:07Z</time>
      </trkpt>
      <trkpt lat="43.41803" lon="5.99732">
        <ele>265.73734</ele>
        <time>2015-01-14T13:28:23Z</time>
      </trkpt>
      <trkpt lat="43.41803" lon="5.99732">
        <ele>265.73734</ele>
        <time>2015-01-14T13:28:24Z</time>
      </trkpt>
      <trkpt lat="43.41804" lon="5.99731">
        <ele>265.77402</ele>
        <time>2015-01-14T13:28:34Z</time>
      </trkpt>
      <trkpt lat="43.41805" lon="5.99728">
        <ele>265.78009</ele>
        <time>2015-01-14T13:28:36Z</time>
      </trkpt>
      <trkpt lat="43.41807" lon="5.99719">
        <ele>265.87729</ele>
        <time>2015-01-14T13:28:39Z</time>
      </trkpt>
      <trkpt lat="43.41811" lon="5.99701">
        <ele>266.10309</ele>
        <time>2015-01-14T13:28:45Z</time>
      </trkpt>
      <trkpt lat="43.4182" lon="5.99673">
        <ele>266.73105</ele>
        <time>2015-01-14T13:28:54Z</time>
      </trkpt>
      <trkpt lat="43.41825" lon="5.99653">
        <ele>267.13608</ele>
        <time>2015-01-14T13:28:59Z</time>
      </trkpt>
      <trkpt lat="43.41832" lon="5.99638">
        <ele>267.74866</ele>
        <time>2015-01-14T13:29:03Z</time>
      </trkpt>
      <trkpt lat="43.41838" lon="5.99625">
        <ele>268.19098</ele>
        <time>2015-01-14T13:29:07Z</time>
      </trkpt>
      <trkpt lat="43.41841" lon="5.99614">
        <ele>268.34338</ele>
        <time>2015-01-14T13:29:10Z</time>
      </trkpt>
      <trkpt lat="43.41843" lon="5.99612">
        <ele>268.50797</ele>
        <time>2015-01-14T13:29:11Z</time>
      </trkpt>
      <trkpt lat="43.41848" lon="5.99601">
        <ele>268.96118</ele>
        <time>2015-01-14T13:29:15Z</time>
      </trkpt>
      <trkpt lat="43.41851" lon="5.99593">
        <ele>269.13071</ele>
        <time>2015-01-14T13:29:18Z</time>
      </trkpt>
      <trkpt lat="43.41853" lon="5.9959">
        <ele>269.271</ele>
        <time>2015-01-14T13:29:19Z</time>
      </trkpt>
      <trkpt lat="43.41859" lon="5.99576">
        <ele>269.66537</ele>
        <time>2015-01-14T13:29:25Z</time>
      </trkpt>
      <trkpt lat="43.4186" lon="5.99574">
        <ele>269.62012</ele>
        <time>2015-01-14T13:29:26Z</time>
      </trkpt>
      <trkpt lat="43.41861" lon="5.99571">
        <ele>269.56738</ele>
        <time>2015-01-14T13:29:27Z</time>
      </trkpt>
      <trkpt lat="43.41865" lon="5.9956">
        <ele>269.53409</ele>
        <time>2015-01-14T13:29:31Z</time>
      </trkpt>
      <trkpt lat="43.41866" lon="5.99557">
        <ele>269.45602</ele>
        <time>2015-01-14T13:29:32Z</time>
      </trkpt>
      <trkpt lat="43.41875" lon="5.99541">
        <ele>269.73517</ele>
        <time>2015-01-14T13:29:37Z</time>
      </trkpt>
      <trkpt lat="43.41887" lon="5.99523">
        <ele>269.98248</ele>
        <time>2015-01-14T13:29:44Z</time>
      </trkpt>
      <trkpt lat="43.41885" lon="5.99512">
        <ele>269.08453</ele>
        <time>2015-01-14T13:29:48Z</time>
      </trkpt>
      <trkpt lat="43.41882" lon="5.99494">
        <ele>267.57816</ele>
        <time>2015-01-14T13:29:53Z</time>
      </trkpt>
      <trkpt lat="43.41881" lon="5.99475">
        <ele>266.5928</ele>
        <time>2015-01-14T13:29:59Z</time>
      </trkpt>
      <trkpt lat="43.4188" lon="5.99472">
        <ele>266.34518</ele>
        <time>2015-01-14T13:30:00Z</time>
      </trkpt>
      <trkpt lat="43.41872" lon="5.99445">
        <ele>263.96558</ele>
        <time>2015-01-14T13:30:06Z</time>
      </trkpt>
      <trkpt lat="43.41868" lon="5.99434">
        <ele>262.81808</ele>
        <time>2015-01-14T13:30:08Z</time>
      </trkpt>
      <trkpt lat="43.41858" lon="5.99409">
        <ele>260.26569</ele>
        <time>2015-01-14T13:30:12Z</time>
      </trkpt>
      <trkpt lat="43.41852" lon="5.99395">
        <ele>258.9791</ele>
        <time>2015-01-14T13:30:14Z</time>
      </trkpt>
      <trkpt lat="43.41846" lon="5.99384">
        <ele>257.86725</ele>
        <time>2015-01-14T13:30:16Z</time>
      </trkpt>
      <trkpt lat="43.41845" lon="5.99379">
        <ele>257.5206</ele>
        <time>2015-01-14T13:30:17Z</time>
      </trkpt>
      <trkpt lat="43.41843" lon="5.9937">
        <ele>257.14203</ele>
        <time>2015-01-14T13:30:19Z</time>
      </trkpt>
      <trkpt lat="43.41843" lon="5.99368">
        <ele>256.96988</ele>
        <time>2015-01-14T13:30:20Z</time>
      </trkpt>
      <trkpt lat="43.41842" lon="5.99366">
        <ele>256.76889</ele>
        <time>2015-01-14T13:30:21Z</time>
      </trkpt>
      <trkpt lat="43.41841" lon="5.99359">
        <ele>256.53058</ele>
        <time>2015-01-14T13:30:25Z</time>
      </trkpt>
      <trkpt lat="43.41842" lon="5.99357">
        <ele>256.59222</ele>
        <time>2015-01-14T13:30:26Z</time>
      </trkpt>
      <trkpt lat="43.41842" lon="5.99358">
        <ele>256.55621</ele>
        <time>2015-01-14T13:30:28Z</time>
      </trkpt>
      <trkpt lat="43.41842" lon="5.99358">
        <ele>256.56277</ele>
        <time>2015-01-14T13:30:31Z</time>
      </trkpt>
      <trkpt lat="43.41842" lon="5.99358">
        <ele>256.61203</ele>
        <time>2015-01-14T13:30:41Z</time>
      </trkpt>
      <trkpt lat="43.41842" lon="5.99358">
        <ele>256.56543</ele>
        <time>2015-01-14T13:30:56Z</time>
      </trkpt>
      <trkpt lat="43.41842" lon="5.99358">
        <ele>256.56543</ele>
        <time>2015-01-14T13:31:09Z</time>
      </trkpt>
      <trkpt lat="43.41842" lon="5.99358">
        <ele>256.56409</ele>
        <time>2015-01-14T13:31:41Z</time>
      </trkpt>
      <trkpt lat="43.41842" lon="5.99358">
        <ele>256.56543</ele>
        <time>2015-01-14T13:32:00Z</time>
      </trkpt>
      <trkpt lat="43.41842" lon="5.99357">
        <ele>256.53522</ele>
        <time>2015-01-14T13:32:18Z</time>
      </trkpt>
      <trkpt lat="43.41842" lon="5.99357">
        <ele>256.53522</ele>
        <time>2015-01-14T13:32:40Z</time>
      </trkpt>
      <trkpt lat="43.41841" lon="5.99356">
        <ele>256.46924</ele>
        <time>2015-01-14T13:32:59Z</time>
      </trkpt>
      <trkpt lat="43.41839" lon="5.99353">
        <ele>256.16968</ele>
        <time>2015-01-14T13:33:01Z</time>
      </trkpt>
      <trkpt lat="43.41829" lon="5.99347">
        <ele>255.19356</ele>
        <time>2015-01-14T13:33:04Z</time>
      </trkpt>
      <trkpt lat="43.41824" lon="5.99346">
        <ele>254.97612</ele>
        <time>2015-01-14T13:33:05Z</time>
      </trkpt>
      <trkpt lat="43.41819" lon="5.99344">
        <ele>254.71748</ele>
        <time>2015-01-14T13:33:06Z</time>
      </trkpt>
      <trkpt lat="43.41806" lon="5.99338">
        <ele>254.11667</ele>
        <time>2015-01-14T13:33:08Z</time>
      </trkpt>
      <trkpt lat="43.41799" lon="5.99336">
        <ele>253.81111</ele>
        <time>2015-01-14T13:33:09Z</time>
      </trkpt>
      <trkpt lat="43.41784" lon="5.99332">
        <ele>253.20363</ele>
        <time>2015-01-14T13:33:11Z</time>
      </trkpt>
      <trkpt lat="43.41777" lon="5.9933">
        <ele>252.92717</ele>
        <time>2015-01-14T13:33:12Z</time>
      </trkpt>
      <trkpt lat="43.41769" lon="5.99329">
        <ele>252.61754</ele>
        <time>2015-01-14T13:33:13Z</time>
      </trkpt>
      <trkpt lat="43.41753" lon="5.99322">
        <ele>251.98143</ele>
        <time>2015-01-14T13:33:15Z</time>
      </trkpt>
      <trkpt lat="43.4173" lon="5.99312">
        <ele>250.97328</ele>
        <time>2015-01-14T13:33:18Z</time>
      </trkpt>
      <trkpt lat="43.41713" lon="5.99305">
        <ele>250.33321</ele>
        <time>2015-01-14T13:33:20Z</time>
      </trkpt>
      <trkpt lat="43.41697" lon="5.99299">
        <ele>249.82515</ele>
        <time>2015-01-14T13:33:22Z</time>
      </trkpt>
      <trkpt lat="43.41672" lon="5.99291">
        <ele>249.16629</ele>
        <time>2015-01-14T13:33:25Z</time>
      </trkpt>
      <trkpt lat="43.4164" lon="5.99282">
        <ele>248.1459</ele>
        <time>2015-01-14T13:33:29Z</time>
      </trkpt>
      <trkpt lat="43.41634" lon="5.99279">
        <ele>247.8725</ele>
        <time>2015-01-14T13:33:30Z</time>
      </trkpt>
      <trkpt lat="43.41611" lon="5.9927">
        <ele>246.82541</ele>
        <time>2015-01-14T13:33:33Z</time>
      </trkpt>
      <trkpt lat="43.41582" lon="5.99259">
        <ele>245.18437</ele>
        <time>2015-01-14T13:33:37Z</time>
      </trkpt>
      <trkpt lat="43.41548" lon="5.99246">
        <ele>244.20003</ele>
        <time>2015-01-14T13:33:43Z</time>
      </trkpt>
      <trkpt lat="43.41513" lon="5.99234">
        <ele>243.51053</ele>
        <time>2015-01-14T13:33:50Z</time>
      </trkpt>
      <trkpt lat="43.415" lon="5.99229">
        <ele>243.2515</ele>
        <time>2015-01-14T13:33:53Z</time>
      </trkpt>
      <trkpt lat="43.41478" lon="5.99222">
        <ele>243.68825</ele>
        <time>2015-01-14T13:33:58Z</time>
      </trkpt>
      <trkpt lat="43.41466" lon="5.99216">
        <ele>243.89018</ele>
        <time>2015-01-14T13:34:01Z</time>
      </trkpt>
      <trkpt lat="43.41468" lon="5.99202">
        <ele>243.90512</ele>
        <time>2015-01-14T13:34:04Z</time>
      </trkpt>
      <trkpt lat="43.4147" lon="5.99193">
        <ele>243.90929</ele>
        <time>2015-01-14T13:34:06Z</time>
      </trkpt>
      <trkpt lat="43.41477" lon="5.99166">
        <ele>244.03702</ele>
        <time>2015-01-14T13:34:12Z</time>
      </trkpt>
      <trkpt lat="43.41489" lon="5.99123">
        <ele>245.95319</ele>
        <time>2015-01-14T13:34:22Z</time>
      </trkpt>
      <trkpt lat="43.41499" lon="5.99081">
        <ele>247.98434</ele>
        <time>2015-01-14T13:34:32Z</time>
      </trkpt>
      <trkpt lat="43.41517" lon="5.99013">
        <ele>248.88394</ele>
        <time>2015-01-14T13:34:48Z</time>
      </trkpt>
      <trkpt lat="43.4152" lon="5.99">
        <ele>249.19156</ele>
        <time>2015-01-14T13:34:51Z</time>
      </trkpt>
      <trkpt lat="43.41523" lon="5.98977">
        <ele>249.30328</ele>
        <time>2015-01-14T13:34:57Z</time>
      </trkpt>
      <trkpt lat="43.41517" lon="5.98957">
        <ele>248.90846</ele>
        <time>2015-01-14T13:35:02Z</time>
      </trkpt>
      <trkpt lat="43.41508" lon="5.98934">
        <ele>248.42792</ele>
        <time>2015-01-14T13:35:08Z</time>
      </trkpt>
      <trkpt lat="43.41499" lon="5.98902">
        <ele>248.55548</ele>
        <time>2015-01-14T13:35:16Z</time>
      </trkpt>
      <trkpt lat="43.41491" lon="5.98869">
        <ele>249.73329</ele>
        <time>2015-01-14T13:35:24Z</time>
      </trkpt>
      <trkpt lat="43.4148" lon="5.98842">
        <ele>250.53093</ele>
        <time>2015-01-14T13:35:32Z</time>
      </trkpt>
      <trkpt lat="43.41475" lon="5.98834">
        <ele>250.66844</ele>
        <time>2015-01-14T13:35:35Z</time>
      </trkpt>
      <trkpt lat="43.41469" lon="5.9883">
        <ele>250.93372</ele>
        <time>2015-01-14T13:35:37Z</time>
      </trkpt>
      <trkpt lat="43.41454" lon="5.9881">
        <ele>252.41666</ele>
        <time>2015-01-14T13:35:43Z</time>
      </trkpt>
      <trkpt lat="43.41435" lon="5.98785">
        <ele>253.94525</ele>
        <time>2015-01-14T13:35:51Z</time>
      </trkpt>
      <trkpt lat="43.41422" lon="5.98769">
        <ele>254.82672</ele>
        <time>2015-01-14T13:35:57Z</time>
      </trkpt>
      <trkpt lat="43.41405" lon="5.98747">
        <ele>256.36145</ele>
        <time>2015-01-14T13:36:04Z</time>
      </trkpt>
      <trkpt lat="43.41371" lon="5.98705">
        <ele>259.25266</ele>
        <time>2015-01-14T13:36:17Z</time>
      </trkpt>
      <trkpt lat="43.41349" lon="5.98677">
        <ele>258.7381</ele>
        <time>2015-01-14T13:36:24Z</time>
      </trkpt>
      <trkpt lat="43.41324" lon="5.98654">
        <ele>257.61914</ele>
        <time>2015-01-14T13:36:31Z</time>
      </trkpt>
      <trkpt lat="43.4132" lon="5.98651">
        <ele>257.6084</ele>
        <time>2015-01-14T13:36:32Z</time>
      </trkpt>
      <trkpt lat="43.41298" lon="5.9864">
        <ele>256.67859</ele>
        <time>2015-01-14T13:36:38Z</time>
      </trkpt>
      <trkpt lat="43.41287" lon="5.98623">
        <ele>256.37741</ele>
        <time>2015-01-14T13:36:43Z</time>
      </trkpt>
      <trkpt lat="43.41282" lon="5.98601">
        <ele>256.45938</ele>
        <time>2015-01-14T13:36:49Z</time>
      </trkpt>
      <trkpt lat="43.41282" lon="5.98596">
        <ele>256.53918</ele>
        <time>2015-01-14T13:36:50Z</time>
      </trkpt>
      <trkpt lat="43.4128" lon="5.98581">
        <ele>256.6871</ele>
        <time>2015-01-14T13:36:54Z</time>
      </trkpt>
      <trkpt lat="43.41273" lon="5.98559">
        <ele>256.32956</ele>
        <time>2015-01-14T13:37:00Z</time>
      </trkpt>
      <trkpt lat="43.41271" lon="5.98554">
        <ele>256.10382</ele>
        <time>2015-01-14T13:37:04Z</time>
      </trkpt>
      <trkpt lat="43.41271" lon="5.98553">
        <ele>256.07489</ele>
        <time>2015-01-14T13:37:13Z</time>
      </trkpt>
      <trkpt lat="43.4127" lon="5.98553">
        <ele>256.02014</ele>
        <time>2015-01-14T13:37:52Z</time>
      </trkpt>
      <trkpt lat="43.4127" lon="5.98552">
        <ele>256.02142</ele>
        <time>2015-01-14T13:38:03Z</time>
      </trkpt>
      <trkpt lat="43.41264" lon="5.98548">
        <ele>255.17015</ele>
        <time>2015-01-14T13:38:14Z</time>
      </trkpt>
      <trkpt lat="43.41258" lon="5.98544">
        <ele>254.26582</ele>
        <time>2015-01-14T13:38:16Z</time>
      </trkpt>
      <trkpt lat="43.41249" lon="5.98537">
        <ele>253.09537</ele>
        <time>2015-01-14T13:38:19Z</time>
      </trkpt>
      <trkpt lat="43.41243" lon="5.98519">
        <ele>253.39291</ele>
        <time>2015-01-14T13:38:23Z</time>
      </trkpt>
      <trkpt lat="43.41241" lon="5.98484">
        <ele>253.6441</ele>
        <time>2015-01-14T13:38:30Z</time>
      </trkpt>
      <trkpt lat="43.41248" lon="5.98444">
        <ele>253.89258</ele>
        <time>2015-01-14T13:38:39Z</time>
      </trkpt>
      <trkpt lat="43.4125" lon="5.98432">
        <ele>253.99301</ele>
        <time>2015-01-14T13:38:42Z</time>
      </trkpt>
      <trkpt lat="43.41254" lon="5.98409">
        <ele>254.40977</ele>
        <time>2015-01-14T13:38:47Z</time>
      </trkpt>
      <trkpt lat="43.41255" lon="5.98404">
        <ele>254.39482</ele>
        <time>2015-01-14T13:38:48Z</time>
      </trkpt>
      <trkpt lat="43.41266" lon="5.98375">
        <ele>254.80473</ele>
        <time>2015-01-14T13:38:55Z</time>
      </trkpt>
      <trkpt lat="43.41282" lon="5.98357">
        <ele>255.61211</ele>
        <time>2015-01-14T13:39:02Z</time>
      </trkpt>
      <trkpt lat="43.41299" lon="5.9835">
        <ele>256.75848</ele>
        <time>2015-01-14T13:39:09Z</time>
      </trkpt>
      <trkpt lat="43.41308" lon="5.9834">
        <ele>256.78079</ele>
        <time>2015-01-14T13:39:14Z</time>
      </trkpt>
      <trkpt lat="43.41324" lon="5.98326">
        <ele>257.06659</ele>
        <time>2015-01-14T13:39:22Z</time>
      </trkpt>
      <trkpt lat="43.41335" lon="5.9831">
        <ele>257.03674</ele>
        <time>2015-01-14T13:39:29Z</time>
      </trkpt>
      <trkpt lat="43.41333" lon="5.98295">
        <ele>256.16638</ele>
        <time>2015-01-14T13:39:34Z</time>
      </trkpt>
      <trkpt lat="43.41326" lon="5.9828">
        <ele>255.54025</ele>
        <time>2015-01-14T13:39:40Z</time>
      </trkpt>
      <trkpt lat="43.41311" lon="5.98264">
        <ele>255.51498</ele>
        <time>2015-01-14T13:39:47Z</time>
      </trkpt>
      <trkpt lat="43.41298" lon="5.98251">
        <ele>256.14349</ele>
        <time>2015-01-14T13:39:54Z</time>
      </trkpt>
      <trkpt lat="43.4129" lon="5.98247">
        <ele>256.55731</ele>
        <time>2015-01-14T13:40:00Z</time>
      </trkpt>
      <trkpt lat="43.41287" lon="5.98245">
        <ele>256.66095</ele>
        <time>2015-01-14T13:40:03Z</time>
      </trkpt>
      <trkpt lat="43.41287" lon="5.98241">
        <ele>256.57608</ele>
        <time>2015-01-14T13:40:06Z</time>
      </trkpt>
      <trkpt lat="43.41288" lon="5.9824">
        <ele>256.50449</ele>
        <time>2015-01-14T13:40:07Z</time>
      </trkpt>
      <trkpt lat="43.41291" lon="5.98244">
        <ele>256.38974</ele>
        <time>2015-01-14T13:40:11Z</time>
      </trkpt>
      <trkpt lat="43.4129" lon="5.98246">
        <ele>256.49579</ele>
        <time>2015-01-14T13:40:13Z</time>
      </trkpt>
      <trkpt lat="43.41288" lon="5.98247">
        <ele>256.64746</ele>
        <time>2015-01-14T13:40:16Z</time>
      </trkpt>
      <trkpt lat="43.41285" lon="5.98244">
        <ele>256.77979</ele>
        <time>2015-01-14T13:40:21Z</time>
      </trkpt>
      <trkpt lat="43.41286" lon="5.98242">
        <ele>256.68521</ele>
        <time>2015-01-14T13:40:23Z</time>
      </trkpt>
      <trkpt lat="43.41286" lon="5.98241">
        <ele>256.64166</ele>
        <time>2015-01-14T13:40:29Z</time>
      </trkpt>
      <trkpt lat="43.41286" lon="5.98241">
        <ele>256.64066</ele>
        <time>2015-01-14T13:40:39Z</time>
      </trkpt>
      <trkpt lat="43.41286" lon="5.98241">
        <ele>256.64264</ele>
        <time>2015-01-14T13:40:44Z</time>
      </trkpt>
      <trkpt lat="43.41286" lon="5.98241">
        <ele>256.64761</ele>
        <time>2015-01-14T13:40:58Z</time>
      </trkpt>
      <trkpt lat="43.41286" lon="5.98244">
        <ele>256.68484</ele>
        <time>2015-01-14T13:41:16Z</time>
      </trkpt>
      <trkpt lat="43.41286" lon="5.98246">
        <ele>256.74176</ele>
        <time>2015-01-14T13:41:17Z</time>
      </trkpt>
      <trkpt lat="43.41279" lon="5.98253">
        <ele>257.14145</ele>
        <time>2015-01-14T13:41:22Z</time>
      </trkpt>
      <trkpt lat="43.41278" lon="5.98255">
        <ele>257.14856</ele>
        <time>2015-01-14T13:41:23Z</time>
      </trkpt>
      <trkpt lat="43.41274" lon="5.9826">
        <ele>257.10938</ele>
        <time>2015-01-14T13:41:27Z</time>
      </trkpt>
      <trkpt lat="43.41273" lon="5.98261">
        <ele>257.10876</ele>
        <time>2015-01-14T13:41:28Z</time>
      </trkpt>
      <trkpt lat="43.41264" lon="5.98268">
        <ele>257.07294</ele>
        <time>2015-01-14T13:41:34Z</time>
      </trkpt>
      <trkpt lat="43.41259" lon="5.9827">
        <ele>257.06595</ele>
        <time>2015-01-14T13:41:36Z</time>
      </trkpt>
      <trkpt lat="43.41237" lon="5.98281">
        <ele>257.33722</ele>
        <time>2015-01-14T13:41:42Z</time>
      </trkpt>
      <trkpt lat="43.41214" lon="5.98292">
        <ele>258.05991</ele>
        <time>2015-01-14T13:41:48Z</time>
      </trkpt>
      <trkpt lat="43.41211" lon="5.98294">
        <ele>258.11026</ele>
        <time>2015-01-14T13:41:49Z</time>
      </trkpt>
      <trkpt lat="43.4119" lon="5.98315">
        <ele>257.84363</ele>
        <time>2015-01-14T13:41:55Z</time>
      </trkpt>
      <trkpt lat="43.41171" lon="5.98344">
        <ele>256.74222</ele>
        <time>2015-01-14T13:42:02Z</time>
      </trkpt>
      <trkpt lat="43.4115" lon="5.98368">
        <ele>255.66234</ele>
        <time>2015-01-14T13:42:08Z</time>
      </trkpt>
      <trkpt lat="43.4113" lon="5.98389">
        <ele>255.16917</ele>
        <time>2015-01-14T13:42:13Z</time>
      </trkpt>
      <trkpt lat="43.41123" lon="5.98396">
        <ele>255.12012</ele>
        <time>2015-01-14T13:42:15Z</time>
      </trkpt>
      <trkpt lat="43.41101" lon="5.98416">
        <ele>255.51141</ele>
        <time>2015-01-14T13:42:21Z</time>
      </trkpt>
      <trkpt lat="43.41098" lon="5.9842">
        <ele>255.81012</ele>
        <time>2015-01-14T13:42:22Z</time>
      </trkpt>
      <trkpt lat="43.41077" lon="5.98443">
        <ele>256.70612</ele>
        <time>2015-01-14T13:42:29Z</time>
      </trkpt>
      <trkpt lat="43.41056" lon="5.98457">
        <ele>254.87631</ele>
        <time>2015-01-14T13:42:36Z</time>
      </trkpt>
      <trkpt lat="43.41054" lon="5.98458">
        <ele>254.69772</ele>
        <time>2015-01-14T13:42:37Z</time>
      </trkpt>
      <trkpt lat="43.41053" lon="5.9846">
        <ele>254.59558</ele>
        <time>2015-01-14T13:42:38Z</time>
      </trkpt>
      <trkpt lat="43.41053" lon="5.98467">
        <ele>254.57845</ele>
        <time>2015-01-14T13:42:40Z</time>
      </trkpt>
      <trkpt lat="43.41053" lon="5.98476">
        <ele>254.64604</ele>
        <time>2015-01-14T13:42:44Z</time>
      </trkpt>
      <trkpt lat="43.41054" lon="5.98484">
        <ele>254.7524</ele>
        <time>2015-01-14T13:42:47Z</time>
      </trkpt>
      <trkpt lat="43.41052" lon="5.9849">
        <ele>254.61298</ele>
        <time>2015-01-14T13:42:49Z</time>
      </trkpt>
      <trkpt lat="43.41052" lon="5.98493">
        <ele>254.62271</ele>
        <time>2015-01-14T13:42:50Z</time>
      </trkpt>
      <trkpt lat="43.41051" lon="5.985">
        <ele>254.5255</ele>
        <time>2015-01-14T13:42:52Z</time>
      </trkpt>
      <trkpt lat="43.4105" lon="5.9851">
        <ele>254.58679</ele>
        <time>2015-01-14T13:42:55Z</time>
      </trkpt>
      <trkpt lat="43.41051" lon="5.98526">
        <ele>254.85968</ele>
        <time>2015-01-14T13:43:00Z</time>
      </trkpt>
      <trkpt lat="43.41051" lon="5.98529">
        <ele>254.98813</ele>
        <time>2015-01-14T13:43:01Z</time>
      </trkpt>
      <trkpt lat="43.41055" lon="5.98539">
        <ele>255.59053</ele>
        <time>2015-01-14T13:43:05Z</time>
      </trkpt>
      <trkpt lat="43.41058" lon="5.98542">
        <ele>255.91946</ele>
        <time>2015-01-14T13:43:07Z</time>
      </trkpt>
      <trkpt lat="43.41061" lon="5.98549">
        <ele>256.41025</ele>
        <time>2015-01-14T13:43:10Z</time>
      </trkpt>
      <trkpt lat="43.41066" lon="5.98557">
        <ele>257.1622</ele>
        <time>2015-01-14T13:43:14Z</time>
      </trkpt>
      <trkpt lat="43.41067" lon="5.98559">
        <ele>257.33392</ele>
        <time>2015-01-14T13:43:15Z</time>
      </trkpt>
      <trkpt lat="43.4107" lon="5.98563">
        <ele>257.84937</ele>
        <time>2015-01-14T13:43:18Z</time>
      </trkpt>
      <trkpt lat="43.41074" lon="5.98569">
        <ele>258.4686</ele>
        <time>2015-01-14T13:43:21Z</time>
      </trkpt>
      <trkpt lat="43.41077" lon="5.98573">
        <ele>258.99939</ele>
        <time>2015-01-14T13:43:23Z</time>
      </trkpt>
      <trkpt lat="43.41084" lon="5.98581">
        <ele>259.89047</ele>
        <time>2015-01-14T13:43:27Z</time>
      </trkpt>
      <trkpt lat="43.41088" lon="5.98582">
        <ele>259.59558</ele>
        <time>2015-01-14T13:43:29Z</time>
      </trkpt>
      <trkpt lat="43.41096" lon="5.98587">
        <ele>259.06296</ele>
        <time>2015-01-14T13:43:35Z</time>
      </trkpt>
      <trkpt lat="43.41096" lon="5.98587">
        <ele>259.01199</ele>
        <time>2015-01-14T13:43:41Z</time>
      </trkpt>
      <trkpt lat="43.41096" lon="5.98587">
        <ele>259.01199</ele>
        <time>2015-01-14T13:43:48Z</time>
      </trkpt>
      <trkpt lat="43.41099" lon="5.98588">
        <ele>258.81949</ele>
        <time>2015-01-14T13:43:52Z</time>
      </trkpt>
      <trkpt lat="43.41101" lon="5.9859">
        <ele>258.70374</ele>
        <time>2015-01-14T13:43:54Z</time>
      </trkpt>
      <trkpt lat="43.41105" lon="5.98603">
        <ele>258.40308</ele>
        <time>2015-01-14T13:44:00Z</time>
      </trkpt>
      <trkpt lat="43.41114" lon="5.98615">
        <ele>258.02551</ele>
        <time>2015-01-14T13:44:06Z</time>
      </trkpt>
      <trkpt lat="43.41122" lon="5.98631">
        <ele>257.92712</ele>
        <time>2015-01-14T13:44:13Z</time>
      </trkpt>
      <trkpt lat="43.4113" lon="5.98644">
        <ele>258.0416</ele>
        <time>2015-01-14T13:44:20Z</time>
      </trkpt>
      <trkpt lat="43.41132" lon="5.98657">
        <ele>258.35077</ele>
        <time>2015-01-14T13:44:26Z</time>
      </trkpt>
      <trkpt lat="43.41133" lon="5.9866">
        <ele>258.41391</ele>
        <time>2015-01-14T13:44:27Z</time>
      </trkpt>
      <trkpt lat="43.41138" lon="5.9867">
        <ele>258.91708</ele>
        <time>2015-01-14T13:44:32Z</time>
      </trkpt>
      <trkpt lat="43.41141" lon="5.98674">
        <ele>259.23901</ele>
        <time>2015-01-14T13:44:34Z</time>
      </trkpt>
      <trkpt lat="43.41147" lon="5.98681">
        <ele>259.90848</ele>
        <time>2015-01-14T13:44:38Z</time>
      </trkpt>
      <trkpt lat="43.41153" lon="5.98687">
        <ele>260.68372</ele>
        <time>2015-01-14T13:44:42Z</time>
      </trkpt>
      <trkpt lat="43.41155" lon="5.98698">
        <ele>261.72723</ele>
        <time>2015-01-14T13:44:46Z</time>
      </trkpt>
      <trkpt lat="43.41154" lon="5.98711">
        <ele>262.89886</ele>
        <time>2015-01-14T13:44:51Z</time>
      </trkpt>
      <trkpt lat="43.41155" lon="5.98717">
        <ele>263.52466</ele>
        <time>2015-01-14T13:44:54Z</time>
      </trkpt>
      <trkpt lat="43.4116" lon="5.98729">
        <ele>265.11475</ele>
        <time>2015-01-14T13:45:03Z</time>
      </trkpt>
      <trkpt lat="43.41162" lon="5.98732">
        <ele>265.64896</ele>
        <time>2015-01-14T13:45:06Z</time>
      </trkpt>
      <trkpt lat="43.41165" lon="5.98734">
        <ele>266.13474</ele>
        <time>2015-01-14T13:45:09Z</time>
      </trkpt>
      <trkpt lat="43.41165" lon="5.98734">
        <ele>266.11459</ele>
        <time>2015-01-14T13:45:10Z</time>
      </trkpt>
      <trkpt lat="43.41165" lon="5.98734">
        <ele>266.10455</ele>
        <time>2015-01-14T13:45:12Z</time>
      </trkpt>
      <trkpt lat="43.41165" lon="5.98734">
        <ele>266.15262</ele>
        <time>2015-01-14T13:45:16Z</time>
      </trkpt>
      <trkpt lat="43.41165" lon="5.98734">
        <ele>266.15262</ele>
        <time>2015-01-14T13:45:30Z</time>
      </trkpt>
      <trkpt lat="43.41167" lon="5.98735">
        <ele>266.42535</ele>
        <time>2015-01-14T13:45:33Z</time>
      </trkpt>
      <trkpt lat="43.41169" lon="5.98737">
        <ele>266.51044</ele>
        <time>2015-01-14T13:45:35Z</time>
      </trkpt>
      <trkpt lat="43.41171" lon="5.98737">
        <ele>266.42053</ele>
        <time>2015-01-14T13:45:37Z</time>
      </trkpt>
      <trkpt lat="43.41174" lon="5.98738">
        <ele>266.40497</ele>
        <time>2015-01-14T13:45:40Z</time>
      </trkpt>
      <trkpt lat="43.41175" lon="5.98738">
        <ele>266.3472</ele>
        <time>2015-01-14T13:45:41Z</time>
      </trkpt>
      <trkpt lat="43.4118" lon="5.98739">
        <ele>266.31094</ele>
        <time>2015-01-14T13:45:45Z</time>
      </trkpt>
      <trkpt lat="43.41181" lon="5.98741">
        <ele>266.4552</ele>
        <time>2015-01-14T13:45:48Z</time>
      </trkpt>
      <trkpt lat="43.41181" lon="5.98741">
        <ele>266.50424</ele>
        <time>2015-01-14T13:45:58Z</time>
      </trkpt>
      <trkpt lat="43.41182" lon="5.98745">
        <ele>266.85284</ele>
        <time>2015-01-14T13:46:01Z</time>
      </trkpt>
      <trkpt lat="43.41183" lon="5.98747">
        <ele>267.10681</ele>
        <time>2015-01-14T13:46:03Z</time>
      </trkpt>
      <trkpt lat="43.41185" lon="5.98755">
        <ele>267.56146</ele>
        <time>2015-01-14T13:46:09Z</time>
      </trkpt>
      <trkpt lat="43.41185" lon="5.98761">
        <ele>267.83582</ele>
        <time>2015-01-14T13:46:13Z</time>
      </trkpt>
      <trkpt lat="43.41185" lon="5.98763">
        <ele>267.91388</ele>
        <time>2015-01-14T13:46:14Z</time>
      </trkpt>
      <trkpt lat="43.41186" lon="5.98764">
        <ele>267.95892</ele>
        <time>2015-01-14T13:46:15Z</time>
      </trkpt>
      <trkpt lat="43.41186" lon="5.98768">
        <ele>268.13062</ele>
        <time>2015-01-14T13:46:17Z</time>
      </trkpt>
      <trkpt lat="43.41185" lon="5.98773">
        <ele>268.43079</ele>
        <time>2015-01-14T13:46:20Z</time>
      </trkpt>
      <trkpt lat="43.41185" lon="5.98785">
        <ele>268.95941</ele>
        <time>2015-01-14T13:46:26Z</time>
      </trkpt>
      <trkpt lat="43.41186" lon="5.98793">
        <ele>269.32599</ele>
        <time>2015-01-14T13:46:30Z</time>
      </trkpt>
      <trkpt lat="43.41186" lon="5.98805">
        <ele>269.9064</ele>
        <time>2015-01-14T13:46:36Z</time>
      </trkpt>
      <trkpt lat="43.41185" lon="5.98808">
        <ele>270.03055</ele>
        <time>2015-01-14T13:46:37Z</time>
      </trkpt>
      <trkpt lat="43.41184" lon="5.98821">
        <ele>270.64514</ele>
        <time>2015-01-14T13:46:42Z</time>
      </trkpt>
      <trkpt lat="43.4118" lon="5.98859">
        <ele>269.97519</ele>
        <time>2015-01-14T13:46:51Z</time>
      </trkpt>
      <trkpt lat="43.41181" lon="5.98863">
        <ele>269.79773</ele>
        <time>2015-01-14T13:46:52Z</time>
      </trkpt>
      <trkpt lat="43.41182" lon="5.98869">
        <ele>269.55899</ele>
        <time>2015-01-14T13:46:53Z</time>
      </trkpt>
      <trkpt lat="43.4119" lon="5.98887">
        <ele>268.89673</ele>
        <time>2015-01-14T13:46:57Z</time>
      </trkpt>
      <trkpt lat="43.41193" lon="5.98891">
        <ele>268.78284</ele>
        <time>2015-01-14T13:46:58Z</time>
      </trkpt>
      <trkpt lat="43.41197" lon="5.98893">
        <ele>268.76849</ele>
        <time>2015-01-14T13:47:00Z</time>
      </trkpt>
      <trkpt lat="43.41206" lon="5.98898">
        <ele>268.76288</ele>
        <time>2015-01-14T13:47:05Z</time>
      </trkpt>
      <trkpt lat="43.41207" lon="5.98897">
        <ele>268.79315</ele>
        <time>2015-01-14T13:47:10Z</time>
      </trkpt>
      <trkpt lat="43.41207" lon="5.98897">
        <ele>268.78305</ele>
        <time>2015-01-14T13:47:11Z</time>
      </trkpt>
      <trkpt lat="43.41207" lon="5.98897">
        <ele>268.78909</ele>
        <time>2015-01-14T13:47:27Z</time>
      </trkpt>
      <trkpt lat="43.41207" lon="5.98897">
        <ele>268.78714</ele>
        <time>2015-01-14T13:47:36Z</time>
      </trkpt>
      <trkpt lat="43.41208" lon="5.98897">
        <ele>268.81128</ele>
        <time>2015-01-14T13:47:46Z</time>
      </trkpt>
      <trkpt lat="43.41208" lon="5.98897">
        <ele>268.81128</ele>
        <time>2015-01-14T13:48:04Z</time>
      </trkpt>
      <trkpt lat="43.41208" lon="5.98897">
        <ele>268.79922</ele>
        <time>2015-01-14T13:48:23Z</time>
      </trkpt>
      <trkpt lat="43.41208" lon="5.98897">
        <ele>268.79321</ele>
        <time>2015-01-14T13:48:40Z</time>
      </trkpt>
      <trkpt lat="43.41208" lon="5.98901">
        <ele>268.64459</ele>
        <time>2015-01-14T13:48:47Z</time>
      </trkpt>
      <trkpt lat="43.41207" lon="5.98903">
        <ele>268.55786</ele>
        <time>2015-01-14T13:48:48Z</time>
      </trkpt>
      <trkpt lat="43.4121" lon="5.98916">
        <ele>268.04669</ele>
        <time>2015-01-14T13:48:51Z</time>
      </trkpt>
      <trkpt lat="43.41212" lon="5.98934">
        <ele>267.19473</ele>
        <time>2015-01-14T13:48:54Z</time>
      </trkpt>
      <trkpt lat="43.41214" lon="5.98946">
        <ele>266.56998</ele>
        <time>2015-01-14T13:48:56Z</time>
      </trkpt>
      <trkpt lat="43.41212" lon="5.98952">
        <ele>266.21851</ele>
        <time>2015-01-14T13:48:57Z</time>
      </trkpt>
      <trkpt lat="43.41205" lon="5.98974">
        <ele>264.79431</ele>
        <time>2015-01-14T13:49:01Z</time>
      </trkpt>
      <trkpt lat="43.41203" lon="5.98986">
        <ele>264.1084</ele>
        <time>2015-01-14T13:49:03Z</time>
      </trkpt>
      <trkpt lat="43.41204" lon="5.98992">
        <ele>263.79547</ele>
        <time>2015-01-14T13:49:04Z</time>
      </trkpt>
      <trkpt lat="43.41206" lon="5.99004">
        <ele>263.24008</ele>
        <time>2015-01-14T13:49:06Z</time>
      </trkpt>
      <trkpt lat="43.41208" lon="5.9901">
        <ele>262.99289</ele>
        <time>2015-01-14T13:49:07Z</time>
      </trkpt>
      <trkpt lat="43.41211" lon="5.99032">
        <ele>262.06134</ele>
        <time>2015-01-14T13:49:10Z</time>
      </trkpt>
      <trkpt lat="43.41213" lon="5.99045">
        <ele>261.51889</ele>
        <time>2015-01-14T13:49:12Z</time>
      </trkpt>
      <trkpt lat="43.41211" lon="5.99059">
        <ele>260.75214</ele>
        <time>2015-01-14T13:49:14Z</time>
      </trkpt>
      <trkpt lat="43.41211" lon="5.99072">
        <ele>260.125</ele>
        <time>2015-01-14T13:49:16Z</time>
      </trkpt>
      <trkpt lat="43.41208" lon="5.99096">
        <ele>259.01639</ele>
        <time>2015-01-14T13:49:20Z</time>
      </trkpt>
      <trkpt lat="43.41208" lon="5.99102">
        <ele>258.82791</ele>
        <time>2015-01-14T13:49:21Z</time>
      </trkpt>
      <trkpt lat="43.41209" lon="5.99112">
        <ele>258.47464</ele>
        <time>2015-01-14T13:49:24Z</time>
      </trkpt>
      <trkpt lat="43.41211" lon="5.99123">
        <ele>258.09369</ele>
        <time>2015-01-14T13:49:29Z</time>
      </trkpt>
      <trkpt lat="43.41211" lon="5.99125">
        <ele>258.02298</ele>
        <time>2015-01-14T13:49:31Z</time>
      </trkpt>
      <trkpt lat="43.41211" lon="5.99126">
        <ele>257.97568</ele>
        <time>2015-01-14T13:49:34Z</time>
      </trkpt>
      <trkpt lat="43.41211" lon="5.99126">
        <ele>257.98282</ele>
        <time>2015-01-14T13:49:39Z</time>
      </trkpt>
      <trkpt lat="43.41211" lon="5.99126">
        <ele>257.98282</ele>
        <time>2015-01-14T13:49:54Z</time>
      </trkpt>
      <trkpt lat="43.41211" lon="5.99128">
        <ele>257.90744</ele>
        <time>2015-01-14T13:51:26Z</time>
      </trkpt>
      <trkpt lat="43.4121" lon="5.99127">
        <ele>257.92953</ele>
        <time>2015-01-14T13:51:34Z</time>
      </trkpt>
      <trkpt lat="43.41211" lon="5.99125">
        <ele>258.00876</ele>
        <time>2015-01-14T13:51:41Z</time>
      </trkpt>
      <trkpt lat="43.41211" lon="5.99121">
        <ele>258.16522</ele>
        <time>2015-01-14T13:51:47Z</time>
      </trkpt>
      <trkpt lat="43.41211" lon="5.99117">
        <ele>258.33331</ele>
        <time>2015-01-14T13:51:49Z</time>
      </trkpt>
      <trkpt lat="43.41213" lon="5.99104">
        <ele>258.86014</ele>
        <time>2015-01-14T13:51:54Z</time>
      </trkpt>
      <trkpt lat="43.41214" lon="5.99095">
        <ele>259.26199</ele>
        <time>2015-01-14T13:51:57Z</time>
      </trkpt>
      <trkpt lat="43.41217" lon="5.99086">
        <ele>259.70416</ele>
        <time>2015-01-14T13:52:00Z</time>
      </trkpt>
      <trkpt lat="43.41218" lon="5.99083">
        <ele>259.88239</ele>
        <time>2015-01-14T13:52:01Z</time>
      </trkpt>
      <trkpt lat="43.41219" lon="5.99079">
        <ele>260.05862</ele>
        <time>2015-01-14T13:52:02Z</time>
      </trkpt>
      <trkpt lat="43.4122" lon="5.9907">
        <ele>260.54843</ele>
        <time>2015-01-14T13:52:05Z</time>
      </trkpt>
      <trkpt lat="43.41222" lon="5.99058">
        <ele>261.2305</ele>
        <time>2015-01-14T13:52:09Z</time>
      </trkpt>
      <trkpt lat="43.4122" lon="5.99047">
        <ele>261.65393</ele>
        <time>2015-01-14T13:52:13Z</time>
      </trkpt>
      <trkpt lat="43.41219" lon="5.9904">
        <ele>261.95605</ele>
        <time>2015-01-14T13:52:15Z</time>
      </trkpt>
      <trkpt lat="43.41217" lon="5.99023">
        <ele>262.71823</ele>
        <time>2015-01-14T13:52:21Z</time>
      </trkpt>
      <trkpt lat="43.41215" lon="5.99013">
        <ele>263.12335</ele>
        <time>2015-01-14T13:52:25Z</time>
      </trkpt>
      <trkpt lat="43.41217" lon="5.98996">
        <ele>264.02344</ele>
        <time>2015-01-14T13:52:31Z</time>
      </trkpt>
      <trkpt lat="43.41219" lon="5.98986">
        <ele>264.62689</ele>
        <time>2015-01-14T13:52:36Z</time>
      </trkpt>
      <trkpt lat="43.41221" lon="5.98978">
        <ele>265.10446</ele>
        <time>2015-01-14T13:52:40Z</time>
      </trkpt>
      <trkpt lat="43.41223" lon="5.98973">
        <ele>265.40714</ele>
        <time>2015-01-14T13:52:43Z</time>
      </trkpt>
      <trkpt lat="43.41226" lon="5.98959">
        <ele>266.22699</ele>
        <time>2015-01-14T13:52:51Z</time>
      </trkpt>
      <trkpt lat="43.41225" lon="5.98949">
        <ele>266.70721</ele>
        <time>2015-01-14T13:52:56Z</time>
      </trkpt>
      <trkpt lat="43.41223" lon="5.98944">
        <ele>266.92731</ele>
        <time>2015-01-14T13:52:59Z</time>
      </trkpt>
      <trkpt lat="43.41221" lon="5.98935">
        <ele>267.36203</ele>
        <time>2015-01-14T13:53:04Z</time>
      </trkpt>
      <trkpt lat="43.4122" lon="5.98933">
        <ele>267.44888</ele>
        <time>2015-01-14T13:53:05Z</time>
      </trkpt>
      <trkpt lat="43.41219" lon="5.98921">
        <ele>268.02734</ele>
        <time>2015-01-14T13:53:10Z</time>
      </trkpt>
      <trkpt lat="43.41218" lon="5.98912">
        <ele>268.43436</ele>
        <time>2015-01-14T13:53:16Z</time>
      </trkpt>
      <trkpt lat="43.41217" lon="5.98909">
        <ele>268.539</ele>
        <time>2015-01-14T13:53:18Z</time>
      </trkpt>
      <trkpt lat="43.41208" lon="5.98903">
        <ele>268.55859</ele>
        <time>2015-01-14T13:53:23Z</time>
      </trkpt>
      <trkpt lat="43.41206" lon="5.98902">
        <ele>268.54886</ele>
        <time>2015-01-14T13:53:24Z</time>
      </trkpt>
      <trkpt lat="43.41199" lon="5.989">
        <ele>268.52005</ele>
        <time>2015-01-14T13:53:27Z</time>
      </trkpt>
      <trkpt lat="43.41188" lon="5.98882">
        <ele>269.09018</ele>
        <time>2015-01-14T13:53:36Z</time>
      </trkpt>
      <trkpt lat="43.41186" lon="5.98871">
        <ele>269.55322</ele>
        <time>2015-01-14T13:53:41Z</time>
      </trkpt>
      <trkpt lat="43.41187" lon="5.98861">
        <ele>269.98138</ele>
        <time>2015-01-14T13:53:45Z</time>
      </trkpt>
      <trkpt lat="43.41188" lon="5.98856">
        <ele>270.21881</ele>
        <time>2015-01-14T13:53:47Z</time>
      </trkpt>
      <trkpt lat="43.4119" lon="5.98837">
        <ele>271.10272</ele>
        <time>2015-01-14T13:53:54Z</time>
      </trkpt>
      <trkpt lat="43.41191" lon="5.98827">
        <ele>270.95361</ele>
        <time>2015-01-14T13:53:58Z</time>
      </trkpt>
      <trkpt lat="43.41191" lon="5.98819">
        <ele>270.58112</ele>
        <time>2015-01-14T13:54:01Z</time>
      </trkpt>
      <trkpt lat="43.41193" lon="5.98807">
        <ele>269.96008</ele>
        <time>2015-01-14T13:54:05Z</time>
      </trkpt>
      <trkpt lat="43.41191" lon="5.98801">
        <ele>269.67606</ele>
        <time>2015-01-14T13:54:07Z</time>
      </trkpt>
      <trkpt lat="43.4119" lon="5.9879">
        <ele>269.12766</ele>
        <time>2015-01-14T13:54:10Z</time>
      </trkpt>
      <trkpt lat="43.41189" lon="5.98785">
        <ele>268.91013</ele>
        <time>2015-01-14T13:54:12Z</time>
      </trkpt>
      <trkpt lat="43.41189" lon="5.98784">
        <ele>268.84503</ele>
        <time>2015-01-14T13:54:13Z</time>
      </trkpt>
      <trkpt lat="43.41191" lon="5.98771">
        <ele>268.1796</ele>
        <time>2015-01-14T13:54:17Z</time>
      </trkpt>
      <trkpt lat="43.41191" lon="5.98767">
        <ele>267.99799</ele>
        <time>2015-01-14T13:54:18Z</time>
      </trkpt>
      <trkpt lat="43.41191" lon="5.9876">
        <ele>267.62512</ele>
        <time>2015-01-14T13:54:21Z</time>
      </trkpt>
      <trkpt lat="43.4119" lon="5.98758">
        <ele>267.56564</ele>
        <time>2015-01-14T13:54:22Z</time>
      </trkpt>
      <trkpt lat="43.41186" lon="5.9875">
        <ele>267.29822</ele>
        <time>2015-01-14T13:54:25Z</time>
      </trkpt>
      <trkpt lat="43.41184" lon="5.98746">
        <ele>266.91565</ele>
        <time>2015-01-14T13:54:27Z</time>
      </trkpt>
      <trkpt lat="43.41182" lon="5.98745">
        <ele>266.9166</ele>
        <time>2015-01-14T13:54:28Z</time>
      </trkpt>
      <trkpt lat="43.41177" lon="5.98744">
        <ele>266.88654</ele>
        <time>2015-01-14T13:54:31Z</time>
      </trkpt>
      <trkpt lat="43.41175" lon="5.98744">
        <ele>267.00195</ele>
        <time>2015-01-14T13:54:32Z</time>
      </trkpt>
      <trkpt lat="43.41175" lon="5.98744">
        <ele>267.00076</ele>
        <time>2015-01-14T13:54:36Z</time>
      </trkpt>
      <trkpt lat="43.41175" lon="5.98741">
        <ele>266.68866</ele>
        <time>2015-01-14T13:54:45Z</time>
      </trkpt>
      <trkpt lat="43.41178" lon="5.98742">
        <ele>266.66736</ele>
        <time>2015-01-14T13:54:48Z</time>
      </trkpt>
      <trkpt lat="43.4118" lon="5.98741">
        <ele>266.53772</ele>
        <time>2015-01-14T13:54:51Z</time>
      </trkpt>
      <trkpt lat="43.41183" lon="5.98745">
        <ele>266.77982</ele>
        <time>2015-01-14T13:54:57Z</time>
      </trkpt>
      <trkpt lat="43.41185" lon="5.98748">
        <ele>267.09909</ele>
        <time>2015-01-14T13:55:02Z</time>
      </trkpt>
      <trkpt lat="43.41186" lon="5.98751">
        <ele>267.34256</ele>
        <time>2015-01-14T13:55:05Z</time>
      </trkpt>
      <trkpt lat="43.41188" lon="5.98753">
        <ele>267.37167</ele>
        <time>2015-01-14T13:55:11Z</time>
      </trkpt>
      <trkpt lat="43.41187" lon="5.98756">
        <ele>267.54626</ele>
        <time>2015-01-14T13:55:17Z</time>
      </trkpt>
      <trkpt lat="43.41187" lon="5.98757">
        <ele>267.60727</ele>
        <time>2015-01-14T13:55:25Z</time>
      </trkpt>
      <trkpt lat="43.41187" lon="5.98757">
        <ele>267.60953</ele>
        <time>2015-01-14T13:55:36Z</time>
      </trkpt>
      <trkpt lat="43.41187" lon="5.98757">
        <ele>267.6163</ele>
        <time>2015-01-14T13:57:24Z</time>
      </trkpt>
      <trkpt lat="43.41187" lon="5.98757">
        <ele>267.62311</ele>
        <time>2015-01-14T13:57:47Z</time>
      </trkpt>
      <trkpt lat="43.41187" lon="5.98757">
        <ele>267.62085</ele>
        <time>2015-01-14T13:58:00Z</time>
      </trkpt>
      <trkpt lat="43.41187" lon="5.98757">
        <ele>267.62085</ele>
        <time>2015-01-14T13:58:21Z</time>
      </trkpt>
      <trkpt lat="43.41187" lon="5.98757">
        <ele>267.6163</ele>
        <time>2015-01-14T13:58:52Z</time>
      </trkpt>
      <trkpt lat="43.41187" lon="5.98755">
        <ele>267.49277</ele>
        <time>2015-01-14T13:58:55Z</time>
      </trkpt>
      <trkpt lat="43.41187" lon="5.98753">
        <ele>267.42404</ele>
        <time>2015-01-14T13:58:56Z</time>
      </trkpt>
      <trkpt lat="43.41181" lon="5.98741">
        <ele>266.39526</ele>
        <time>2015-01-14T13:59:01Z</time>
      </trkpt>
      <trkpt lat="43.41169" lon="5.98736">
        <ele>266.4277</ele>
        <time>2015-01-14T13:59:06Z</time>
      </trkpt>
      <trkpt lat="43.41165" lon="5.98733">
        <ele>265.92838</ele>
        <time>2015-01-14T13:59:07Z</time>
      </trkpt>
      <trkpt lat="43.41162" lon="5.98729">
        <ele>265.31155</ele>
        <time>2015-01-14T13:59:08Z</time>
      </trkpt>
      <trkpt lat="43.41159" lon="5.98724">
        <ele>264.56662</ele>
        <time>2015-01-14T13:59:09Z</time>
      </trkpt>
      <trkpt lat="43.41156" lon="5.98703">
        <ele>262.30334</ele>
        <time>2015-01-14T13:59:12Z</time>
      </trkpt>
      <trkpt lat="43.41154" lon="5.98684">
        <ele>260.41031</ele>
        <time>2015-01-14T13:59:15Z</time>
      </trkpt>
      <trkpt lat="43.41152" lon="5.98681">
        <ele>260.09979</ele>
        <time>2015-01-14T13:59:16Z</time>
      </trkpt>
      <trkpt lat="43.41148" lon="5.98678">
        <ele>259.69305</ele>
        <time>2015-01-14T13:59:17Z</time>
      </trkpt>
      <trkpt lat="43.41141" lon="5.98669">
        <ele>258.88651</ele>
        <time>2015-01-14T13:59:19Z</time>
      </trkpt>
      <trkpt lat="43.41138" lon="5.98663">
        <ele>258.55585</ele>
        <time>2015-01-14T13:59:20Z</time>
      </trkpt>
      <trkpt lat="43.41132" lon="5.98643">
        <ele>257.98102</ele>
        <time>2015-01-14T13:59:23Z</time>
      </trkpt>
      <trkpt lat="43.41129" lon="5.98636">
        <ele>257.86563</ele>
        <time>2015-01-14T13:59:24Z</time>
      </trkpt>
      <trkpt lat="43.41121" lon="5.98622">
        <ele>257.84799</ele>
        <time>2015-01-14T13:59:26Z</time>
      </trkpt>
      <trkpt lat="43.41109" lon="5.98605">
        <ele>258.20804</ele>
        <time>2015-01-14T13:59:29Z</time>
      </trkpt>
      <trkpt lat="43.41106" lon="5.98599">
        <ele>258.32645</ele>
        <time>2015-01-14T13:59:30Z</time>
      </trkpt>
      <trkpt lat="43.41104" lon="5.98593">
        <ele>258.49747</ele>
        <time>2015-01-14T13:59:31Z</time>
      </trkpt>
      <trkpt lat="43.411" lon="5.98588">
        <ele>258.74814</ele>
        <time>2015-01-14T13:59:32Z</time>
      </trkpt>
      <trkpt lat="43.41085" lon="5.98581">
        <ele>259.82379</ele>
        <time>2015-01-14T13:59:35Z</time>
      </trkpt>
      <trkpt lat="43.41074" lon="5.98566">
        <ele>258.3924</ele>
        <time>2015-01-14T13:59:38Z</time>
      </trkpt>
      <trkpt lat="43.41071" lon="5.98561">
        <ele>257.86548</ele>
        <time>2015-01-14T13:59:39Z</time>
      </trkpt>
      <trkpt lat="43.41059" lon="5.98543">
        <ele>256.11337</ele>
        <time>2015-01-14T13:59:42Z</time>
      </trkpt>
      <trkpt lat="43.41056" lon="5.98536">
        <ele>255.63451</ele>
        <time>2015-01-14T13:59:43Z</time>
      </trkpt>
      <trkpt lat="43.41053" lon="5.98529">
        <ele>255.2173</ele>
        <time>2015-01-14T13:59:44Z</time>
      </trkpt>
      <trkpt lat="43.41054" lon="5.98526">
        <ele>255.25186</ele>
        <time>2015-01-14T13:59:45Z</time>
      </trkpt>
      <trkpt lat="43.41055" lon="5.98523">
        <ele>255.29921</ele>
        <time>2015-01-14T13:59:46Z</time>
      </trkpt>
      <trkpt lat="43.41053" lon="5.98517">
        <ele>254.97852</ele>
        <time>2015-01-14T13:59:48Z</time>
      </trkpt>
      <trkpt lat="43.41053" lon="5.98514">
        <ele>254.93701</ele>
        <time>2015-01-14T13:59:49Z</time>
      </trkpt>
      <trkpt lat="43.41053" lon="5.98511">
        <ele>254.93135</ele>
        <time>2015-01-14T13:59:50Z</time>
      </trkpt>
      <trkpt lat="43.41056" lon="5.98498">
        <ele>255.04613</ele>
        <time>2015-01-14T13:59:54Z</time>
      </trkpt>
      <trkpt lat="43.41056" lon="5.98493">
        <ele>255.02576</ele>
        <time>2015-01-14T13:59:55Z</time>
      </trkpt>
      <trkpt lat="43.41054" lon="5.98482">
        <ele>254.78259</ele>
        <time>2015-01-14T13:59:57Z</time>
      </trkpt>
      <trkpt lat="43.41054" lon="5.98471">
        <ele>254.70784</ele>
        <time>2015-01-14T14:00:00Z</time>
      </trkpt>
      <trkpt lat="43.41053" lon="5.98472">
        <ele>254.67075</ele>
        <time>2015-01-14T14:00:04Z</time>
      </trkpt>
      <trkpt lat="43.41054" lon="5.98469">
        <ele>254.7007</ele>
        <time>2015-01-14T14:00:19Z</time>
      </trkpt>
      <trkpt lat="43.41053" lon="5.98468">
        <ele>254.659</ele>
        <time>2015-01-14T14:00:20Z</time>
      </trkpt>
      <trkpt lat="43.41052" lon="5.98468">
        <ele>254.54485</ele>
        <time>2015-01-14T14:00:21Z</time>
      </trkpt>
      <trkpt lat="43.41052" lon="5.98469">
        <ele>254.54819</ele>
        <time>2015-01-14T14:00:24Z</time>
      </trkpt>
      <trkpt lat="43.41052" lon="5.98474">
        <ele>254.52509</ele>
        <time>2015-01-14T14:00:35Z</time>
      </trkpt>
      <trkpt lat="43.41053" lon="5.98476">
        <ele>254.60675</ele>
        <time>2015-01-14T14:00:36Z</time>
      </trkpt>
      <trkpt lat="43.41053" lon="5.98483">
        <ele>254.67003</ele>
        <time>2015-01-14T14:00:39Z</time>
      </trkpt>
      <trkpt lat="43.41053" lon="5.98486">
        <ele>254.71953</ele>
        <time>2015-01-14T14:00:40Z</time>
      </trkpt>
      <trkpt lat="43.41053" lon="5.98498">
        <ele>254.71957</ele>
        <time>2015-01-14T14:00:45Z</time>
      </trkpt>
      <trkpt lat="43.4105" lon="5.98513">
        <ele>254.57738</ele>
        <time>2015-01-14T14:00:49Z</time>
      </trkpt>
      <trkpt lat="43.41045" lon="5.98521">
        <ele>254.13496</ele>
        <time>2015-01-14T14:00:52Z</time>
      </trkpt>
      <trkpt lat="43.41034" lon="5.98538">
        <ele>252.98846</ele>
        <time>2015-01-14T14:00:57Z</time>
      </trkpt>
      <trkpt lat="43.4103" lon="5.98542">
        <ele>252.61884</ele>
        <time>2015-01-14T14:00:59Z</time>
      </trkpt>
      <trkpt lat="43.41027" lon="5.98546">
        <ele>252.32779</ele>
        <time>2015-01-14T14:01:01Z</time>
      </trkpt>
      <trkpt lat="43.41018" lon="5.98561">
        <ele>251.29504</ele>
        <time>2015-01-14T14:01:07Z</time>
      </trkpt>
      <trkpt lat="43.41008" lon="5.98582">
        <ele>250.10182</ele>
        <time>2015-01-14T14:01:14Z</time>
      </trkpt>
      <trkpt lat="43.41003" lon="5.98601">
        <ele>250.62166</ele>
        <time>2015-01-14T14:01:20Z</time>
      </trkpt>
      <trkpt lat="43.41001" lon="5.9861">
        <ele>250.99034</ele>
        <time>2015-01-14T14:01:25Z</time>
      </trkpt>
      <trkpt lat="43.40994" lon="5.98631">
        <ele>251.53958</ele>
        <time>2015-01-14T14:01:32Z</time>
      </trkpt>
      <trkpt lat="43.40992" lon="5.98636">
        <ele>251.61099</ele>
        <time>2015-01-14T14:01:33Z</time>
      </trkpt>
      <trkpt lat="43.40987" lon="5.98656">
        <ele>252.12326</ele>
        <time>2015-01-14T14:01:37Z</time>
      </trkpt>
      <trkpt lat="43.4098" lon="5.98687">
        <ele>251.52133</ele>
        <time>2015-01-14T14:01:44Z</time>
      </trkpt>
      <trkpt lat="43.40975" lon="5.987">
        <ele>250.94054</ele>
        <time>2015-01-14T14:01:47Z</time>
      </trkpt>
      <trkpt lat="43.40971" lon="5.98708">
        <ele>250.57451</ele>
        <time>2015-01-14T14:01:49Z</time>
      </trkpt>
      <trkpt lat="43.40966" lon="5.98727">
        <ele>250.39355</ele>
        <time>2015-01-14T14:01:53Z</time>
      </trkpt>
      <trkpt lat="43.40965" lon="5.9873">
        <ele>250.34637</ele>
        <time>2015-01-14T14:01:54Z</time>
      </trkpt>
      <trkpt lat="43.40951" lon="5.98745">
        <ele>250.03136</ele>
        <time>2015-01-14T14:01:59Z</time>
      </trkpt>
      <trkpt lat="43.40937" lon="5.98768">
        <ele>250.07323</ele>
        <time>2015-01-14T14:02:05Z</time>
      </trkpt>
      <trkpt lat="43.40919" lon="5.98799">
        <ele>250.76364</ele>
        <time>2015-01-14T14:02:13Z</time>
      </trkpt>
      <trkpt lat="43.40905" lon="5.98823">
        <ele>250.42313</ele>
        <time>2015-01-14T14:02:20Z</time>
      </trkpt>
      <trkpt lat="43.40889" lon="5.98848">
        <ele>249.61429</ele>
        <time>2015-01-14T14:02:27Z</time>
      </trkpt>
      <trkpt lat="43.40877" lon="5.98868">
        <ele>249.53763</ele>
        <time>2015-01-14T14:02:32Z</time>
      </trkpt>
      <trkpt lat="43.40874" lon="5.98872">
        <ele>249.58624</ele>
        <time>2015-01-14T14:02:33Z</time>
      </trkpt>
      <trkpt lat="43.40866" lon="5.98887">
        <ele>250.14996</ele>
        <time>2015-01-14T14:02:37Z</time>
      </trkpt>
      <trkpt lat="43.40864" lon="5.9889">
        <ele>250.32768</ele>
        <time>2015-01-14T14:02:38Z</time>
      </trkpt>
      <trkpt lat="43.40863" lon="5.98894">
        <ele>250.52736</ele>
        <time>2015-01-14T14:02:39Z</time>
      </trkpt>
      <trkpt lat="43.40865" lon="5.98911">
        <ele>251.53563</ele>
        <time>2015-01-14T14:02:43Z</time>
      </trkpt>
      <trkpt lat="43.40866" lon="5.98927">
        <ele>251.61398</ele>
        <time>2015-01-14T14:02:46Z</time>
      </trkpt>
      <trkpt lat="43.40865" lon="5.98939">
        <ele>251.44772</ele>
        <time>2015-01-14T14:02:48Z</time>
      </trkpt>
      <trkpt lat="43.40858" lon="5.98963">
        <ele>251.44305</ele>
        <time>2015-01-14T14:02:52Z</time>
      </trkpt>
      <trkpt lat="43.40857" lon="5.9897">
        <ele>251.44531</ele>
        <time>2015-01-14T14:02:53Z</time>
      </trkpt>
      <trkpt lat="43.40852" lon="5.98993">
        <ele>251.47758</ele>
        <time>2015-01-14T14:02:56Z</time>
      </trkpt>
      <trkpt lat="43.40848" lon="5.99026">
        <ele>250.30756</ele>
        <time>2015-01-14T14:03:00Z</time>
      </trkpt>
      <trkpt lat="43.40845" lon="5.99042">
        <ele>249.64761</ele>
        <time>2015-01-14T14:03:02Z</time>
      </trkpt>
      <trkpt lat="43.4084" lon="5.99063">
        <ele>248.77858</ele>
        <time>2015-01-14T14:03:05Z</time>
      </trkpt>
      <trkpt lat="43.40837" lon="5.99069">
        <ele>248.62851</ele>
        <time>2015-01-14T14:03:06Z</time>
      </trkpt>
      <trkpt lat="43.40827" lon="5.99079">
        <ele>247.88406</ele>
        <time>2015-01-14T14:03:09Z</time>
      </trkpt>
      <trkpt lat="43.40826" lon="5.99082">
        <ele>247.64935</ele>
        <time>2015-01-14T14:03:11Z</time>
      </trkpt>
      <trkpt lat="43.40826" lon="5.99084">
        <ele>247.55559</ele>
        <time>2015-01-14T14:03:12Z</time>
      </trkpt>
      <trkpt lat="43.40826" lon="5.99085">
        <ele>247.52058</ele>
        <time>2015-01-14T14:03:17Z</time>
      </trkpt>
      <trkpt lat="43.40826" lon="5.99085">
        <ele>247.52058</ele>
        <time>2015-01-14T14:03:23Z</time>
      </trkpt>
      <trkpt lat="43.40826" lon="5.99085">
        <ele>247.50392</ele>
        <time>2015-01-14T14:03:50Z</time>
      </trkpt>
      <trkpt lat="43.40826" lon="5.99085">
        <ele>247.49559</ele>
        <time>2015-01-14T14:04:00Z</time>
      </trkpt>
      <trkpt lat="43.40826" lon="5.99085">
        <ele>247.49277</ele>
        <time>2015-01-14T14:04:06Z</time>
      </trkpt>
      <trkpt lat="43.40826" lon="5.99083">
        <ele>247.53947</ele>
        <time>2015-01-14T14:04:10Z</time>
      </trkpt>
      <trkpt lat="43.40829" lon="5.99077">
        <ele>248.06158</ele>
        <time>2015-01-14T14:04:15Z</time>
      </trkpt>
      <trkpt lat="43.4083" lon="5.99077">
        <ele>248.2083</ele>
        <time>2015-01-14T14:04:16Z</time>
      </trkpt>
      <trkpt lat="43.40837" lon="5.99074">
        <ele>248.33633</ele>
        <time>2015-01-14T14:04:20Z</time>
      </trkpt>
      <trkpt lat="43.4086" lon="5.99079">
        <ele>246.61479</ele>
        <time>2015-01-14T14:04:30Z</time>
      </trkpt>
      <trkpt lat="43.40888" lon="5.99084">
        <ele>244.70078</ele>
        <time>2015-01-14T14:04:38Z</time>
      </trkpt>
      <trkpt lat="43.40919" lon="5.99089">
        <ele>243.08418</ele>
        <time>2015-01-14T14:04:47Z</time>
      </trkpt>
      <trkpt lat="43.40937" lon="5.99091">
        <ele>243.67561</ele>
        <time>2015-01-14T14:04:52Z</time>
      </trkpt>
      <trkpt lat="43.40952" lon="5.99094">
        <ele>244.14481</ele>
        <time>2015-01-14T14:04:56Z</time>
      </trkpt>
      <trkpt lat="43.40973" lon="5.99097">
        <ele>244.7914</ele>
        <time>2015-01-14T14:05:02Z</time>
      </trkpt>
      <trkpt lat="43.40993" lon="5.99101">
        <ele>245.38414</ele>
        <time>2015-01-14T14:05:08Z</time>
      </trkpt>
      <trkpt lat="43.41014" lon="5.99103">
        <ele>246.62161</ele>
        <time>2015-01-14T14:05:14Z</time>
      </trkpt>
      <trkpt lat="43.41027" lon="5.99106">
        <ele>247.5583</ele>
        <time>2015-01-14T14:05:18Z</time>
      </trkpt>
      <trkpt lat="43.41042" lon="5.99109">
        <ele>248.68988</ele>
        <time>2015-01-14T14:05:23Z</time>
      </trkpt>
      <trkpt lat="43.41067" lon="5.99114">
        <ele>250.65894</ele>
        <time>2015-01-14T14:05:31Z</time>
      </trkpt>
      <trkpt lat="43.41073" lon="5.99115">
        <ele>251.14882</ele>
        <time>2015-01-14T14:05:33Z</time>
      </trkpt>
      <trkpt lat="43.41082" lon="5.99116">
        <ele>251.86023</ele>
        <time>2015-01-14T14:05:36Z</time>
      </trkpt>
      <trkpt lat="43.41087" lon="5.99118">
        <ele>252.26878</ele>
        <time>2015-01-14T14:05:38Z</time>
      </trkpt>
      <trkpt lat="43.4109" lon="5.99118">
        <ele>252.47321</ele>
        <time>2015-01-14T14:05:39Z</time>
      </trkpt>
      <trkpt lat="43.41093" lon="5.99118">
        <ele>252.65213</ele>
        <time>2015-01-14T14:05:40Z</time>
      </trkpt>
      <trkpt lat="43.41096" lon="5.99118">
        <ele>252.85562</ele>
        <time>2015-01-14T14:05:41Z</time>
      </trkpt>
      <trkpt lat="43.41102" lon="5.9912">
        <ele>253.23521</ele>
        <time>2015-01-14T14:05:43Z</time>
      </trkpt>
      <trkpt lat="43.41113" lon="5.9912">
        <ele>253.94844</ele>
        <time>2015-01-14T14:05:47Z</time>
      </trkpt>
      <trkpt lat="43.41122" lon="5.9912">
        <ele>254.55623</ele>
        <time>2015-01-14T14:05:51Z</time>
      </trkpt>
      <trkpt lat="43.4113" lon="5.99122">
        <ele>255.10486</ele>
        <time>2015-01-14T14:05:55Z</time>
      </trkpt>
      <trkpt lat="43.41137" lon="5.99123">
        <ele>255.52951</ele>
        <time>2015-01-14T14:05:58Z</time>
      </trkpt>
      <trkpt lat="43.41141" lon="5.99124">
        <ele>255.79597</ele>
        <time>2015-01-14T14:06:00Z</time>
      </trkpt>
      <trkpt lat="43.41148" lon="5.99127">
        <ele>256.27628</ele>
        <time>2015-01-14T14:06:04Z</time>
      </trkpt>
      <trkpt lat="43.41152" lon="5.99128">
        <ele>256.48883</ele>
        <time>2015-01-14T14:06:06Z</time>
      </trkpt>
      <trkpt lat="43.41167" lon="5.9913">
        <ele>257.44641</ele>
        <time>2015-01-14T14:06:12Z</time>
      </trkpt>
      <trkpt lat="43.41193" lon="5.99132">
        <ele>257.61478</ele>
        <time>2015-01-14T14:06:20Z</time>
      </trkpt>
      <trkpt lat="43.41198" lon="5.99133">
        <ele>257.64209</ele>
        <time>2015-01-14T14:06:22Z</time>
      </trkpt>
      <trkpt lat="43.41203" lon="5.99134">
        <ele>257.65543</ele>
        <time>2015-01-14T14:06:24Z</time>
      </trkpt>
      <trkpt lat="43.41206" lon="5.99134">
        <ele>257.66104</ele>
        <time>2015-01-14T14:06:25Z</time>
      </trkpt>
      <trkpt lat="43.41217" lon="5.99135">
        <ele>257.67764</ele>
        <time>2015-01-14T14:06:29Z</time>
      </trkpt>
      <trkpt lat="43.41229" lon="5.99137">
        <ele>257.69205</ele>
        <time>2015-01-14T14:06:33Z</time>
      </trkpt>
      <trkpt lat="43.41239" lon="5.99139">
        <ele>257.61975</ele>
        <time>2015-01-14T14:06:36Z</time>
      </trkpt>
      <trkpt lat="43.41251" lon="5.99142">
        <ele>257.37241</ele>
        <time>2015-01-14T14:06:40Z</time>
      </trkpt>
      <trkpt lat="43.41268" lon="5.99147">
        <ele>255.60945</ele>
        <time>2015-01-14T14:06:45Z</time>
      </trkpt>
      <trkpt lat="43.41293" lon="5.99156">
        <ele>253.21198</ele>
        <time>2015-01-14T14:06:50Z</time>
      </trkpt>
      <trkpt lat="43.41299" lon="5.99158">
        <ele>252.7128</ele>
        <time>2015-01-14T14:06:51Z</time>
      </trkpt>
      <trkpt lat="43.41319" lon="5.99165">
        <ele>251.0899</ele>
        <time>2015-01-14T14:06:54Z</time>
      </trkpt>
      <trkpt lat="43.41339" lon="5.99171">
        <ele>249.45419</ele>
        <time>2015-01-14T14:06:57Z</time>
      </trkpt>
      <trkpt lat="43.41359" lon="5.99179">
        <ele>247.86433</ele>
        <time>2015-01-14T14:07:00Z</time>
      </trkpt>
      <trkpt lat="43.41366" lon="5.99182">
        <ele>247.37402</ele>
        <time>2015-01-14T14:07:01Z</time>
      </trkpt>
      <trkpt lat="43.41385" lon="5.99189">
        <ele>246.17297</ele>
        <time>2015-01-14T14:07:04Z</time>
      </trkpt>
      <trkpt lat="43.41396" lon="5.99193">
        <ele>245.49333</ele>
        <time>2015-01-14T14:07:06Z</time>
      </trkpt>
      <trkpt lat="43.41416" lon="5.99199">
        <ele>244.41917</ele>
        <time>2015-01-14T14:07:10Z</time>
      </trkpt>
      <trkpt lat="43.41431" lon="5.99205">
        <ele>244.30522</ele>
        <time>2015-01-14T14:07:13Z</time>
      </trkpt>
      <trkpt lat="43.41443" lon="5.99211">
        <ele>244.19101</ele>
        <time>2015-01-14T14:07:16Z</time>
      </trkpt>
      <trkpt lat="43.41463" lon="5.99215">
        <ele>243.92921</ele>
        <time>2015-01-14T14:07:22Z</time>
      </trkpt>
      <trkpt lat="43.41466" lon="5.99209">
        <ele>243.90584</ele>
        <time>2015-01-14T14:07:24Z</time>
      </trkpt>
      <trkpt lat="43.41468" lon="5.99197">
        <ele>243.91164</ele>
        <time>2015-01-14T14:07:27Z</time>
      </trkpt>
      <trkpt lat="43.4148" lon="5.99156">
        <ele>244.45949</ele>
        <time>2015-01-14T14:07:37Z</time>
      </trkpt>
      <trkpt lat="43.41495" lon="5.99101">
        <ele>247.07906</ele>
        <time>2015-01-14T14:07:50Z</time>
      </trkpt>
      <trkpt lat="43.41506" lon="5.99058">
        <ele>248.15314</ele>
        <time>2015-01-14T14:08:00Z</time>
      </trkpt>
      <trkpt lat="43.4151" lon="5.99041">
        <ele>248.36235</ele>
        <time>2015-01-14T14:08:04Z</time>
      </trkpt>
      <trkpt lat="43.41517" lon="5.99011">
        <ele>248.9243</ele>
        <time>2015-01-14T14:08:11Z</time>
      </trkpt>
      <trkpt lat="43.41523" lon="5.98992">
        <ele>249.35236</ele>
        <time>2015-01-14T14:08:16Z</time>
      </trkpt>
      <trkpt lat="43.41528" lon="5.98989">
        <ele>249.63249</ele>
        <time>2015-01-14T14:08:18Z</time>
      </trkpt>
      <trkpt lat="43.41536" lon="5.9899">
        <ele>250.12561</ele>
        <time>2015-01-14T14:08:21Z</time>
      </trkpt>
      <trkpt lat="43.41546" lon="5.98991">
        <ele>250.69208</ele>
        <time>2015-01-14T14:08:24Z</time>
      </trkpt>
      <trkpt lat="43.41568" lon="5.98994">
        <ele>252.00031</ele>
        <time>2015-01-14T14:08:31Z</time>
      </trkpt>
      <trkpt lat="43.41599" lon="5.99">
        <ele>253.1785</ele>
        <time>2015-01-14T14:08:41Z</time>
      </trkpt>
      <trkpt lat="43.41619" lon="5.99001">
        <ele>253.39558</ele>
        <time>2015-01-14T14:08:47Z</time>
      </trkpt>
      <trkpt lat="43.41652" lon="5.99008">
        <ele>253.35655</ele>
        <time>2015-01-14T14:08:56Z</time>
      </trkpt>
      <trkpt lat="43.41679" lon="5.99017">
        <ele>253.28516</ele>
        <time>2015-01-14T14:09:04Z</time>
      </trkpt>
      <trkpt lat="43.41713" lon="5.99025">
        <ele>253.62735</ele>
        <time>2015-01-14T14:09:14Z</time>
      </trkpt>
      <trkpt lat="43.41743" lon="5.99029">
        <ele>254.10971</ele>
        <time>2015-01-14T14:09:23Z</time>
      </trkpt>
      <trkpt lat="43.41761" lon="5.99033">
        <ele>254.3409</ele>
        <time>2015-01-14T14:09:29Z</time>
      </trkpt>
      <trkpt lat="43.41764" lon="5.99034">
        <ele>254.39571</ele>
        <time>2015-01-14T14:09:30Z</time>
      </trkpt>
      <trkpt lat="43.4179" lon="5.99043">
        <ele>254.87215</ele>
        <time>2015-01-14T14:09:39Z</time>
      </trkpt>
      <trkpt lat="43.41798" lon="5.99046">
        <ele>255.0788</ele>
        <time>2015-01-14T14:09:42Z</time>
      </trkpt>
      <trkpt lat="43.41817" lon="5.99051">
        <ele>255.73285</ele>
        <time>2015-01-14T14:09:50Z</time>
      </trkpt>
      <trkpt lat="43.41824" lon="5.99053">
        <ele>255.98645</ele>
        <time>2015-01-14T14:09:53Z</time>
      </trkpt>
      <trkpt lat="43.41831" lon="5.99054">
        <ele>256.25403</ele>
        <time>2015-01-14T14:09:56Z</time>
      </trkpt>
      <trkpt lat="43.41849" lon="5.99058">
        <ele>256.69037</ele>
        <time>2015-01-14T14:10:04Z</time>
      </trkpt>
      <trkpt lat="43.41853" lon="5.99058">
        <ele>256.79382</ele>
        <time>2015-01-14T14:10:06Z</time>
      </trkpt>
      <trkpt lat="43.41858" lon="5.99059">
        <ele>256.90891</ele>
        <time>2015-01-14T14:10:08Z</time>
      </trkpt>
      <trkpt lat="43.4186" lon="5.99059">
        <ele>256.96695</ele>
        <time>2015-01-14T14:10:09Z</time>
      </trkpt>
      <trkpt lat="43.41864" lon="5.9906">
        <ele>257.0752</ele>
        <time>2015-01-14T14:10:11Z</time>
      </trkpt>
      <trkpt lat="43.41868" lon="5.99061">
        <ele>257.17734</ele>
        <time>2015-01-14T14:10:13Z</time>
      </trkpt>
      <trkpt lat="43.4187" lon="5.99062">
        <ele>257.23267</ele>
        <time>2015-01-14T14:10:14Z</time>
      </trkpt>
      <trkpt lat="43.41871" lon="5.99064">
        <ele>257.27136</ele>
        <time>2015-01-14T14:10:15Z</time>
      </trkpt>
      <trkpt lat="43.41875" lon="5.99072">
        <ele>257.43137</ele>
        <time>2015-01-14T14:10:18Z</time>
      </trkpt>
      <trkpt lat="43.4188" lon="5.99079">
        <ele>257.63275</ele>
        <time>2015-01-14T14:10:21Z</time>
      </trkpt>
      <trkpt lat="43.41881" lon="5.99082">
        <ele>257.71045</ele>
        <time>2015-01-14T14:10:22Z</time>
      </trkpt>
      <trkpt lat="43.41883" lon="5.99085">
        <ele>257.80423</ele>
        <time>2015-01-14T14:10:23Z</time>
      </trkpt>
      <trkpt lat="43.41885" lon="5.99088">
        <ele>257.8891</ele>
        <time>2015-01-14T14:10:24Z</time>
      </trkpt>
      <trkpt lat="43.41889" lon="5.99096">
        <ele>258.16119</ele>
        <time>2015-01-14T14:10:27Z</time>
      </trkpt>
      <trkpt lat="43.41892" lon="5.99101">
        <ele>258.36115</ele>
        <time>2015-01-14T14:10:29Z</time>
      </trkpt>
      <trkpt lat="43.41912" lon="5.99136">
        <ele>259.97974</ele>
        <time>2015-01-14T14:10:41Z</time>
      </trkpt>
      <trkpt lat="43.41913" lon="5.99139">
        <ele>260.1394</ele>
        <time>2015-01-14T14:10:42Z</time>
      </trkpt>
      <trkpt lat="43.41918" lon="5.99149">
        <ele>260.75409</ele>
        <time>2015-01-14T14:10:45Z</time>
      </trkpt>
      <trkpt lat="43.41922" lon="5.99155">
        <ele>261.33258</ele>
        <time>2015-01-14T14:10:47Z</time>
      </trkpt>
      <trkpt lat="43.41928" lon="5.99168">
        <ele>262.41629</ele>
        <time>2015-01-14T14:10:51Z</time>
      </trkpt>
      <trkpt lat="43.41936" lon="5.99181">
        <ele>263.33908</ele>
        <time>2015-01-14T14:10:55Z</time>
      </trkpt>
      <trkpt lat="43.41938" lon="5.99184">
        <ele>263.55487</ele>
        <time>2015-01-14T14:10:56Z</time>
      </trkpt>
      <trkpt lat="43.41943" lon="5.9919">
        <ele>264.02625</ele>
        <time>2015-01-14T14:10:58Z</time>
      </trkpt>
      <trkpt lat="43.41949" lon="5.992">
        <ele>264.77762</ele>
        <time>2015-01-14T14:11:02Z</time>
      </trkpt>
      <trkpt lat="43.41951" lon="5.99203">
        <ele>264.89755</ele>
        <time>2015-01-14T14:11:03Z</time>
      </trkpt>
      <trkpt lat="43.41953" lon="5.99211">
        <ele>265.11761</ele>
        <time>2015-01-14T14:11:07Z</time>
      </trkpt>
      <trkpt lat="43.41954" lon="5.99214">
        <ele>265.18832</ele>
        <time>2015-01-14T14:11:10Z</time>
      </trkpt>
      <trkpt lat="43.41954" lon="5.99214">
        <ele>265.23151</ele>
        <time>2015-01-14T14:11:20Z</time>
      </trkpt>
      <trkpt lat="43.41954" lon="5.99214">
        <ele>265.18832</ele>
        <time>2015-01-14T14:11:26Z</time>
      </trkpt>
      <trkpt lat="43.41954" lon="5.99214">
        <ele>265.18805</ele>
        <time>2015-01-14T14:11:32Z</time>
      </trkpt>
      <trkpt lat="43.41954" lon="5.99214">
        <ele>265.23203</ele>
        <time>2015-01-14T14:11:53Z</time>
      </trkpt>
      <trkpt lat="43.41954" lon="5.99214">
        <ele>265.23254</ele>
        <time>2015-01-14T14:12:22Z</time>
      </trkpt>
      <trkpt lat="43.41954" lon="5.99214">
        <ele>265.23279</ele>
        <time>2015-01-14T14:12:39Z</time>
      </trkpt>
      <trkpt lat="43.41954" lon="5.99214">
        <ele>265.18958</ele>
        <time>2015-01-14T14:14:08Z</time>
      </trkpt>
      <trkpt lat="43.41954" lon="5.99217">
        <ele>265.16901</ele>
        <time>2015-01-14T14:14:21Z</time>
      </trkpt>
      <trkpt lat="43.4195" lon="5.99231">
        <ele>264.71481</ele>
        <time>2015-01-14T14:14:29Z</time>
      </trkpt>
      <trkpt lat="43.41947" lon="5.99252">
        <ele>264.38171</ele>
        <time>2015-01-14T14:14:36Z</time>
      </trkpt>
      <trkpt lat="43.41942" lon="5.99275">
        <ele>264.66669</ele>
        <time>2015-01-14T14:14:43Z</time>
      </trkpt>
      <trkpt lat="43.41938" lon="5.99297">
        <ele>264.99628</ele>
        <time>2015-01-14T14:14:50Z</time>
      </trkpt>
      <trkpt lat="43.41934" lon="5.99313">
        <ele>265.15421</ele>
        <time>2015-01-14T14:14:55Z</time>
      </trkpt>
      <trkpt lat="43.41934" lon="5.99316">
        <ele>265.23145</ele>
        <time>2015-01-14T14:14:56Z</time>
      </trkpt>
      <trkpt lat="43.41931" lon="5.99332">
        <ele>265.52499</ele>
        <time>2015-01-14T14:15:01Z</time>
      </trkpt>
      <trkpt lat="43.41928" lon="5.99351">
        <ele>266.31351</ele>
        <time>2015-01-14T14:15:07Z</time>
      </trkpt>
      <trkpt lat="43.41928" lon="5.99357">
        <ele>266.68259</ele>
        <time>2015-01-14T14:15:10Z</time>
      </trkpt>
      <trkpt lat="43.41926" lon="5.9936">
        <ele>266.64539</ele>
        <time>2015-01-14T14:15:12Z</time>
      </trkpt>
      <trkpt lat="43.41922" lon="5.99369">
        <ele>266.71863</ele>
        <time>2015-01-14T14:15:16Z</time>
      </trkpt>
      <trkpt lat="43.4192" lon="5.99374">
        <ele>266.82275</ele>
        <time>2015-01-14T14:15:18Z</time>
      </trkpt>
      <trkpt lat="43.41916" lon="5.99389">
        <ele>267.25861</ele>
        <time>2015-01-14T14:15:23Z</time>
      </trkpt>
      <trkpt lat="43.41916" lon="5.99391">
        <ele>267.32828</ele>
        <time>2015-01-14T14:15:24Z</time>
      </trkpt>
      <trkpt lat="43.41912" lon="5.99403">
        <ele>267.51877</ele>
        <time>2015-01-14T14:15:28Z</time>
      </trkpt>
      <trkpt lat="43.41911" lon="5.99409">
        <ele>267.70932</ele>
        <time>2015-01-14T14:15:30Z</time>
      </trkpt>
      <trkpt lat="43.4191" lon="5.99415">
        <ele>267.91565</ele>
        <time>2015-01-14T14:15:32Z</time>
      </trkpt>
      <trkpt lat="43.41909" lon="5.99418">
        <ele>267.96072</ele>
        <time>2015-01-14T14:15:33Z</time>
      </trkpt>
      <trkpt lat="43.41909" lon="5.99422">
        <ele>268.03931</ele>
        <time>2015-01-14T14:15:34Z</time>
      </trkpt>
      <trkpt lat="43.41908" lon="5.99429">
        <ele>268.24875</ele>
        <time>2015-01-14T14:15:36Z</time>
      </trkpt>
      <trkpt lat="43.41908" lon="5.99435">
        <ele>268.45233</ele>
        <time>2015-01-14T14:15:38Z</time>
      </trkpt>
      <trkpt lat="43.41908" lon="5.99442">
        <ele>268.64819</ele>
        <time>2015-01-14T14:15:40Z</time>
      </trkpt>
      <trkpt lat="43.41907" lon="5.99451">
        <ele>268.94522</ele>
        <time>2015-01-14T14:15:43Z</time>
      </trkpt>
      <trkpt lat="43.41908" lon="5.99456">
        <ele>269.18436</ele>
        <time>2015-01-14T14:15:45Z</time>
      </trkpt>
      <trkpt lat="43.41908" lon="5.99458">
        <ele>269.38824</ele>
        <time>2015-01-14T14:15:46Z</time>
      </trkpt>
      <trkpt lat="43.41908" lon="5.9947">
        <ele>269.8316</ele>
        <time>2015-01-14T14:15:50Z</time>
      </trkpt>
      <trkpt lat="43.41908" lon="5.99473">
        <ele>269.85318</ele>
        <time>2015-01-14T14:15:51Z</time>
      </trkpt>
      <trkpt lat="43.41905" lon="5.99479">
        <ele>269.75055</ele>
        <time>2015-01-14T14:15:53Z</time>
      </trkpt>
      <trkpt lat="43.41902" lon="5.99486">
        <ele>269.64825</ele>
        <time>2015-01-14T14:15:55Z</time>
      </trkpt>
      <trkpt lat="43.41899" lon="5.99493">
        <ele>269.55432</ele>
        <time>2015-01-14T14:15:57Z</time>
      </trkpt>
      <trkpt lat="43.41897" lon="5.99497">
        <ele>269.47672</ele>
        <time>2015-01-14T14:15:58Z</time>
      </trkpt>
      <trkpt lat="43.41888" lon="5.9951">
        <ele>269.31281</ele>
        <time>2015-01-14T14:16:03Z</time>
      </trkpt>
      <trkpt lat="43.41887" lon="5.99513">
        <ele>269.32251</ele>
        <time>2015-01-14T14:16:04Z</time>
      </trkpt>
      <trkpt lat="43.41875" lon="5.99534">
        <ele>269.29218</ele>
        <time>2015-01-14T14:16:10Z</time>
      </trkpt>
      <trkpt lat="43.41864" lon="5.99553">
        <ele>268.90552</ele>
        <time>2015-01-14T14:16:15Z</time>
      </trkpt>
      <trkpt lat="43.4186" lon="5.99562">
        <ele>268.91809</ele>
        <time>2015-01-14T14:16:17Z</time>
      </trkpt>
      <trkpt lat="43.41853" lon="5.99575">
        <ele>268.60294</ele>
        <time>2015-01-14T14:16:20Z</time>
      </trkpt>
      <trkpt lat="43.41843" lon="5.99596">
        <ele>267.93994</ele>
        <time>2015-01-14T14:16:25Z</time>
      </trkpt>
      <trkpt lat="43.41833" lon="5.99617">
        <ele>267.10587</ele>
        <time>2015-01-14T14:16:29Z</time>
      </trkpt>
      <trkpt lat="43.41827" lon="5.99628">
        <ele>266.54922</ele>
        <time>2015-01-14T14:16:31Z</time>
      </trkpt>
      <trkpt lat="43.41803" lon="5.99709">
        <ele>264.92957</ele>
        <time>2015-01-14T14:16:43Z</time>
      </trkpt>
      <trkpt lat="43.41799" lon="5.99734">
        <ele>265.11426</ele>
        <time>2015-01-14T14:16:46Z</time>
      </trkpt>
      <trkpt lat="43.41798" lon="5.99742">
        <ele>265.16489</ele>
        <time>2015-01-14T14:16:47Z</time>
      </trkpt>
      <trkpt lat="43.4179" lon="5.99769">
        <ele>264.51987</ele>
        <time>2015-01-14T14:16:50Z</time>
      </trkpt>
      <trkpt lat="43.41785" lon="5.99784">
        <ele>263.81519</ele>
        <time>2015-01-14T14:16:52Z</time>
      </trkpt>
      <trkpt lat="43.4178" lon="5.99799">
        <ele>263.05801</ele>
        <time>2015-01-14T14:16:54Z</time>
      </trkpt>
      <trkpt lat="43.41777" lon="5.99807">
        <ele>262.59372</ele>
        <time>2015-01-14T14:16:55Z</time>
      </trkpt>
      <trkpt lat="43.41769" lon="5.9982">
        <ele>261.34927</ele>
        <time>2015-01-14T14:16:57Z</time>
      </trkpt>
      <trkpt lat="43.41766" lon="5.99827">
        <ele>260.77899</ele>
        <time>2015-01-14T14:16:58Z</time>
      </trkpt>
      <trkpt lat="43.41756" lon="5.99852">
        <ele>259.34641</ele>
        <time>2015-01-14T14:17:01Z</time>
      </trkpt>
      <trkpt lat="43.41749" lon="5.99878">
        <ele>258.42383</ele>
        <time>2015-01-14T14:17:04Z</time>
      </trkpt>
      <trkpt lat="43.41747" lon="5.99895">
        <ele>258.27963</ele>
        <time>2015-01-14T14:17:06Z</time>
      </trkpt>
      <trkpt lat="43.41742" lon="5.99911">
        <ele>257.918</ele>
        <time>2015-01-14T14:17:08Z</time>
      </trkpt>
      <trkpt lat="43.4174" lon="5.99919">
        <ele>257.81378</ele>
        <time>2015-01-14T14:17:09Z</time>
      </trkpt>
      <trkpt lat="43.41734" lon="5.99945">
        <ele>257.7836</ele>
        <time>2015-01-14T14:17:12Z</time>
      </trkpt>
      <trkpt lat="43.41729" lon="5.99964">
        <ele>257.62897</ele>
        <time>2015-01-14T14:17:14Z</time>
      </trkpt>
      <trkpt lat="43.41723" lon="5.99991">
        <ele>257.58435</ele>
        <time>2015-01-14T14:17:17Z</time>
      </trkpt>
      <trkpt lat="43.41714" lon="6.00027">
        <ele>260</ele>
        <time>2015-01-14T14:17:21Z</time>
      </trkpt>
      <trkpt lat="43.41713" lon="6.00036">
        <ele>260</ele>
        <time>2015-01-14T14:17:22Z</time>
      </trkpt>
      <trkpt lat="43.41712" lon="6.00044">
        <ele>260</ele>
        <time>2015-01-14T14:17:23Z</time>
      </trkpt>
      <trkpt lat="43.41713" lon="6.00052">
        <ele>260</ele>
        <time>2015-01-14T14:17:24Z</time>
      </trkpt>
      <trkpt lat="43.41714" lon="6.00061">
        <ele>260</ele>
        <time>2015-01-14T14:17:25Z</time>
      </trkpt>
      <trkpt lat="43.41719" lon="6.00087">
        <ele>259.96713</ele>
        <time>2015-01-14T14:17:28Z</time>
      </trkpt>
      <trkpt lat="43.41718" lon="6.00096">
        <ele>259.88657</ele>
        <time>2015-01-14T14:17:29Z</time>
      </trkpt>
      <trkpt lat="43.41716" lon="6.00104">
        <ele>259.79532</ele>
        <time>2015-01-14T14:17:30Z</time>
      </trkpt>
      <trkpt lat="43.41713" lon="6.00122">
        <ele>259.59647</ele>
        <time>2015-01-14T14:17:32Z</time>
      </trkpt>
      <trkpt lat="43.41707" lon="6.00144">
        <ele>259.24896</ele>
        <time>2015-01-14T14:17:35Z</time>
      </trkpt>
      <trkpt lat="43.41705" lon="6.00151">
        <ele>259.12424</ele>
        <time>2015-01-14T14:17:36Z</time>
      </trkpt>
      <trkpt lat="43.41704" lon="6.00182">
        <ele>258.72189</ele>
        <time>2015-01-14T14:17:40Z</time>
      </trkpt>
      <trkpt lat="43.41703" lon="6.00188">
        <ele>258.61087</ele>
        <time>2015-01-14T14:17:41Z</time>
      </trkpt>
      <trkpt lat="43.41701" lon="6.00204">
        <ele>258.37915</ele>
        <time>2015-01-14T14:17:43Z</time>
      </trkpt>
      <trkpt lat="43.41698" lon="6.0022">
        <ele>258.11823</ele>
        <time>2015-01-14T14:17:45Z</time>
      </trkpt>
      <trkpt lat="43.41694" lon="6.00236">
        <ele>257.83209</ele>
        <time>2015-01-14T14:17:47Z</time>
      </trkpt>
      <trkpt lat="43.41691" lon="6.00251">
        <ele>257.58005</ele>
        <time>2015-01-14T14:17:49Z</time>
      </trkpt>
      <trkpt lat="43.41691" lon="6.00258">
        <ele>257.51233</ele>
        <time>2015-01-14T14:17:50Z</time>
      </trkpt>
      <trkpt lat="43.41692" lon="6.00278">
        <ele>257.36026</ele>
        <time>2015-01-14T14:17:53Z</time>
      </trkpt>
      <trkpt lat="43.41692" lon="6.00285">
        <ele>257.32507</ele>
        <time>2015-01-14T14:17:54Z</time>
      </trkpt>
      <trkpt lat="43.41693" lon="6.00292">
        <ele>257.29254</ele>
        <time>2015-01-14T14:17:55Z</time>
      </trkpt>
      <trkpt lat="43.41692" lon="6.00305">
        <ele>257.13727</ele>
        <time>2015-01-14T14:17:57Z</time>
      </trkpt>
      <trkpt lat="43.4169" lon="6.00312">
        <ele>257.02521</ele>
        <time>2015-01-14T14:17:58Z</time>
      </trkpt>
      <trkpt lat="43.41689" lon="6.00319">
        <ele>256.92377</ele>
        <time>2015-01-14T14:17:59Z</time>
      </trkpt>
      <trkpt lat="43.41687" lon="6.00327">
        <ele>256.80182</ele>
        <time>2015-01-14T14:18:00Z</time>
      </trkpt>
      <trkpt lat="43.41686" lon="6.00334">
        <ele>256.69122</ele>
        <time>2015-01-14T14:18:01Z</time>
      </trkpt>
      <trkpt lat="43.41683" lon="6.0034">
        <ele>256.59509</ele>
        <time>2015-01-14T14:18:02Z</time>
      </trkpt>
      <trkpt lat="43.41681" lon="6.00345">
        <ele>256.49896</ele>
        <time>2015-01-14T14:18:03Z</time>
      </trkpt>
      <trkpt lat="43.41677" lon="6.00349">
        <ele>256.36163</ele>
        <time>2015-01-14T14:18:04Z</time>
      </trkpt>
      <trkpt lat="43.41673" lon="6.00352">
        <ele>256.2243</ele>
        <time>2015-01-14T14:18:05Z</time>
      </trkpt>
      <trkpt lat="43.41667" lon="6.0036">
        <ele>256.00458</ele>
        <time>2015-01-14T14:18:07Z</time>
      </trkpt>
      <trkpt lat="43.41663" lon="6.00372">
        <ele>255.86725</ele>
        <time>2015-01-14T14:18:09Z</time>
      </trkpt>
      <trkpt lat="43.41656" lon="6.00389">
        <ele>255.60632</ele>
        <time>2015-01-14T14:18:12Z</time>
      </trkpt>
      <trkpt lat="43.41654" lon="6.00402">
        <ele>255.55139</ele>
        <time>2015-01-14T14:18:14Z</time>
      </trkpt>
      <trkpt lat="43.41652" lon="6.00423">
        <ele>255.11276</ele>
        <time>2015-01-14T14:18:17Z</time>
      </trkpt>
      <trkpt lat="43.41649" lon="6.00445">
        <ele>253.69006</ele>
        <time>2015-01-14T14:18:20Z</time>
      </trkpt>
      <trkpt lat="43.41648" lon="6.00452">
        <ele>253.23108</ele>
        <time>2015-01-14T14:18:21Z</time>
      </trkpt>
      <trkpt lat="43.41646" lon="6.00459">
        <ele>252.72589</ele>
        <time>2015-01-14T14:18:22Z</time>
      </trkpt>
      <trkpt lat="43.41644" lon="6.00472">
        <ele>251.78075</ele>
        <time>2015-01-14T14:18:24Z</time>
      </trkpt>
      <trkpt lat="43.41642" lon="6.00478">
        <ele>251.27635</ele>
        <time>2015-01-14T14:18:25Z</time>
      </trkpt>
      <trkpt lat="43.41637" lon="6.0049">
        <ele>250.2043</ele>
        <time>2015-01-14T14:18:27Z</time>
      </trkpt>
      <trkpt lat="43.41636" lon="6.00497">
        <ele>249.59932</ele>
        <time>2015-01-14T14:18:28Z</time>
      </trkpt>
      <trkpt lat="43.41634" lon="6.00512">
        <ele>248.78087</ele>
        <time>2015-01-14T14:18:30Z</time>
      </trkpt>
      <trkpt lat="43.41632" lon="6.00526">
        <ele>248.05688</ele>
        <time>2015-01-14T14:18:32Z</time>
      </trkpt>
      <trkpt lat="43.41632" lon="6.00542">
        <ele>247.39224</ele>
        <time>2015-01-14T14:18:34Z</time>
      </trkpt>
      <trkpt lat="43.41631" lon="6.00549">
        <ele>246.98907</ele>
        <time>2015-01-14T14:18:35Z</time>
      </trkpt>
      <trkpt lat="43.4163" lon="6.00556">
        <ele>246.60881</ele>
        <time>2015-01-14T14:18:36Z</time>
      </trkpt>
      <trkpt lat="43.41629" lon="6.00571">
        <ele>245.88087</ele>
        <time>2015-01-14T14:18:38Z</time>
      </trkpt>
      <trkpt lat="43.41627" lon="6.00577">
        <ele>245.46681</ele>
        <time>2015-01-14T14:18:39Z</time>
      </trkpt>
      <trkpt lat="43.41625" lon="6.00588">
        <ele>244.98389</ele>
        <time>2015-01-14T14:18:41Z</time>
      </trkpt>
      <trkpt lat="43.41623" lon="6.00597">
        <ele>244.80078</ele>
        <time>2015-01-14T14:18:43Z</time>
      </trkpt>
      <trkpt lat="43.41621" lon="6.00607">
        <ele>244.6543</ele>
        <time>2015-01-14T14:18:45Z</time>
      </trkpt>
      <trkpt lat="43.4162" lon="6.00641">
        <ele>244.54443</ele>
        <time>2015-01-14T14:18:51Z</time>
      </trkpt>
      <trkpt lat="43.41622" lon="6.00663">
        <ele>244.69092</ele>
        <time>2015-01-14T14:18:55Z</time>
      </trkpt>
      <trkpt lat="43.41624" lon="6.00691">
        <ele>244.80385</ele>
        <time>2015-01-14T14:19:00Z</time>
      </trkpt>
      <trkpt lat="43.41637" lon="6.00723">
        <ele>245.75638</ele>
        <time>2015-01-14T14:19:07Z</time>
      </trkpt>
      <trkpt lat="43.41638" lon="6.00731">
        <ele>245.75417</ele>
        <time>2015-01-14T14:19:09Z</time>
      </trkpt>
      <trkpt lat="43.41636" lon="6.0074">
        <ele>245.52669</ele>
        <time>2015-01-14T14:19:11Z</time>
      </trkpt>
      <trkpt lat="43.41636" lon="6.00756">
        <ele>245.38312</ele>
        <time>2015-01-14T14:19:15Z</time>
      </trkpt>
      <trkpt lat="43.41636" lon="6.00761">
        <ele>245.41516</ele>
        <time>2015-01-14T14:19:17Z</time>
      </trkpt>
      <trkpt lat="43.41636" lon="6.00763">
        <ele>245.41516</ele>
        <time>2015-01-14T14:19:19Z</time>
      </trkpt>
      <trkpt lat="43.41636" lon="6.00765">
        <ele>245.4472</ele>
        <time>2015-01-14T14:19:25Z</time>
      </trkpt>
      <trkpt lat="43.41636" lon="6.00766">
        <ele>245.4472</ele>
        <time>2015-01-14T14:19:29Z</time>
      </trkpt>
      <trkpt lat="43.41636" lon="6.00768">
        <ele>245.38312</ele>
        <time>2015-01-14T14:19:33Z</time>
      </trkpt>
      <trkpt lat="43.41635" lon="6.0077">
        <ele>245.35107</ele>
        <time>2015-01-14T14:19:39Z</time>
      </trkpt>
      <trkpt lat="43.41635" lon="6.0077">
        <ele>245.35107</ele>
        <time>2015-01-14T14:19:41Z</time>
      </trkpt>
      <trkpt lat="43.41635" lon="6.0077">
        <ele>245.35107</ele>
        <time>2015-01-14T14:19:48Z</time>
      </trkpt>
      <trkpt lat="43.41636" lon="6.0077">
        <ele>245.38312</ele>
        <time>2015-01-14T14:19:56Z</time>
      </trkpt>
      <trkpt lat="43.41632" lon="6.00776">
        <ele>245.12677</ele>
        <time>2015-01-14T14:20:01Z</time>
      </trkpt>
      <trkpt lat="43.41631" lon="6.00778">
        <ele>245.03064</ele>
        <time>2015-01-14T14:20:02Z</time>
      </trkpt>
      <trkpt lat="43.4163" lon="6.00781">
        <ele>244.93451</ele>
        <time>2015-01-14T14:20:04Z</time>
      </trkpt>
      <trkpt lat="43.41629" lon="6.00789">
        <ele>244.80634</ele>
        <time>2015-01-14T14:20:07Z</time>
      </trkpt>
      <trkpt lat="43.41629" lon="6.00801">
        <ele>244.80634</ele>
        <time>2015-01-14T14:20:13Z</time>
      </trkpt>
      <trkpt lat="43.41628" lon="6.00813">
        <ele>244.77429</ele>
        <time>2015-01-14T14:20:18Z</time>
      </trkpt>
      <trkpt lat="43.41628" lon="6.00815">
        <ele>244.74225</ele>
        <time>2015-01-14T14:20:19Z</time>
      </trkpt>
      <trkpt lat="43.41627" lon="6.00819">
        <ele>244.67816</ele>
        <time>2015-01-14T14:20:21Z</time>
      </trkpt>
      <trkpt lat="43.41628" lon="6.00821">
        <ele>244.71021</ele>
        <time>2015-01-14T14:20:22Z</time>
      </trkpt>
      <trkpt lat="43.41628" lon="6.00826">
        <ele>244.71021</ele>
        <time>2015-01-14T14:20:24Z</time>
      </trkpt>
      <trkpt lat="43.41625" lon="6.00845">
        <ele>244.4859</ele>
        <time>2015-01-14T14:20:29Z</time>
      </trkpt>
      <trkpt lat="43.41625" lon="6.00853">
        <ele>244.4859</ele>
        <time>2015-01-14T14:20:31Z</time>
      </trkpt>
      <trkpt lat="43.41624" lon="6.00857">
        <ele>244.45386</ele>
        <time>2015-01-14T14:20:32Z</time>
      </trkpt>
      <trkpt lat="43.41624" lon="6.00861">
        <ele>244.38977</ele>
        <time>2015-01-14T14:20:33Z</time>
      </trkpt>
      <trkpt lat="43.41623" lon="6.00865">
        <ele>244.32568</ele>
        <time>2015-01-14T14:20:34Z</time>
      </trkpt>
      <trkpt lat="43.41623" lon="6.00868">
        <ele>244.29364</ele>
        <time>2015-01-14T14:20:35Z</time>
      </trkpt>
      <trkpt lat="43.41623" lon="6.00876">
        <ele>244.32568</ele>
        <time>2015-01-14T14:20:37Z</time>
      </trkpt>
      <trkpt lat="43.41624" lon="6.00888">
        <ele>244.42181</ele>
        <time>2015-01-14T14:20:41Z</time>
      </trkpt>
      <trkpt lat="43.41624" lon="6.00896">
        <ele>244.45386</ele>
        <time>2015-01-14T14:20:44Z</time>
      </trkpt>
      <trkpt lat="43.41626" lon="6.00906">
        <ele>244.54999</ele>
        <time>2015-01-14T14:20:47Z</time>
      </trkpt>
      <trkpt lat="43.41625" lon="6.00909">
        <ele>244.51794</ele>
        <time>2015-01-14T14:20:48Z</time>
      </trkpt>
      <trkpt lat="43.41628" lon="6.00922">
        <ele>244.77951</ele>
        <time>2015-01-14T14:20:53Z</time>
      </trkpt>
      <trkpt lat="43.4163" lon="6.00933">
        <ele>245.13026</ele>
        <time>2015-01-14T14:20:58Z</time>
      </trkpt>
      <trkpt lat="43.41631" lon="6.00935">
        <ele>245.18347</ele>
        <time>2015-01-14T14:20:59Z</time>
      </trkpt>
      <trkpt lat="43.41634" lon="6.00947">
        <ele>245.62122</ele>
        <time>2015-01-14T14:21:05Z</time>
      </trkpt>
      <trkpt lat="43.41637" lon="6.00959">
        <ele>245.9817</ele>
        <time>2015-01-14T14:21:11Z</time>
      </trkpt>
      <trkpt lat="43.41637" lon="6.0096">
        <ele>245.99371</ele>
        <time>2015-01-14T14:21:12Z</time>
      </trkpt>
      <trkpt lat="43.41637" lon="6.00961">
        <ele>246.08069</ele>
        <time>2015-01-14T14:21:16Z</time>
      </trkpt>
      <trkpt lat="43.41637" lon="6.00962">
        <ele>246.08298</ele>
        <time>2015-01-14T14:21:20Z</time>
      </trkpt>
      <trkpt lat="43.41637" lon="6.00962">
        <ele>246.08414</ele>
        <time>2015-01-14T14:21:23Z</time>
      </trkpt>
      <trkpt lat="43.41637" lon="6.00962">
        <ele>246.08414</ele>
        <time>2015-01-14T14:21:37Z</time>
      </trkpt>
      <trkpt lat="43.41637" lon="6.00962">
        <ele>246.0847</ele>
        <time>2015-01-14T14:21:43Z</time>
      </trkpt>
      <trkpt lat="43.41637" lon="6.00962">
        <ele>246.0847</ele>
        <time>2015-01-14T14:21:49Z</time>
      </trkpt>
      <trkpt lat="43.41637" lon="6.00962">
        <ele>246.08813</ele>
        <time>2015-01-14T14:22:29Z</time>
      </trkpt>
      <trkpt lat="43.41637" lon="6.00963">
        <ele>246.07269</ele>
        <time>2015-01-14T14:26:45Z</time>
      </trkpt>
      <trkpt lat="43.41637" lon="6.00964">
        <ele>246.0744</ele>
        <time>2015-01-14T14:27:03Z</time>
      </trkpt>
      <trkpt lat="43.41637" lon="6.00963">
        <ele>246.07269</ele>
        <time>2015-01-14T14:27:50Z</time>
      </trkpt>
      <trkpt lat="43.41637" lon="6.00963">
        <ele>246.10474</ele>
        <time>2015-01-14T14:28:05Z</time>
      </trkpt>
      <trkpt lat="43.41637" lon="6.00964">
        <ele>246.1116</ele>
        <time>2015-01-14T14:28:07Z</time>
      </trkpt>
      <trkpt lat="43.41638" lon="6.00964">
        <ele>246.14935</ele>
        <time>2015-01-14T14:28:16Z</time>
      </trkpt>
      <trkpt lat="43.41638" lon="6.00964">
        <ele>246.14822</ele>
        <time>2015-01-14T14:28:31Z</time>
      </trkpt>
      <trkpt lat="43.41637" lon="6.00967">
        <ele>246.11789</ele>
        <time>2015-01-14T14:28:39Z</time>
      </trkpt>
      <trkpt lat="43.41636" lon="6.00978">
        <ele>246.15622</ele>
        <time>2015-01-14T14:28:46Z</time>
      </trkpt>
      <trkpt lat="43.41635" lon="6.01008">
        <ele>246.38734</ele>
        <time>2015-01-14T14:28:53Z</time>
      </trkpt>
      <trkpt lat="43.41639" lon="6.01029">
        <ele>246.81665</ele>
        <time>2015-01-14T14:28:58Z</time>
      </trkpt>
      <trkpt lat="43.41641" lon="6.01046">
        <ele>247.03096</ele>
        <time>2015-01-14T14:29:03Z</time>
      </trkpt>
      <trkpt lat="43.4164" lon="6.01056">
        <ele>246.95355</ele>
        <time>2015-01-14T14:29:07Z</time>
      </trkpt>
      <trkpt lat="43.41639" lon="6.01058">
        <ele>246.93266</ele>
        <time>2015-01-14T14:29:08Z</time>
      </trkpt>
      <trkpt lat="43.41639" lon="6.01061">
        <ele>246.91315</ele>
        <time>2015-01-14T14:29:09Z</time>
      </trkpt>
      <trkpt lat="43.41636" lon="6.01074">
        <ele>246.772</ele>
        <time>2015-01-14T14:29:14Z</time>
      </trkpt>
      <trkpt lat="43.4163" lon="6.01088">
        <ele>246.43015</ele>
        <time>2015-01-14T14:29:19Z</time>
      </trkpt>
      <trkpt lat="43.41623" lon="6.01097">
        <ele>246.03705</ele>
        <time>2015-01-14T14:29:24Z</time>
      </trkpt>
      <trkpt lat="43.41621" lon="6.01098">
        <ele>245.91574</ele>
        <time>2015-01-14T14:29:25Z</time>
      </trkpt>
      <trkpt lat="43.41616" lon="6.01109">
        <ele>245.66168</ele>
        <time>2015-01-14T14:29:28Z</time>
      </trkpt>
      <trkpt lat="43.41608" lon="6.01132">
        <ele>245.36185</ele>
        <time>2015-01-14T14:29:32Z</time>
      </trkpt>
      <trkpt lat="43.41603" lon="6.01143">
        <ele>245.16786</ele>
        <time>2015-01-14T14:29:34Z</time>
      </trkpt>
      <trkpt lat="43.41602" lon="6.0115">
        <ele>245.13638</ele>
        <time>2015-01-14T14:29:35Z</time>
      </trkpt>
      <trkpt lat="43.416" lon="6.01157">
        <ele>245.11578</ele>
        <time>2015-01-14T14:29:36Z</time>
      </trkpt>
      <trkpt lat="43.41597" lon="6.01178">
        <ele>245.24376</ele>
        <time>2015-01-14T14:29:39Z</time>
      </trkpt>
      <trkpt lat="43.41596" lon="6.01185">
        <ele>245.2791</ele>
        <time>2015-01-14T14:29:40Z</time>
      </trkpt>
      <trkpt lat="43.41596" lon="6.01199">
        <ele>245.56798</ele>
        <time>2015-01-14T14:29:42Z</time>
      </trkpt>
      <trkpt lat="43.41595" lon="6.01213">
        <ele>245.79256</ele>
        <time>2015-01-14T14:29:44Z</time>
      </trkpt>
      <trkpt lat="43.41595" lon="6.01225">
        <ele>246.02513</ele>
        <time>2015-01-14T14:29:46Z</time>
      </trkpt>
      <trkpt lat="43.41596" lon="6.01235">
        <ele>246.30037</ele>
        <time>2015-01-14T14:29:48Z</time>
      </trkpt>
      <trkpt lat="43.41597" lon="6.01244">
        <ele>246.52112</ele>
        <time>2015-01-14T14:29:51Z</time>
      </trkpt>
      <trkpt lat="43.41597" lon="6.01247">
        <ele>246.5946</ele>
        <time>2015-01-14T14:29:52Z</time>
      </trkpt>
      <trkpt lat="43.41601" lon="6.01257">
        <ele>246.9194</ele>
        <time>2015-01-14T14:29:55Z</time>
      </trkpt>
      <trkpt lat="43.41602" lon="6.01271">
        <ele>247.16489</ele>
        <time>2015-01-14T14:29:58Z</time>
      </trkpt>
      <trkpt lat="43.41605" lon="6.01287">
        <ele>247.48817</ele>
        <time>2015-01-14T14:30:01Z</time>
      </trkpt>
      <trkpt lat="43.41608" lon="6.01304">
        <ele>247.82864</ele>
        <time>2015-01-14T14:30:04Z</time>
      </trkpt>
      <trkpt lat="43.41608" lon="6.01329">
        <ele>248.15079</ele>
        <time>2015-01-14T14:30:09Z</time>
      </trkpt>
      <trkpt lat="43.41602" lon="6.01342">
        <ele>247.95233</ele>
        <time>2015-01-14T14:30:12Z</time>
      </trkpt>
      <trkpt lat="43.41599" lon="6.01345">
        <ele>247.86502</ele>
        <time>2015-01-14T14:30:13Z</time>
      </trkpt>
      <trkpt lat="43.41596" lon="6.01349">
        <ele>247.77536</ele>
        <time>2015-01-14T14:30:14Z</time>
      </trkpt>
      <trkpt lat="43.4159" lon="6.01354">
        <ele>247.57149</ele>
        <time>2015-01-14T14:30:16Z</time>
      </trkpt>
      <trkpt lat="43.41582" lon="6.01361">
        <ele>247.27817</ele>
        <time>2015-01-14T14:30:19Z</time>
      </trkpt>
      <trkpt lat="43.41578" lon="6.01368">
        <ele>247.15286</ele>
        <time>2015-01-14T14:30:21Z</time>
      </trkpt>
      <trkpt lat="43.41577" lon="6.01372">
        <ele>247.14771</ele>
        <time>2015-01-14T14:30:22Z</time>
      </trkpt>
      <trkpt lat="43.41574" lon="6.01381">
        <ele>247.14943</ele>
        <time>2015-01-14T14:30:24Z</time>
      </trkpt>
      <trkpt lat="43.41574" lon="6.01387">
        <ele>247.17975</ele>
        <time>2015-01-14T14:30:25Z</time>
      </trkpt>
      <trkpt lat="43.41571" lon="6.01397">
        <ele>247.19635</ele>
        <time>2015-01-14T14:30:27Z</time>
      </trkpt>
      <trkpt lat="43.41571" lon="6.01402">
        <ele>247.21753</ele>
        <time>2015-01-14T14:30:28Z</time>
      </trkpt>
      <trkpt lat="43.41569" lon="6.01429">
        <ele>247.3186</ele>
        <time>2015-01-14T14:30:33Z</time>
      </trkpt>
      <trkpt lat="43.4157" lon="6.0145">
        <ele>247.37354</ele>
        <time>2015-01-14T14:30:37Z</time>
      </trkpt>
      <trkpt lat="43.41573" lon="6.01467">
        <ele>247.52002</ele>
        <time>2015-01-14T14:30:41Z</time>
      </trkpt>
      <trkpt lat="43.41576" lon="6.01483">
        <ele>247.64819</ele>
        <time>2015-01-14T14:30:45Z</time>
      </trkpt>
      <trkpt lat="43.41577" lon="6.0149">
        <ele>247.68481</ele>
        <time>2015-01-14T14:30:47Z</time>
      </trkpt>
      <trkpt lat="43.41577" lon="6.01493">
        <ele>247.70313</ele>
        <time>2015-01-14T14:30:48Z</time>
      </trkpt>
      <trkpt lat="43.4158" lon="6.0151">
        <ele>247.84961</ele>
        <time>2015-01-14T14:30:53Z</time>
      </trkpt>
      <trkpt lat="43.41582" lon="6.01516">
        <ele>247.92285</ele>
        <time>2015-01-14T14:30:55Z</time>
      </trkpt>
      <trkpt lat="43.41583" lon="6.01521">
        <ele>247.99609</ele>
        <time>2015-01-14T14:30:57Z</time>
      </trkpt>
      <trkpt lat="43.41586" lon="6.01525">
        <ele>248.0932</ele>
        <time>2015-01-14T14:30:59Z</time>
      </trkpt>
      <trkpt lat="43.41589" lon="6.01527">
        <ele>248.18933</ele>
        <time>2015-01-14T14:31:01Z</time>
      </trkpt>
      <trkpt lat="43.4159" lon="6.01529">
        <ele>248.258</ele>
        <time>2015-01-14T14:31:03Z</time>
      </trkpt>
      <trkpt lat="43.41593" lon="6.01531">
        <ele>248.34039</ele>
        <time>2015-01-14T14:31:07Z</time>
      </trkpt>
      <trkpt lat="43.41594" lon="6.0153">
        <ele>248.36786</ele>
        <time>2015-01-14T14:31:13Z</time>
      </trkpt>
      <trkpt lat="43.41594" lon="6.0153">
        <ele>248.36786</ele>
        <time>2015-01-14T14:31:18Z</time>
      </trkpt>
      <trkpt lat="43.41594" lon="6.0153">
        <ele>248.36786</ele>
        <time>2015-01-14T14:31:23Z</time>
      </trkpt>
      <trkpt lat="43.41594" lon="6.01531">
        <ele>248.38159</ele>
        <time>2015-01-14T14:31:35Z</time>
      </trkpt>
      <trkpt lat="43.41595" lon="6.01532">
        <ele>248.40906</ele>
        <time>2015-01-14T14:31:36Z</time>
      </trkpt>
      <trkpt lat="43.41597" lon="6.01535">
        <ele>248.49146</ele>
        <time>2015-01-14T14:31:38Z</time>
      </trkpt>
      <trkpt lat="43.41603" lon="6.01542">
        <ele>248.69745</ele>
        <time>2015-01-14T14:31:43Z</time>
      </trkpt>
      <trkpt lat="43.41613" lon="6.01556">
        <ele>249.0545</ele>
        <time>2015-01-14T14:31:51Z</time>
      </trkpt>
      <trkpt lat="43.41614" lon="6.01559">
        <ele>249.0957</ele>
        <time>2015-01-14T14:31:52Z</time>
      </trkpt>
      <trkpt lat="43.41616" lon="6.01563">
        <ele>249.16437</ele>
        <time>2015-01-14T14:31:54Z</time>
      </trkpt>
      <trkpt lat="43.41616" lon="6.01567">
        <ele>249.1781</ele>
        <time>2015-01-14T14:31:57Z</time>
      </trkpt>
      <trkpt lat="43.41614" lon="6.01573">
        <ele>249.0957</ele>
        <time>2015-01-14T14:32:01Z</time>
      </trkpt>
      <trkpt lat="43.41608" lon="6.0158">
        <ele>248.87598</ele>
        <time>2015-01-14T14:32:06Z</time>
      </trkpt>
      <trkpt lat="43.41606" lon="6.01581">
        <ele>248.80731</ele>
        <time>2015-01-14T14:32:07Z</time>
      </trkpt>
      <trkpt lat="43.41591" lon="6.01593">
        <ele>248.29625</ele>
        <time>2015-01-14T14:32:13Z</time>
      </trkpt>
      <trkpt lat="43.41563" lon="6.01613">
        <ele>247.00732</ele>
        <time>2015-01-14T14:32:20Z</time>
      </trkpt>
      <trkpt lat="43.41537" lon="6.01626">
        <ele>245.79883</ele>
        <time>2015-01-14T14:32:24Z</time>
      </trkpt>
      <trkpt lat="43.41523" lon="6.01632">
        <ele>245.12134</ele>
        <time>2015-01-14T14:32:26Z</time>
      </trkpt>
      <trkpt lat="43.41516" lon="6.01635">
        <ele>244.75513</ele>
        <time>2015-01-14T14:32:27Z</time>
      </trkpt>
      <trkpt lat="43.41492" lon="6.01642">
        <ele>243.72864</ele>
        <time>2015-01-14T14:32:30Z</time>
      </trkpt>
      <trkpt lat="43.41485" lon="6.01644">
        <ele>243.45398</ele>
        <time>2015-01-14T14:32:31Z</time>
      </trkpt>
      <trkpt lat="43.41478" lon="6.01646">
        <ele>243.19305</ele>
        <time>2015-01-14T14:32:32Z</time>
      </trkpt>
      <trkpt lat="43.41464" lon="6.01648">
        <ele>242.69867</ele>
        <time>2015-01-14T14:32:34Z</time>
      </trkpt>
      <trkpt lat="43.41446" lon="6.0165">
        <ele>242.05322</ele>
        <time>2015-01-14T14:32:37Z</time>
      </trkpt>
      <trkpt lat="43.41441" lon="6.01652">
        <ele>241.86096</ele>
        <time>2015-01-14T14:32:38Z</time>
      </trkpt>
      <trkpt lat="43.41427" lon="6.01661">
        <ele>241.36658</ele>
        <time>2015-01-14T14:32:41Z</time>
      </trkpt>
      <trkpt lat="43.41423" lon="6.01664">
        <ele>241.21552</ele>
        <time>2015-01-14T14:32:42Z</time>
      </trkpt>
      <trkpt lat="43.41419" lon="6.01667">
        <ele>241.09227</ele>
        <time>2015-01-14T14:32:43Z</time>
      </trkpt>
      <trkpt lat="43.41415" lon="6.01674">
        <ele>241.18478</ele>
        <time>2015-01-14T14:32:45Z</time>
      </trkpt>
      <trkpt lat="43.41421" lon="6.01686">
        <ele>241.60175</ele>
        <time>2015-01-14T14:32:48Z</time>
      </trkpt>
      <trkpt lat="43.41433" lon="6.01707">
        <ele>242.46774</ele>
        <time>2015-01-14T14:32:53Z</time>
      </trkpt>
      <trkpt lat="43.4144" lon="6.0172">
        <ele>242.95433</ele>
        <time>2015-01-14T14:32:56Z</time>
      </trkpt>
      <trkpt lat="43.41451" lon="6.01744">
        <ele>243.6942</ele>
        <time>2015-01-14T14:33:01Z</time>
      </trkpt>
      <trkpt lat="43.41456" lon="6.01758">
        <ele>244.18895</ele>
        <time>2015-01-14T14:33:04Z</time>
      </trkpt>
      <trkpt lat="43.41462" lon="6.01773">
        <ele>244.74344</ele>
        <time>2015-01-14T14:33:07Z</time>
      </trkpt>
      <trkpt lat="43.41477" lon="6.01812">
        <ele>246.13945</ele>
        <time>2015-01-14T14:33:15Z</time>
      </trkpt>
      <trkpt lat="43.41486" lon="6.01844">
        <ele>247.10648</ele>
        <time>2015-01-14T14:33:21Z</time>
      </trkpt>
      <trkpt lat="43.41487" lon="6.0185">
        <ele>247.26366</ele>
        <time>2015-01-14T14:33:22Z</time>
      </trkpt>
      <trkpt lat="43.41488" lon="6.01861">
        <ele>247.56381</ele>
        <time>2015-01-14T14:33:24Z</time>
      </trkpt>
      <trkpt lat="43.41489" lon="6.01872">
        <ele>247.85297</ele>
        <time>2015-01-14T14:33:26Z</time>
      </trkpt>
      <trkpt lat="43.4149" lon="6.01883">
        <ele>248.13477</ele>
        <time>2015-01-14T14:33:28Z</time>
      </trkpt>
      <trkpt lat="43.41491" lon="6.01893">
        <ele>248.40221</ele>
        <time>2015-01-14T14:33:30Z</time>
      </trkpt>
      <trkpt lat="43.41492" lon="6.0191">
        <ele>248.83887</ele>
        <time>2015-01-14T14:33:34Z</time>
      </trkpt>
      <trkpt lat="43.41492" lon="6.01914">
        <ele>248.92773</ele>
        <time>2015-01-14T14:33:35Z</time>
      </trkpt>
      <trkpt lat="43.41492" lon="6.01918">
        <ele>249.02228</ele>
        <time>2015-01-14T14:33:36Z</time>
      </trkpt>
      <trkpt lat="43.41492" lon="6.01926">
        <ele>249.22438</ele>
        <time>2015-01-14T14:33:38Z</time>
      </trkpt>
      <trkpt lat="43.41493" lon="6.01935">
        <ele>249.46397</ele>
        <time>2015-01-14T14:33:40Z</time>
      </trkpt>
      <trkpt lat="43.41495" lon="6.01945">
        <ele>249.71368</ele>
        <time>2015-01-14T14:33:42Z</time>
      </trkpt>
      <trkpt lat="43.41498" lon="6.01972">
        <ele>250.33109</ele>
        <time>2015-01-14T14:33:47Z</time>
      </trkpt>
      <trkpt lat="43.415" lon="6.01988">
        <ele>250.72037</ele>
        <time>2015-01-14T14:33:50Z</time>
      </trkpt>
      <trkpt lat="43.41502" lon="6.01999">
        <ele>250.9796</ele>
        <time>2015-01-14T14:33:52Z</time>
      </trkpt>
      <trkpt lat="43.41504" lon="6.0201">
        <ele>251.11899</ele>
        <time>2015-01-14T14:33:54Z</time>
      </trkpt>
      <trkpt lat="43.41506" lon="6.02026">
        <ele>251.31125</ele>
        <time>2015-01-14T14:33:57Z</time>
      </trkpt>
      <trkpt lat="43.4151" lon="6.02053">
        <ele>251.63855</ele>
        <time>2015-01-14T14:34:02Z</time>
      </trkpt>
      <trkpt lat="43.41511" lon="6.02064">
        <ele>251.76788</ele>
        <time>2015-01-14T14:34:04Z</time>
      </trkpt>
      <trkpt lat="43.41512" lon="6.02074">
        <ele>251.89319</ele>
        <time>2015-01-14T14:34:06Z</time>
      </trkpt>
      <trkpt lat="43.41514" lon="6.0209">
        <ele>252.13539</ele>
        <time>2015-01-14T14:34:09Z</time>
      </trkpt>
      <trkpt lat="43.41516" lon="6.02104">
        <ele>252.4397</ele>
        <time>2015-01-14T14:34:12Z</time>
      </trkpt>
      <trkpt lat="43.41515" lon="6.02121">
        <ele>252.82948</ele>
        <time>2015-01-14T14:34:16Z</time>
      </trkpt>
      <trkpt lat="43.41504" lon="6.0215">
        <ele>253.56578</ele>
        <time>2015-01-14T14:34:23Z</time>
      </trkpt>
      <trkpt lat="43.41502" lon="6.02159">
        <ele>253.80006</ele>
        <time>2015-01-14T14:34:25Z</time>
      </trkpt>
      <trkpt lat="43.41497" lon="6.02172">
        <ele>254.26649</ele>
        <time>2015-01-14T14:34:28Z</time>
      </trkpt>
      <trkpt lat="43.41496" lon="6.02176">
        <ele>254.43358</ele>
        <time>2015-01-14T14:34:29Z</time>
      </trkpt>
      <trkpt lat="43.41494" lon="6.0218">
        <ele>254.59837</ele>
        <time>2015-01-14T14:34:30Z</time>
      </trkpt>
      <trkpt lat="43.41492" lon="6.02186">
        <ele>254.84328</ele>
        <time>2015-01-14T14:34:32Z</time>
      </trkpt>
      <trkpt lat="43.41491" lon="6.02189">
        <ele>254.96458</ele>
        <time>2015-01-14T14:34:33Z</time>
      </trkpt>
      <trkpt lat="43.4149" lon="6.02191">
        <ele>255.08131</ele>
        <time>2015-01-14T14:34:34Z</time>
      </trkpt>
      <trkpt lat="43.41486" lon="6.02203">
        <ele>255.54366</ele>
        <time>2015-01-14T14:34:38Z</time>
      </trkpt>
      <trkpt lat="43.41485" lon="6.02206">
        <ele>255.66382</ele>
        <time>2015-01-14T14:34:39Z</time>
      </trkpt>
      <trkpt lat="43.41481" lon="6.02219">
        <ele>256.15704</ele>
        <time>2015-01-14T14:34:43Z</time>
      </trkpt>
      <trkpt lat="43.41479" lon="6.02225">
        <ele>256.3974</ele>
        <time>2015-01-14T14:34:45Z</time>
      </trkpt>
      <trkpt lat="43.41473" lon="6.02248">
        <ele>257.27744</ele>
        <time>2015-01-14T14:34:51Z</time>
      </trkpt>
      <trkpt lat="43.41467" lon="6.02266">
        <ele>257.83087</ele>
        <time>2015-01-14T14:34:55Z</time>
      </trkpt>
      <trkpt lat="43.41465" lon="6.0227">
        <ele>257.96982</ele>
        <time>2015-01-14T14:34:56Z</time>
      </trkpt>
      <trkpt lat="43.41459" lon="6.0229">
        <ele>258.47479</ele>
        <time>2015-01-14T14:35:01Z</time>
      </trkpt>
      <trkpt lat="43.41457" lon="6.02294">
        <ele>258.56122</ele>
        <time>2015-01-14T14:35:02Z</time>
      </trkpt>
      <trkpt lat="43.41456" lon="6.02298">
        <ele>258.64459</ele>
        <time>2015-01-14T14:35:03Z</time>
      </trkpt>
      <trkpt lat="43.41455" lon="6.02302">
        <ele>258.74127</ele>
        <time>2015-01-14T14:35:04Z</time>
      </trkpt>
      <trkpt lat="43.41446" lon="6.02323">
        <ele>259.21365</ele>
        <time>2015-01-14T14:35:10Z</time>
      </trkpt>
      <trkpt lat="43.4144" lon="6.02339">
        <ele>259.46222</ele>
        <time>2015-01-14T14:35:14Z</time>
      </trkpt>
      <trkpt lat="43.41433" lon="6.02353">
        <ele>259.66388</ele>
        <time>2015-01-14T14:35:18Z</time>
      </trkpt>
      <trkpt lat="43.41429" lon="6.02361">
        <ele>259.74979</ele>
        <time>2015-01-14T14:35:20Z</time>
      </trkpt>
      <trkpt lat="43.41426" lon="6.02368">
        <ele>259.82111</ele>
        <time>2015-01-14T14:35:22Z</time>
      </trkpt>
      <trkpt lat="43.41423" lon="6.02376">
        <ele>259.89297</ele>
        <time>2015-01-14T14:35:24Z</time>
      </trkpt>
      <trkpt lat="43.41417" lon="6.02387">
        <ele>259.98944</ele>
        <time>2015-01-14T14:35:27Z</time>
      </trkpt>
      <trkpt lat="43.4141" lon="6.02404">
        <ele>259.92078</ele>
        <time>2015-01-14T14:35:31Z</time>
      </trkpt>
      <trkpt lat="43.41405" lon="6.02419">
        <ele>259.85251</ele>
        <time>2015-01-14T14:35:34Z</time>
      </trkpt>
      <trkpt lat="43.41401" lon="6.0244">
        <ele>259.75812</ele>
        <time>2015-01-14T14:35:37Z</time>
      </trkpt>
      <trkpt lat="43.41398" lon="6.02456">
        <ele>259.66907</ele>
        <time>2015-01-14T14:35:39Z</time>
      </trkpt>
      <trkpt lat="43.41397" lon="6.02465">
        <ele>259.62262</ele>
        <time>2015-01-14T14:35:40Z</time>
      </trkpt>
      <trkpt lat="43.41392" lon="6.02492">
        <ele>259.44019</ele>
        <time>2015-01-14T14:35:43Z</time>
      </trkpt>
      <trkpt lat="43.41387" lon="6.02509">
        <ele>259.25534</ele>
        <time>2015-01-14T14:35:45Z</time>
      </trkpt>
      <trkpt lat="43.41384" lon="6.02526">
        <ele>259.08841</ele>
        <time>2015-01-14T14:35:47Z</time>
      </trkpt>
      <trkpt lat="43.41382" lon="6.02545">
        <ele>258.9487</ele>
        <time>2015-01-14T14:35:49Z</time>
      </trkpt>
      <trkpt lat="43.41383" lon="6.02585">
        <ele>258.77414</ele>
        <time>2015-01-14T14:35:53Z</time>
      </trkpt>
      <trkpt lat="43.41383" lon="6.02596">
        <ele>258.56592</ele>
        <time>2015-01-14T14:35:54Z</time>
      </trkpt>
      <trkpt lat="43.41378" lon="6.02617">
        <ele>258.01361</ele>
        <time>2015-01-14T14:35:56Z</time>
      </trkpt>
      <trkpt lat="43.41375" lon="6.02629">
        <ele>257.6683</ele>
        <time>2015-01-14T14:35:57Z</time>
      </trkpt>
      <trkpt lat="43.41371" lon="6.0264">
        <ele>257.30826</ele>
        <time>2015-01-14T14:35:58Z</time>
      </trkpt>
      <trkpt lat="43.41363" lon="6.02662">
        <ele>256.51648</ele>
        <time>2015-01-14T14:36:00Z</time>
      </trkpt>
      <trkpt lat="43.41359" lon="6.02674">
        <ele>256.16431</ele>
        <time>2015-01-14T14:36:01Z</time>
      </trkpt>
      <trkpt lat="43.41351" lon="6.02694">
        <ele>255.53601</ele>
        <time>2015-01-14T14:36:03Z</time>
      </trkpt>
      <trkpt lat="43.41343" lon="6.02711">
        <ele>254.9472</ele>
        <time>2015-01-14T14:36:05Z</time>
      </trkpt>
      <trkpt lat="43.41339" lon="6.02717">
        <ele>254.65311</ele>
        <time>2015-01-14T14:36:06Z</time>
      </trkpt>
      <trkpt lat="43.41328" lon="6.02726">
        <ele>253.99173</ele>
        <time>2015-01-14T14:36:08Z</time>
      </trkpt>
      <trkpt lat="43.41301" lon="6.02745">
        <ele>252.1189</ele>
        <time>2015-01-14T14:36:13Z</time>
      </trkpt>
      <trkpt lat="43.41279" lon="6.02759">
        <ele>250.69325</ele>
        <time>2015-01-14T14:36:17Z</time>
      </trkpt>
      <trkpt lat="43.41262" lon="6.02771">
        <ele>249.70863</ele>
        <time>2015-01-14T14:36:20Z</time>
      </trkpt>
      <trkpt lat="43.41255" lon="6.02784">
        <ele>249.28604</ele>
        <time>2015-01-14T14:36:22Z</time>
      </trkpt>
      <trkpt lat="43.41252" lon="6.02812">
        <ele>249.08968</ele>
        <time>2015-01-14T14:36:25Z</time>
      </trkpt>
      <trkpt lat="43.41249" lon="6.0285">
        <ele>248.57318</ele>
        <time>2015-01-14T14:36:29Z</time>
      </trkpt>
      <trkpt lat="43.41245" lon="6.02909">
        <ele>247.01088</ele>
        <time>2015-01-14T14:36:35Z</time>
      </trkpt>
      <trkpt lat="43.41238" lon="6.02946">
        <ele>245.49408</ele>
        <time>2015-01-14T14:36:39Z</time>
      </trkpt>
      <trkpt lat="43.41234" lon="6.02955">
        <ele>245.0426</ele>
        <time>2015-01-14T14:36:40Z</time>
      </trkpt>
      <trkpt lat="43.41215" lon="6.02987">
        <ele>243.21269</ele>
        <time>2015-01-14T14:36:44Z</time>
      </trkpt>
      <trkpt lat="43.41211" lon="6.02995">
        <ele>242.7681</ele>
        <time>2015-01-14T14:36:45Z</time>
      </trkpt>
      <trkpt lat="43.41191" lon="6.03045">
        <ele>241.00902</ele>
        <time>2015-01-14T14:36:50Z</time>
      </trkpt>
      <trkpt lat="43.41187" lon="6.03056">
        <ele>240.72173</ele>
        <time>2015-01-14T14:36:51Z</time>
      </trkpt>
      <trkpt lat="43.41167" lon="6.03101">
        <ele>240.0114</ele>
        <time>2015-01-14T14:36:55Z</time>
      </trkpt>
      <trkpt lat="43.41157" lon="6.03122">
        <ele>239.94476</ele>
        <time>2015-01-14T14:36:57Z</time>
      </trkpt>
      <trkpt lat="43.41146" lon="6.03144">
        <ele>239.82278</ele>
        <time>2015-01-14T14:36:59Z</time>
      </trkpt>
      <trkpt lat="43.41123" lon="6.03201">
        <ele>239.47839</ele>
        <time>2015-01-14T14:37:04Z</time>
      </trkpt>
      <trkpt lat="43.41112" lon="6.03222">
        <ele>239.34106</ele>
        <time>2015-01-14T14:37:06Z</time>
      </trkpt>
      <trkpt lat="43.41081" lon="6.03268">
        <ele>238.72508</ele>
        <time>2015-01-14T14:37:11Z</time>
      </trkpt>
      <trkpt lat="43.41062" lon="6.03295">
        <ele>237.93716</ele>
        <time>2015-01-14T14:37:14Z</time>
      </trkpt>
      <trkpt lat="43.41038" lon="6.03333">
        <ele>236.91005</ele>
        <time>2015-01-14T14:37:18Z</time>
      </trkpt>
      <trkpt lat="43.41022" lon="6.03348">
        <ele>236.36302</ele>
        <time>2015-01-14T14:37:20Z</time>
      </trkpt>
      <trkpt lat="43.41016" lon="6.03356">
        <ele>236.11697</ele>
        <time>2015-01-14T14:37:21Z</time>
      </trkpt>
      <trkpt lat="43.40997" lon="6.0338">
        <ele>235.37196</ele>
        <time>2015-01-14T14:37:24Z</time>
      </trkpt>
      <trkpt lat="43.40987" lon="6.03392">
        <ele>234.99889</ele>
        <time>2015-01-14T14:37:26Z</time>
      </trkpt>
      <trkpt lat="43.40984" lon="6.03395">
        <ele>234.87186</ele>
        <time>2015-01-14T14:37:27Z</time>
      </trkpt>
      <trkpt lat="43.4098" lon="6.03399">
        <ele>234.73796</ele>
        <time>2015-01-14T14:37:30Z</time>
      </trkpt>
      <trkpt lat="43.4098" lon="6.03399">
        <ele>234.73853</ele>
        <time>2015-01-14T14:37:31Z</time>
      </trkpt>
      <trkpt lat="43.40981" lon="6.03399">
        <ele>234.74368</ele>
        <time>2015-01-14T14:37:44Z</time>
      </trkpt>
      <trkpt lat="43.4098" lon="6.034">
        <ele>234.71622</ele>
        <time>2015-01-14T14:38:22Z</time>
      </trkpt>
      <trkpt lat="43.4098" lon="6.034">
        <ele>234.71393</ele>
        <time>2015-01-14T14:38:27Z</time>
      </trkpt>
      <trkpt lat="43.40974" lon="6.03421">
        <ele>234.34346</ele>
        <time>2015-01-14T14:38:45Z</time>
      </trkpt>
      <trkpt lat="43.40973" lon="6.03453">
        <ele>234.05565</ele>
        <time>2015-01-14T14:38:52Z</time>
      </trkpt>
      <trkpt lat="43.40973" lon="6.03496">
        <ele>233.70621</ele>
        <time>2015-01-14T14:38:59Z</time>
      </trkpt>
      <trkpt lat="43.40973" lon="6.03514">
        <ele>233.50848</ele>
        <time>2015-01-14T14:39:01Z</time>
      </trkpt>
      <trkpt lat="43.40973" lon="6.03523">
        <ele>233.40033</ele>
        <time>2015-01-14T14:39:02Z</time>
      </trkpt>
      <trkpt lat="43.40973" lon="6.03551">
        <ele>233.06502</ele>
        <time>2015-01-14T14:39:05Z</time>
      </trkpt>
      <trkpt lat="43.40974" lon="6.0359">
        <ele>232.57172</ele>
        <time>2015-01-14T14:39:10Z</time>
      </trkpt>
      <trkpt lat="43.40974" lon="6.03598">
        <ele>232.45123</ele>
        <time>2015-01-14T14:39:11Z</time>
      </trkpt>
      <trkpt lat="43.40973" lon="6.03657">
        <ele>231.50095</ele>
        <time>2015-01-14T14:39:18Z</time>
      </trkpt>
      <trkpt lat="43.40973" lon="6.0369">
        <ele>231.07642</ele>
        <time>2015-01-14T14:39:22Z</time>
      </trkpt>
      <trkpt lat="43.40973" lon="6.03697">
        <ele>230.9946</ele>
        <time>2015-01-14T14:39:23Z</time>
      </trkpt>
      <trkpt lat="43.40974" lon="6.0374">
        <ele>230.5065</ele>
        <time>2015-01-14T14:39:29Z</time>
      </trkpt>
      <trkpt lat="43.40974" lon="6.03746">
        <ele>230.42868</ele>
        <time>2015-01-14T14:39:30Z</time>
      </trkpt>
      <trkpt lat="43.40975" lon="6.03768">
        <ele>230.17462</ele>
        <time>2015-01-14T14:39:34Z</time>
      </trkpt>
      <trkpt lat="43.40975" lon="6.03773">
        <ele>230.11511</ele>
        <time>2015-01-14T14:39:36Z</time>
      </trkpt>
      <trkpt lat="43.40976" lon="6.0378">
        <ele>230.05161</ele>
        <time>2015-01-14T14:39:41Z</time>
      </trkpt>
      <trkpt lat="43.40976" lon="6.03796">
        <ele>229.87021</ele>
        <time>2015-01-14T14:39:47Z</time>
      </trkpt>
      <trkpt lat="43.40979" lon="6.03828">
        <ele>229.5515</ele>
        <time>2015-01-14T14:39:53Z</time>
      </trkpt>
      <trkpt lat="43.40984" lon="6.03882">
        <ele>229.03308</ele>
        <time>2015-01-14T14:40:01Z</time>
      </trkpt>
      <trkpt lat="43.4098" lon="6.03945">
        <ele>228.09445</ele>
        <time>2015-01-14T14:40:09Z</time>
      </trkpt>
      <trkpt lat="43.40976" lon="6.04">
        <ele>227.14749</ele>
        <time>2015-01-14T14:40:15Z</time>
      </trkpt>
      <trkpt lat="43.40977" lon="6.04054">
        <ele>226.50948</ele>
        <time>2015-01-14T14:40:20Z</time>
      </trkpt>
      <trkpt lat="43.40977" lon="6.04077">
        <ele>226.24799</ele>
        <time>2015-01-14T14:40:22Z</time>
      </trkpt>
      <trkpt lat="43.40977" lon="6.04162">
        <ele>224.56175</ele>
        <time>2015-01-14T14:40:29Z</time>
      </trkpt>
      <trkpt lat="43.40977" lon="6.04174">
        <ele>224.34778</ele>
        <time>2015-01-14T14:40:30Z</time>
      </trkpt>
      <trkpt lat="43.40977" lon="6.04186">
        <ele>224.16461</ele>
        <time>2015-01-14T14:40:31Z</time>
      </trkpt>
      <trkpt lat="43.40978" lon="6.0423">
        <ele>223.5154</ele>
        <time>2015-01-14T14:40:35Z</time>
      </trkpt>
      <trkpt lat="43.40977" lon="6.04258">
        <ele>223.09248</ele>
        <time>2015-01-14T14:40:38Z</time>
      </trkpt>
      <trkpt lat="43.40978" lon="6.04264">
        <ele>223.03069</ele>
        <time>2015-01-14T14:40:39Z</time>
      </trkpt>
      <trkpt lat="43.40979" lon="6.04276">
        <ele>222.91853</ele>
        <time>2015-01-14T14:40:41Z</time>
      </trkpt>
      <trkpt lat="43.40979" lon="6.04282">
        <ele>222.87733</ele>
        <time>2015-01-14T14:40:42Z</time>
      </trkpt>
      <trkpt lat="43.40988" lon="6.04294">
        <ele>223.04956</ele>
        <time>2015-01-14T14:40:45Z</time>
      </trkpt>
      <trkpt lat="43.41001" lon="6.04313">
        <ele>223.267</ele>
        <time>2015-01-14T14:40:49Z</time>
      </trkpt>
      <trkpt lat="43.41004" lon="6.04326">
        <ele>223.22638</ele>
        <time>2015-01-14T14:40:51Z</time>
      </trkpt>
      <trkpt lat="43.41013" lon="6.04367">
        <ele>223.0799</ele>
        <time>2015-01-14T14:40:57Z</time>
      </trkpt>
      <trkpt lat="43.41025" lon="6.04408">
        <ele>223.01523</ele>
        <time>2015-01-14T14:41:03Z</time>
      </trkpt>
      <trkpt lat="43.41028" lon="6.04414">
        <ele>223.02896</ele>
        <time>2015-01-14T14:41:04Z</time>
      </trkpt>
      <trkpt lat="43.41031" lon="6.04421">
        <ele>223.049</ele>
        <time>2015-01-14T14:41:05Z</time>
      </trkpt>
      <trkpt lat="43.41034" lon="6.04427">
        <ele>223.07875</ele>
        <time>2015-01-14T14:41:06Z</time>
      </trkpt>
      <trkpt lat="43.4104" lon="6.0444">
        <ele>223.14914</ele>
        <time>2015-01-14T14:41:08Z</time>
      </trkpt>
      <trkpt lat="43.41047" lon="6.04451">
        <ele>223.26587</ele>
        <time>2015-01-14T14:41:10Z</time>
      </trkpt>
      <trkpt lat="43.41053" lon="6.04461">
        <ele>223.37973</ele>
        <time>2015-01-14T14:41:12Z</time>
      </trkpt>
      <trkpt lat="43.41086" lon="6.04504">
        <ele>224.04005</ele>
        <time>2015-01-14T14:41:21Z</time>
      </trkpt>
      <trkpt lat="43.41103" lon="6.04525">
        <ele>224.42</ele>
        <time>2015-01-14T14:41:25Z</time>
      </trkpt>
      <trkpt lat="43.41112" lon="6.04536">
        <ele>224.59222</ele>
        <time>2015-01-14T14:41:27Z</time>
      </trkpt>
      <trkpt lat="43.41121" lon="6.04547">
        <ele>224.77248</ele>
        <time>2015-01-14T14:41:29Z</time>
      </trkpt>
      <trkpt lat="43.4113" lon="6.04558">
        <ele>224.96759</ele>
        <time>2015-01-14T14:41:31Z</time>
      </trkpt>
      <trkpt lat="43.41146" lon="6.04579">
        <ele>225.32693</ele>
        <time>2015-01-14T14:41:35Z</time>
      </trkpt>
      <trkpt lat="43.41154" lon="6.0459">
        <ele>225.48659</ele>
        <time>2015-01-14T14:41:37Z</time>
      </trkpt>
      <trkpt lat="43.4119" lon="6.04634">
        <ele>226.24533</ele>
        <time>2015-01-14T14:41:46Z</time>
      </trkpt>
      <trkpt lat="43.41209" lon="6.04657">
        <ele>226.62642</ele>
        <time>2015-01-14T14:41:51Z</time>
      </trkpt>
      <trkpt lat="43.41241" lon="6.04708">
        <ele>227.19806</ele>
        <time>2015-01-14T14:42:01Z</time>
      </trkpt>
      <trkpt lat="43.41254" lon="6.04726">
        <ele>227.44778</ele>
        <time>2015-01-14T14:42:05Z</time>
      </trkpt>
      <trkpt lat="43.41257" lon="6.04731">
        <ele>227.50798</ele>
        <time>2015-01-14T14:42:06Z</time>
      </trkpt>
      <trkpt lat="43.41266" lon="6.04743">
        <ele>227.68604</ele>
        <time>2015-01-14T14:42:09Z</time>
      </trkpt>
      <trkpt lat="43.41278" lon="6.04759">
        <ele>227.88756</ele>
        <time>2015-01-14T14:42:13Z</time>
      </trkpt>
      <trkpt lat="43.41283" lon="6.04767">
        <ele>227.98654</ele>
        <time>2015-01-14T14:42:15Z</time>
      </trkpt>
      <trkpt lat="43.41291" lon="6.04779">
        <ele>228.13475</ele>
        <time>2015-01-14T14:42:18Z</time>
      </trkpt>
      <trkpt lat="43.41298" lon="6.0479">
        <ele>228.25662</ele>
        <time>2015-01-14T14:42:21Z</time>
      </trkpt>
      <trkpt lat="43.41303" lon="6.04798">
        <ele>228.34247</ele>
        <time>2015-01-14T14:42:23Z</time>
      </trkpt>
      <trkpt lat="43.41309" lon="6.04806">
        <ele>228.44145</ele>
        <time>2015-01-14T14:42:25Z</time>
      </trkpt>
      <trkpt lat="43.41317" lon="6.0482">
        <ele>228.58621</ele>
        <time>2015-01-14T14:42:29Z</time>
      </trkpt>
      <trkpt lat="43.4132" lon="6.04824">
        <ele>228.62399</ele>
        <time>2015-01-14T14:42:30Z</time>
      </trkpt>
      <trkpt lat="43.41326" lon="6.04835">
        <ele>228.72412</ele>
        <time>2015-01-14T14:42:33Z</time>
      </trkpt>
      <trkpt lat="43.4133" lon="6.04843">
        <ele>228.77847</ele>
        <time>2015-01-14T14:42:35Z</time>
      </trkpt>
      <trkpt lat="43.41333" lon="6.04847">
        <ele>228.81052</ele>
        <time>2015-01-14T14:42:36Z</time>
      </trkpt>
      <trkpt lat="43.41336" lon="6.04855">
        <ele>228.93031</ele>
        <time>2015-01-14T14:42:38Z</time>
      </trkpt>
      <trkpt lat="43.41342" lon="6.04866">
        <ele>229.14317</ele>
        <time>2015-01-14T14:42:41Z</time>
      </trkpt>
      <trkpt lat="43.41344" lon="6.0487">
        <ele>229.21011</ele>
        <time>2015-01-14T14:42:42Z</time>
      </trkpt>
      <trkpt lat="43.4135" lon="6.04881">
        <ele>229.43671</ele>
        <time>2015-01-14T14:42:45Z</time>
      </trkpt>
      <trkpt lat="43.4136" lon="6.04902">
        <ele>229.78119</ele>
        <time>2015-01-14T14:42:50Z</time>
      </trkpt>
      <trkpt lat="43.41367" lon="6.04915">
        <ele>230.01807</ele>
        <time>2015-01-14T14:42:53Z</time>
      </trkpt>
      <trkpt lat="43.41371" lon="6.04924">
        <ele>230.1823</ele>
        <time>2015-01-14T14:42:55Z</time>
      </trkpt>
      <trkpt lat="43.41374" lon="6.04928">
        <ele>230.2916</ele>
        <time>2015-01-14T14:42:56Z</time>
      </trkpt>
      <trkpt lat="43.41377" lon="6.04932">
        <ele>230.4272</ele>
        <time>2015-01-14T14:42:57Z</time>
      </trkpt>
      <trkpt lat="43.41392" lon="6.04954">
        <ele>231.0755</ele>
        <time>2015-01-14T14:43:02Z</time>
      </trkpt>
      <trkpt lat="43.41395" lon="6.04959">
        <ele>231.17621</ele>
        <time>2015-01-14T14:43:03Z</time>
      </trkpt>
      <trkpt lat="43.41402" lon="6.04976">
        <ele>231.43372</ele>
        <time>2015-01-14T14:43:06Z</time>
      </trkpt>
      <trkpt lat="43.4141" lon="6.04994">
        <ele>231.7038</ele>
        <time>2015-01-14T14:43:09Z</time>
      </trkpt>
      <trkpt lat="43.41416" lon="6.05006">
        <ele>231.83728</ele>
        <time>2015-01-14T14:43:11Z</time>
      </trkpt>
      <trkpt lat="43.41425" lon="6.05024">
        <ele>231.84538</ele>
        <time>2015-01-14T14:43:14Z</time>
      </trkpt>
      <trkpt lat="43.41431" lon="6.05037">
        <ele>231.86531</ele>
        <time>2015-01-14T14:43:16Z</time>
      </trkpt>
      <trkpt lat="43.41439" lon="6.05055">
        <ele>231.9281</ele>
        <time>2015-01-14T14:43:19Z</time>
      </trkpt>
      <trkpt lat="43.41451" lon="6.0508">
        <ele>232.09773</ele>
        <time>2015-01-14T14:43:23Z</time>
      </trkpt>
      <trkpt lat="43.4146" lon="6.05098">
        <ele>232.30545</ele>
        <time>2015-01-14T14:43:26Z</time>
      </trkpt>
      <trkpt lat="43.41487" lon="6.05156">
        <ele>232.593</ele>
        <time>2015-01-14T14:43:35Z</time>
      </trkpt>
      <trkpt lat="43.4151" lon="6.05206">
        <ele>232.90536</ele>
        <time>2015-01-14T14:43:43Z</time>
      </trkpt>
      <trkpt lat="43.41534" lon="6.05256">
        <ele>233.15141</ele>
        <time>2015-01-14T14:43:52Z</time>
      </trkpt>
      <trkpt lat="43.41538" lon="6.05268">
        <ele>233.15714</ele>
        <time>2015-01-14T14:43:54Z</time>
      </trkpt>
      <trkpt lat="43.41541" lon="6.05275">
        <ele>233.164</ele>
        <time>2015-01-14T14:43:55Z</time>
      </trkpt>
      <trkpt lat="43.41548" lon="6.053">
        <ele>233.13025</ele>
        <time>2015-01-14T14:43:59Z</time>
      </trkpt>
      <trkpt lat="43.41552" lon="6.05314">
        <ele>233.09019</ele>
        <time>2015-01-14T14:44:01Z</time>
      </trkpt>
      <trkpt lat="43.41558" lon="6.05333">
        <ele>233.08046</ele>
        <time>2015-01-14T14:44:04Z</time>
      </trkpt>
      <trkpt lat="43.41567" lon="6.05355">
        <ele>233.15485</ele>
        <time>2015-01-14T14:44:08Z</time>
      </trkpt>
      <trkpt lat="43.41574" lon="6.05372">
        <ele>233.19434</ele>
        <time>2015-01-14T14:44:11Z</time>
      </trkpt>
      <trkpt lat="43.41576" lon="6.05377">
        <ele>233.20691</ele>
        <time>2015-01-14T14:44:12Z</time>
      </trkpt>
      <trkpt lat="43.41582" lon="6.05394">
        <ele>233.21036</ele>
        <time>2015-01-14T14:44:15Z</time>
      </trkpt>
      <trkpt lat="43.41598" lon="6.05448">
        <ele>233.15828</ele>
        <time>2015-01-14T14:44:24Z</time>
      </trkpt>
      <trkpt lat="43.416" lon="6.05454">
        <ele>233.14969</ele>
        <time>2015-01-14T14:44:25Z</time>
      </trkpt>
      <trkpt lat="43.41603" lon="6.05467">
        <ele>233.12567</ele>
        <time>2015-01-14T14:44:27Z</time>
      </trkpt>
      <trkpt lat="43.41609" lon="6.05486">
        <ele>233.08789</ele>
        <time>2015-01-14T14:44:30Z</time>
      </trkpt>
      <trkpt lat="43.41613" lon="6.05498">
        <ele>233.07532</ele>
        <time>2015-01-14T14:44:32Z</time>
      </trkpt>
      <trkpt lat="43.41615" lon="6.05504">
        <ele>233.0918</ele>
        <time>2015-01-14T14:44:33Z</time>
      </trkpt>
      <trkpt lat="43.41616" lon="6.0551">
        <ele>233.11609</ele>
        <time>2015-01-14T14:44:34Z</time>
      </trkpt>
      <trkpt lat="43.41619" lon="6.05522">
        <ele>233.15184</ele>
        <time>2015-01-14T14:44:36Z</time>
      </trkpt>
      <trkpt lat="43.41621" lon="6.05527">
        <ele>233.17714</ele>
        <time>2015-01-14T14:44:37Z</time>
      </trkpt>
      <trkpt lat="43.41623" lon="6.05537">
        <ele>233.19533</ele>
        <time>2015-01-14T14:44:39Z</time>
      </trkpt>
      <trkpt lat="43.41625" lon="6.05546">
        <ele>233.23483</ele>
        <time>2015-01-14T14:44:41Z</time>
      </trkpt>
      <trkpt lat="43.41633" lon="6.0558">
        <ele>233.39412</ele>
        <time>2015-01-14T14:44:48Z</time>
      </trkpt>
      <trkpt lat="43.41639" lon="6.05613">
        <ele>233.29977</ele>
        <time>2015-01-14T14:44:54Z</time>
      </trkpt>
      <trkpt lat="43.4164" lon="6.05625">
        <ele>233.22597</ele>
        <time>2015-01-14T14:44:56Z</time>
      </trkpt>
      <trkpt lat="43.41641" lon="6.05631">
        <ele>233.19164</ele>
        <time>2015-01-14T14:44:57Z</time>
      </trkpt>
      <trkpt lat="43.41642" lon="6.05637">
        <ele>233.15329</ele>
        <time>2015-01-14T14:44:58Z</time>
      </trkpt>
      <trkpt lat="43.41643" lon="6.05654">
        <ele>233.01997</ele>
        <time>2015-01-14T14:45:01Z</time>
      </trkpt>
      <trkpt lat="43.41644" lon="6.05659">
        <ele>232.99881</ele>
        <time>2015-01-14T14:45:02Z</time>
      </trkpt>
      <trkpt lat="43.41644" lon="6.05664">
        <ele>232.95818</ele>
        <time>2015-01-14T14:45:03Z</time>
      </trkpt>
      <trkpt lat="43.41647" lon="6.05689">
        <ele>233.05396</ele>
        <time>2015-01-14T14:45:07Z</time>
      </trkpt>
      <trkpt lat="43.41648" lon="6.05704">
        <ele>233.10889</ele>
        <time>2015-01-14T14:45:09Z</time>
      </trkpt>
      <trkpt lat="43.41648" lon="6.05751">
        <ele>233.10497</ele>
        <time>2015-01-14T14:45:15Z</time>
      </trkpt>
      <trkpt lat="43.41648" lon="6.0577">
        <ele>233.03596</ele>
        <time>2015-01-14T14:45:17Z</time>
      </trkpt>
      <trkpt lat="43.41648" lon="6.0578">
        <ele>233.00851</ele>
        <time>2015-01-14T14:45:18Z</time>
      </trkpt>
      <trkpt lat="43.41648" lon="6.0579">
        <ele>232.98068</ele>
        <time>2015-01-14T14:45:19Z</time>
      </trkpt>
      <trkpt lat="43.41646" lon="6.05831">
        <ele>232.7774</ele>
        <time>2015-01-14T14:45:23Z</time>
      </trkpt>
      <trkpt lat="43.41645" lon="6.05854">
        <ele>232.703</ele>
        <time>2015-01-14T14:45:25Z</time>
      </trkpt>
      <trkpt lat="43.41644" lon="6.05875">
        <ele>232.61145</ele>
        <time>2015-01-14T14:45:27Z</time>
      </trkpt>
      <trkpt lat="43.41642" lon="6.05886">
        <ele>232.54279</ele>
        <time>2015-01-14T14:45:28Z</time>
      </trkpt>
      <trkpt lat="43.41642" lon="6.05897">
        <ele>232.49701</ele>
        <time>2015-01-14T14:45:29Z</time>
      </trkpt>
      <trkpt lat="43.41639" lon="6.05919">
        <ele>232.33679</ele>
        <time>2015-01-14T14:45:31Z</time>
      </trkpt>
      <trkpt lat="43.41637" lon="6.05929">
        <ele>232.24524</ele>
        <time>2015-01-14T14:45:32Z</time>
      </trkpt>
      <trkpt lat="43.41636" lon="6.05938">
        <ele>232.15369</ele>
        <time>2015-01-14T14:45:33Z</time>
      </trkpt>
      <trkpt lat="43.41635" lon="6.05948">
        <ele>232.08502</ele>
        <time>2015-01-14T14:45:34Z</time>
      </trkpt>
      <trkpt lat="43.41635" lon="6.05956">
        <ele>232.08502</ele>
        <time>2015-01-14T14:45:35Z</time>
      </trkpt>
      <trkpt lat="43.41635" lon="6.05962">
        <ele>232.10791</ele>
        <time>2015-01-14T14:45:36Z</time>
      </trkpt>
      <trkpt lat="43.41636" lon="6.05967">
        <ele>232.1308</ele>
        <time>2015-01-14T14:45:37Z</time>
      </trkpt>
      <trkpt lat="43.41635" lon="6.05969">
        <ele>232.10791</ele>
        <time>2015-01-14T14:45:38Z</time>
      </trkpt>
      <trkpt lat="43.41636" lon="6.0597">
        <ele>232.1308</ele>
        <time>2015-01-14T14:45:41Z</time>
      </trkpt>
      <trkpt lat="43.41636" lon="6.0597">
        <ele>232.1308</ele>
        <time>2015-01-14T14:45:45Z</time>
      </trkpt>
      <trkpt lat="43.41636" lon="6.0597">
        <ele>232.1308</ele>
        <time>2015-01-14T14:45:51Z</time>
      </trkpt>
      <trkpt lat="43.41636" lon="6.0597">
        <ele>232.1308</ele>
        <time>2015-01-14T14:46:03Z</time>
      </trkpt>
      <trkpt lat="43.41636" lon="6.0597">
        <ele>232.1308</ele>
        <time>2015-01-14T14:46:16Z</time>
      </trkpt>
      <trkpt lat="43.41636" lon="6.0597">
        <ele>232.1308</ele>
        <time>2015-01-14T14:46:19Z</time>
      </trkpt>
      <trkpt lat="43.41635" lon="6.0597">
        <ele>232.08502</ele>
        <time>2015-01-14T14:46:21Z</time>
      </trkpt>
      <trkpt lat="43.41635" lon="6.0597">
        <ele>232.08502</ele>
        <time>2015-01-14T14:46:22Z</time>
      </trkpt>
      <trkpt lat="43.41633" lon="6.05971">
        <ele>231.99347</ele>
        <time>2015-01-14T14:46:24Z</time>
      </trkpt>
      <trkpt lat="43.41631" lon="6.05972">
        <ele>231.83325</ele>
        <time>2015-01-14T14:46:26Z</time>
      </trkpt>
      <trkpt lat="43.41629" lon="6.05978">
        <ele>231.7417</ele>
        <time>2015-01-14T14:46:28Z</time>
      </trkpt>
      <trkpt lat="43.41628" lon="6.05985">
        <ele>231.67303</ele>
        <time>2015-01-14T14:46:30Z</time>
      </trkpt>
      <trkpt lat="43.41625" lon="6.06001">
        <ele>231.50624</ele>
        <time>2015-01-14T14:46:33Z</time>
      </trkpt>
      <trkpt lat="43.41619" lon="6.06042">
        <ele>230.94955</ele>
        <time>2015-01-14T14:46:38Z</time>
      </trkpt>
      <trkpt lat="43.41618" lon="6.06063">
        <ele>230.74582</ele>
        <time>2015-01-14T14:46:40Z</time>
      </trkpt>
      <trkpt lat="43.41618" lon="6.06083">
        <ele>230.66301</ele>
        <time>2015-01-14T14:46:42Z</time>
      </trkpt>
      <trkpt lat="43.41619" lon="6.06093">
        <ele>230.66684</ele>
        <time>2015-01-14T14:46:43Z</time>
      </trkpt>
      <trkpt lat="43.41622" lon="6.06103">
        <ele>230.73993</ele>
        <time>2015-01-14T14:46:44Z</time>
      </trkpt>
      <trkpt lat="43.41629" lon="6.0612">
        <ele>231.01666</ele>
        <time>2015-01-14T14:46:46Z</time>
      </trkpt>
      <trkpt lat="43.41631" lon="6.06127">
        <ele>231.06061</ele>
        <time>2015-01-14T14:46:47Z</time>
      </trkpt>
      <trkpt lat="43.41626" lon="6.06139">
        <ele>230.71907</ele>
        <time>2015-01-14T14:46:49Z</time>
      </trkpt>
      <trkpt lat="43.41618" lon="6.06151">
        <ele>230.18808</ele>
        <time>2015-01-14T14:46:51Z</time>
      </trkpt>
      <trkpt lat="43.41613" lon="6.06158">
        <ele>229.87329</ele>
        <time>2015-01-14T14:46:52Z</time>
      </trkpt>
      <trkpt lat="43.41609" lon="6.06164">
        <ele>229.5714</ele>
        <time>2015-01-14T14:46:53Z</time>
      </trkpt>
      <trkpt lat="43.41606" lon="6.06172">
        <ele>229.21663</ele>
        <time>2015-01-14T14:46:54Z</time>
      </trkpt>
      <trkpt lat="43.41603" lon="6.0618">
        <ele>228.88818</ele>
        <time>2015-01-14T14:46:55Z</time>
      </trkpt>
      <trkpt lat="43.41603" lon="6.06187">
        <ele>228.69249</ele>
        <time>2015-01-14T14:46:56Z</time>
      </trkpt>
      <trkpt lat="43.41604" lon="6.06194">
        <ele>228.58148</ele>
        <time>2015-01-14T14:46:57Z</time>
      </trkpt>
      <trkpt lat="43.41606" lon="6.062">
        <ele>228.56889</ele>
        <time>2015-01-14T14:46:58Z</time>
      </trkpt>
      <trkpt lat="43.41609" lon="6.06205">
        <ele>228.60666</ele>
        <time>2015-01-14T14:46:59Z</time>
      </trkpt>
      <trkpt lat="43.41611" lon="6.06211">
        <ele>228.63069</ele>
        <time>2015-01-14T14:47:00Z</time>
      </trkpt>
      <trkpt lat="43.41611" lon="6.0623">
        <ele>228.12372</ele>
        <time>2015-01-14T14:47:03Z</time>
      </trkpt>
      <trkpt lat="43.41607" lon="6.06242">
        <ele>227.6259</ele>
        <time>2015-01-14T14:47:05Z</time>
      </trkpt>
      <trkpt lat="43.41603" lon="6.06256">
        <ele>227.01331</ele>
        <time>2015-01-14T14:47:08Z</time>
      </trkpt>
      <trkpt lat="43.41597" lon="6.06261">
        <ele>226.4628</ele>
        <time>2015-01-14T14:47:10Z</time>
      </trkpt>
      <trkpt lat="43.41591" lon="6.06268">
        <ele>225.87608</ele>
        <time>2015-01-14T14:47:12Z</time>
      </trkpt>
      <trkpt lat="43.41588" lon="6.06277">
        <ele>225.32153</ele>
        <time>2015-01-14T14:47:14Z</time>
      </trkpt>
      <trkpt lat="43.41588" lon="6.06297">
        <ele>224.66612</ele>
        <time>2015-01-14T14:47:17Z</time>
      </trkpt>
      <trkpt lat="43.41587" lon="6.06304">
        <ele>224.36598</ele>
        <time>2015-01-14T14:47:18Z</time>
      </trkpt>
      <trkpt lat="43.41584" lon="6.06317">
        <ele>223.59483</ele>
        <time>2015-01-14T14:47:20Z</time>
      </trkpt>
      <trkpt lat="43.4158" lon="6.06323">
        <ele>223.31773</ele>
        <time>2015-01-14T14:47:21Z</time>
      </trkpt>
      <trkpt lat="43.41577" lon="6.06329">
        <ele>223.05931</ele>
        <time>2015-01-14T14:47:22Z</time>
      </trkpt>
      <trkpt lat="43.41566" lon="6.06351">
        <ele>222.52962</ele>
        <time>2015-01-14T14:47:25Z</time>
      </trkpt>
      <trkpt lat="43.41562" lon="6.0636">
        <ele>222.34198</ele>
        <time>2015-01-14T14:47:26Z</time>
      </trkpt>
      <trkpt lat="43.41554" lon="6.06393">
        <ele>221.67044</ele>
        <time>2015-01-14T14:47:29Z</time>
      </trkpt>
      <trkpt lat="43.41547" lon="6.06427">
        <ele>221.06529</ele>
        <time>2015-01-14T14:47:32Z</time>
      </trkpt>
      <trkpt lat="43.41545" lon="6.06445">
        <ele>220.90111</ele>
        <time>2015-01-14T14:47:34Z</time>
      </trkpt>
      <trkpt lat="43.41545" lon="6.06454">
        <ele>220.83484</ele>
        <time>2015-01-14T14:47:36Z</time>
      </trkpt>
      <trkpt lat="43.41545" lon="6.06456">
        <ele>220.8243</ele>
        <time>2015-01-14T14:47:37Z</time>
      </trkpt>
      <trkpt lat="43.41545" lon="6.0646">
        <ele>220.8091</ele>
        <time>2015-01-14T14:47:42Z</time>
      </trkpt>
      <trkpt lat="43.41544" lon="6.06461">
        <ele>220.7796</ele>
        <time>2015-01-14T14:47:51Z</time>
      </trkpt>
      <trkpt lat="43.41539" lon="6.06466">
        <ele>220.65407</ele>
        <time>2015-01-14T14:47:55Z</time>
      </trkpt>
      <trkpt lat="43.41537" lon="6.06467">
        <ele>220.61295</ele>
        <time>2015-01-14T14:47:56Z</time>
      </trkpt>
      <trkpt lat="43.41536" lon="6.06469">
        <ele>220.59033</ele>
        <time>2015-01-14T14:47:57Z</time>
      </trkpt>
      <trkpt lat="43.41536" lon="6.0647">
        <ele>220.5854</ele>
        <time>2015-01-14T14:47:58Z</time>
      </trkpt>
      <trkpt lat="43.41536" lon="6.0647">
        <ele>220.58565</ele>
        <time>2015-01-14T14:47:59Z</time>
      </trkpt>
      <trkpt lat="43.41536" lon="6.0647">
        <ele>220.59135</ele>
        <time>2015-01-14T14:48:02Z</time>
      </trkpt>
      <trkpt lat="43.41536" lon="6.0647">
        <ele>220.59087</ele>
        <time>2015-01-14T14:48:08Z</time>
      </trkpt>
      <trkpt lat="43.41536" lon="6.06471">
        <ele>220.59012</ele>
        <time>2015-01-14T14:48:43Z</time>
      </trkpt>
      <trkpt lat="43.41536" lon="6.06471">
        <ele>220.58836</ele>
        <time>2015-01-14T14:50:25Z</time>
      </trkpt>
      <trkpt lat="43.41536" lon="6.06471">
        <ele>220.57997</ele>
        <time>2015-01-14T14:51:04Z</time>
      </trkpt>
      <trkpt lat="43.41535" lon="6.06472">
        <ele>220.56306</ele>
        <time>2015-01-14T14:51:08Z</time>
      </trkpt>
      <trkpt lat="43.41535" lon="6.06481">
        <ele>220.51982</ele>
        <time>2015-01-14T14:51:12Z</time>
      </trkpt>
      <trkpt lat="43.41533" lon="6.0649">
        <ele>220.43617</ele>
        <time>2015-01-14T14:51:15Z</time>
      </trkpt>
      <trkpt lat="43.41528" lon="6.06503">
        <ele>220.30383</ele>
        <time>2015-01-14T14:51:19Z</time>
      </trkpt>
      <trkpt lat="43.41526" lon="6.06525">
        <ele>220.10733</ele>
        <time>2015-01-14T14:51:24Z</time>
      </trkpt>
      <trkpt lat="43.41525" lon="6.06535">
        <ele>219.99471</ele>
        <time>2015-01-14T14:51:26Z</time>
      </trkpt>
      <trkpt lat="43.41524" lon="6.06541">
        <ele>219.93542</ele>
        <time>2015-01-14T14:51:27Z</time>
      </trkpt>
      <trkpt lat="43.41523" lon="6.06547">
        <ele>219.87082</ele>
        <time>2015-01-14T14:51:28Z</time>
      </trkpt>
      <trkpt lat="43.41522" lon="6.06552">
        <ele>219.80043</ele>
        <time>2015-01-14T14:51:29Z</time>
      </trkpt>
      <trkpt lat="43.4152" lon="6.06564">
        <ele>219.657</ele>
        <time>2015-01-14T14:51:31Z</time>
      </trkpt>
      <trkpt lat="43.41519" lon="6.06569">
        <ele>219.58046</ele>
        <time>2015-01-14T14:51:32Z</time>
      </trkpt>
      <trkpt lat="43.41516" lon="6.06586">
        <ele>219.37103</ele>
        <time>2015-01-14T14:51:35Z</time>
      </trkpt>
      <trkpt lat="43.41512" lon="6.0661">
        <ele>219.24843</ele>
        <time>2015-01-14T14:51:39Z</time>
      </trkpt>
      <trkpt lat="43.41502" lon="6.06666">
        <ele>219.02875</ele>
        <time>2015-01-14T14:51:48Z</time>
      </trkpt>
      <trkpt lat="43.41501" lon="6.0671">
        <ele>219.01025</ele>
        <time>2015-01-14T14:51:54Z</time>
      </trkpt>
      <trkpt lat="43.41498" lon="6.06749">
        <ele>219.02179</ele>
        <time>2015-01-14T14:51:59Z</time>
      </trkpt>
      <trkpt lat="43.41497" lon="6.06758">
        <ele>219.02802</ele>
        <time>2015-01-14T14:52:00Z</time>
      </trkpt>
      <trkpt lat="43.41496" lon="6.06767">
        <ele>219.03935</ele>
        <time>2015-01-14T14:52:01Z</time>
      </trkpt>
      <trkpt lat="43.41495" lon="6.06775">
        <ele>219.04384</ele>
        <time>2015-01-14T14:52:02Z</time>
      </trkpt>
      <trkpt lat="43.41493" lon="6.06784">
        <ele>219.04836</ele>
        <time>2015-01-14T14:52:03Z</time>
      </trkpt>
      <trkpt lat="43.41491" lon="6.06793">
        <ele>219.05046</ele>
        <time>2015-01-14T14:52:04Z</time>
      </trkpt>
      <trkpt lat="43.41485" lon="6.0682">
        <ele>219.0291</ele>
        <time>2015-01-14T14:52:07Z</time>
      </trkpt>
      <trkpt lat="43.41482" lon="6.06828">
        <ele>219.0134</ele>
        <time>2015-01-14T14:52:08Z</time>
      </trkpt>
      <trkpt lat="43.41478" lon="6.06844">
        <ele>218.83664</ele>
        <time>2015-01-14T14:52:10Z</time>
      </trkpt>
      <trkpt lat="43.41477" lon="6.06852">
        <ele>218.72118</ele>
        <time>2015-01-14T14:52:11Z</time>
      </trkpt>
      <trkpt lat="43.41477" lon="6.06859">
        <ele>218.60535</ele>
        <time>2015-01-14T14:52:12Z</time>
      </trkpt>
      <trkpt lat="43.41478" lon="6.0687">
        <ele>218.44449</ele>
        <time>2015-01-14T14:52:14Z</time>
      </trkpt>
      <trkpt lat="43.41479" lon="6.06873">
        <ele>218.40845</ele>
        <time>2015-01-14T14:52:15Z</time>
      </trkpt>
      <trkpt lat="43.4148" lon="6.06874">
        <ele>218.38791</ele>
        <time>2015-01-14T14:52:18Z</time>
      </trkpt>
      <trkpt lat="43.4148" lon="6.06874">
        <ele>218.39005</ele>
        <time>2015-01-14T14:52:19Z</time>
      </trkpt>
      <trkpt lat="43.41479" lon="6.06874">
        <ele>218.3885</ele>
        <time>2015-01-14T14:52:23Z</time>
      </trkpt>
      <trkpt lat="43.41479" lon="6.06876">
        <ele>218.36284</ele>
        <time>2015-01-14T14:52:30Z</time>
      </trkpt>
      <trkpt lat="43.41478" lon="6.06889">
        <ele>218.15018</ele>
        <time>2015-01-14T14:52:35Z</time>
      </trkpt>
      <trkpt lat="43.41477" lon="6.0691">
        <ele>217.83575</ele>
        <time>2015-01-14T14:52:40Z</time>
      </trkpt>
      <trkpt lat="43.41473" lon="6.06923">
        <ele>217.59885</ele>
        <time>2015-01-14T14:52:45Z</time>
      </trkpt>
      <trkpt lat="43.41471" lon="6.06927">
        <ele>217.52904</ele>
        <time>2015-01-14T14:52:47Z</time>
      </trkpt>
      <trkpt lat="43.41472" lon="6.0693">
        <ele>217.50043</ele>
        <time>2015-01-14T14:52:49Z</time>
      </trkpt>
      <trkpt lat="43.41478" lon="6.06941">
        <ele>217.4415</ele>
        <time>2015-01-14T14:52:53Z</time>
      </trkpt>
      <trkpt lat="43.4148" lon="6.06943">
        <ele>217.44379</ele>
        <time>2015-01-14T14:52:54Z</time>
      </trkpt>
      <trkpt lat="43.41488" lon="6.06952">
        <ele>217.43005</ele>
        <time>2015-01-14T14:52:57Z</time>
      </trkpt>
      <trkpt lat="43.41492" lon="6.06958">
        <ele>217.41689</ele>
        <time>2015-01-14T14:52:59Z</time>
      </trkpt>
      <trkpt lat="43.415" lon="6.06964">
        <ele>217.43582</ele>
        <time>2015-01-14T14:53:02Z</time>
      </trkpt>
      <trkpt lat="43.41506" lon="6.06969">
        <ele>217.48267</ele>
        <time>2015-01-14T14:53:05Z</time>
      </trkpt>
      <trkpt lat="43.41513" lon="6.06971">
        <ele>217.60474</ele>
        <time>2015-01-14T14:53:08Z</time>
      </trkpt>
      <trkpt lat="43.41518" lon="6.06973">
        <ele>217.68842</ele>
        <time>2015-01-14T14:53:10Z</time>
      </trkpt>
      <trkpt lat="43.41533" lon="6.06972">
        <ele>217.99896</ele>
        <time>2015-01-14T14:53:16Z</time>
      </trkpt>
      <trkpt lat="43.41551" lon="6.06969">
        <ele>218.37186</ele>
        <time>2015-01-14T14:53:23Z</time>
      </trkpt>
      <trkpt lat="43.41565" lon="6.06965">
        <ele>218.64272</ele>
        <time>2015-01-14T14:53:29Z</time>
      </trkpt>
      <trkpt lat="43.41571" lon="6.06964">
        <ele>218.76166</ele>
        <time>2015-01-14T14:53:33Z</time>
      </trkpt>
      <trkpt lat="43.41572" lon="6.06966">
        <ele>218.77971</ele>
        <time>2015-01-14T14:53:34Z</time>
      </trkpt>
      <trkpt lat="43.41574" lon="6.06983">
        <ele>218.79312</ele>
        <time>2015-01-14T14:53:39Z</time>
      </trkpt>
      <trkpt lat="43.41574" lon="6.06987">
        <ele>218.79619</ele>
        <time>2015-01-14T14:53:40Z</time>
      </trkpt>
      <trkpt lat="43.41574" lon="6.0699">
        <ele>218.79962</ele>
        <time>2015-01-14T14:53:41Z</time>
      </trkpt>
      <trkpt lat="43.41575" lon="6.06995">
        <ele>218.80295</ele>
        <time>2015-01-14T14:53:42Z</time>
      </trkpt>
      <trkpt lat="43.41576" lon="6.07007">
        <ele>218.75351</ele>
        <time>2015-01-14T14:53:45Z</time>
      </trkpt>
      <trkpt lat="43.41578" lon="6.07014">
        <ele>218.69571</ele>
        <time>2015-01-14T14:53:47Z</time>
      </trkpt>
      <trkpt lat="43.41578" lon="6.07023">
        <ele>218.60416</ele>
        <time>2015-01-14T14:53:50Z</time>
      </trkpt>
      <trkpt lat="43.41579" lon="6.0703">
        <ele>218.53149</ele>
        <time>2015-01-14T14:53:53Z</time>
      </trkpt>
      <trkpt lat="43.4158" lon="6.07032">
        <ele>218.53091</ele>
        <time>2015-01-14T14:53:58Z</time>
      </trkpt>
    </trkseg>
  </trk>
</gpx>